[[{"header":{"parameterUnit":"m.s-1","parameterCategory":1,"la1":30.6,"la2":28.766,"lo1":-90.7593,"lo2":-88.6598,"dx":0.0162,"dy":0.0183,"nx":116,"ny":114,"refTime":"2022-12-02T06:00:00:Z","depth":0,"parameterNumber":2,"parameterNumberName":"U-component_of_WINDS"},"data":[0.0,0.0,0.0,0.0,0.0,0.0,0.0,0.0,0.0,0.0,0.0,0.0,0.0,0.0,0.0,0.0,0.0,0.0,0.0,0.0,0.0,0.0,0.0,0.0,0.0,0.0,0.0,0.0,0.0,0.0,0.0,0.0,0.0,0.0,0.0,0.0,0.0,0.0,0.0,0.0,0.0,0.0,0.0,0.0,0.0,0.0,0.0,0.0,0.0,0.0,0.0,0.0,0.0,0.0,0.0,0.0,0.0,0.0,0.0,0.0,0.0,0.0,0.0,0.0,0.0,0.0,0.0,0.0,0.0,0.0,0.0,0.0,0.0,0.0,0.0,0.0,0.0,0.0,0.0,0.0,0.0,0.0,0.0,0.0,0.0,0.0,0.0,0.0,0.0,0.0,0.0,0.0,0.0,0.0,0.0,0.0,0.0,0.0,0.0,0.0,0.0,0.0,0.0,0.0,0.0,0.0,0.0,0.0,0.0,0.0,0.0,0.0,0.0,0.0,0.0,0.0,0.0,0.0,0.0,0.0,0.0,0.0,0.0,0.0,0.0,0.0,0.0,0.0,0.0,0.0,0.0,0.0,0.0,0.0,0.0,0.0,0.0,0.0,0.0,0.0,0.0,0.0,0.0,0.0,0.0,0.0,0.0,0.0,0.0,0.0,0.0,0.0,0.0,0.0,0.0,0.0,0.0,0.0,0.0,0.0,0.0,0.0,0.0,0.0,0.0,0.0,0.0,0.0,0.0,0.0,0.0,0.0,0.0,0.0,0.0,0.0,0.0,0.0,0.0,0.0,0.0,0.0,0.0,0.0,0.0,0.0,0.0,0.0,0.0,0.0,0.0,0.0,0.0,0.0,0.0,0.0,0.0,0.0,0.0,0.0,0.0,0.0,0.0,0.0,0.0,0.0,0.0,0.0,0.0,0.0,0.0,0.0,0.0,0.0,0.0,0.0,0.0,0.0,0.0,0.0,0.0,0.0,0.0,0.0,0.0,0.0,0.0,0.0,0.0,0.0,0.0,0.0,0.0,0.0,0.0,0.0,0.0,0.0,0.0,0.0,0.0,0.0,0.0,0.0,0.0,0.0,0.0,0.0,0.0,0.0,0.0,0.0,0.0,0.0,0.0,0.0,0.0,0.0,0.0,0.0,0.0,0.0,0.0,0.0,0.0,0.0,0.0,0.0,0.0,0.0,0.0,0.0,0.0,0.0,0.0,0.0,0.0,0.0,0.0,0.0,0.0,0.0,0.0,0.0,0.0,0.0,0.0,0.0,0.0,0.0,0.0,0.0,0.0,0.0,0.0,0.0,0.0,0.0,0.0,0.0,0.0,0.0,0.0,0.0,0.0,0.0,0.0,0.0,0.0,0.0,0.0,0.0,0.0,0.0,0.0,0.0,0.0,0.0,0.0,0.0,0.0,0.0,0.0,0.0,0.0,0.0,0.0,0.0,0.0,0.0,0.0,0.0,0.0,0.0,0.0,0.0,0.0,0.0,0.0,0.0,0.0,0.0,0.0,0.0,0.0,0.0,0.0,0.0,0.0,0.0,0.0,0.0,0.0,0.0,0.0,0.0,0.0,0.0,0.0,0.0,0.0,0.0,0.0,0.0,0.0,0.0,0.0,0.0,0.0,0.0,0.0,0.0,0.0,0.0,0.0,0.0,0.0,0.0,0.0,0.0,0.0,0.0,0.0,0.0,0.0,0.0,0.0,0.0,0.0,0.0,0.0,0.0,0.0,0.0,0.0,0.0,0.0,0.0,0.0,0.0,0.0,0.0,0.0,0.0,0.0,0.0,0.0,0.0,0.0,0.0,0.0,0.0,0.0,0.0,0.0,0.0,0.0,0.0,0.0,0.0,0.0,0.0,0.0,0.0,0.0,0.0,0.0,0.0,0.0,0.0,0.0,0.0,0.0,0.0,0.0,0.0,0.0,0.0,0.0,0.0,0.0,0.0,0.0,0.0,0.0,0.0,0.0,0.0,0.0,0.0,0.0,0.0,0.0,0.0,0.0,0.0,0.0,0.0,0.0,0.0,0.0,0.0,0.0,0.0,0.0,0.0,0.0,0.0,0.0,0.0,0.0,0.0,0.0,0.0,0.0,0.0,0.0,0.0,0.0,0.0,0.0,0.0,0.0,0.0,0.0,0.0,0.0,0.0,0.0,0.0,0.0,0.0,0.0,0.0,0.0,0.0,0.0,0.0,0.0,0.0,0.0,0.0,0.0,0.0,0.0,0.0,0.0,0.0,0.0,0.0,0.0,0.0,0.0,0.0,0.0,0.0,0.0,0.0,0.0,0.0,0.0,0.0,0.0,0.0,0.0,0.0,0.0,0.0,0.0,0.0,0.0,0.0,0.0,0.0,0.0,0.0,0.0,0.0,0.0,0.0,0.0,0.0,0.0,0.0,0.0,0.0,0.0,0.0,0.0,0.0,0.0,0.0,0.0,0.0,0.0,0.0,0.0,0.0,0.0,0.0,0.0,0.0,0.0,0.0,0.0,0.0,0.0,0.0,0.0,0.0,0.0,0.0,0.0,0.0,0.0,0.0,0.0,0.0,0.0,0.0,0.0,0.0,0.0,0.0,0.0,0.0,0.0,0.0,0.0,0.0,0.0,0.0,0.0,0.0,0.0,0.0,0.0,0.0,0.0,0.0,0.0,0.0,0.0,0.0,0.0,0.0,0.0,0.0,0.0,0.0,0.0,0.0,0.0,0.0,0.0,0.0,0.0,0.0,0.0,0.0,0.0,0.0,0.0,0.0,0.0,0.0,0.0,0.0,0.0,0.0,0.0,0.0,0.0,0.0,0.0,0.0,0.0,0.0,0.0,0.0,0.0,0.0,0.0,0.0,0.0,0.0,0.0,0.0,0.0,0.0,0.0,0.0,0.0,0.0,0.0,0.0,0.0,0.0,0.0,0.0,0.0,0.0,0.0,0.0,0.0,0.0,0.0,0.0,0.0,0.0,0.0,0.0,0.0,0.0,0.0,0.0,0.0,0.0,0.0,0.0,0.0,0.0,0.0,0.0,0.0,0.0,0.0,0.0,0.0,0.0,0.0,0.0,0.0,0.0,0.0,0.0,0.0,0.0,0.0,0.0,0.0,0.0,0.0,0.0,0.0,0.0,0.0,0.0,0.0,0.0,0.0,0.0,0.0,0.0,0.0,0.0,0.0,0.0,0.0,0.0,0.0,0.0,0.0,0.0,0.0,0.0,0.0,0.0,0.0,0.0,0.0,0.0,0.0,0.0,0.0,0.0,0.0,0.0,0.0,0.0,0.0,0.0,0.0,0.0,0.0,0.0,0.0,0.0,0.0,0.0,0.0,0.0,0.0,0.0,0.0,0.0,0.0,0.0,0.0,0.0,0.0,0.0,0.0,0.0,0.0,0.0,0.0,0.0,0.0,0.0,0.0,0.0,0.0,0.0,0.0,0.0,0.0,0.0,0.0,0.0,0.0,0.0,0.0,0.0,0.0,0.0,0.0,0.0,0.0,0.0,0.0,0.0,0.0,0.0,0.0,0.0,0.0,0.0,0.0,0.0,0.0,0.0,0.0,0.0,0.0,0.0,0.0,0.0,0.0,0.0,0.0,0.0,0.0,0.0,0.0,0.0,0.0,0.0,0.0,0.0,0.0,0.0,0.0,0.0,0.0,0.0,0.0,0.0,0.0,0.0,0.0,0.0,0.0,0.0,0.0,0.0,0.0,0.0,0.0,0.0,0.0,0.0,0.0,0.0,0.0,0.0,0.0,0.0,0.0,0.0,0.0,0.0,0.0,0.0,0.0,0.0,0.0,0.0,0.0,0.0,0.0,0.0,0.0,0.0,0.0,0.0,0.0,0.0,0.0,0.0,0.0,0.0,0.0,0.0,0.0,0.0,0.0,0.0,0.0,0.0,0.0,0.0,0.0,0.0,0.0,0.0,0.0,0.0,0.0,0.0,0.0,0.0,0.0,0.0,0.0,0.0,0.0,0.0,0.0,0.0,0.0,0.0,0.0,0.0,0.0,0.0,0.0,0.0,0.0,0.0,0.0,0.0,0.0,0.0,0.0,0.0,0.0,0.0,0.0,0.0,0.0,0.0,0.0,0.0,0.0,0.0,0.0,0.0,0.0,0.0,0.0,0.0,0.0,0.0,0.0,0.0,0.0,0.0,0.0,0.0,0.0,0.0,0.0,0.0,0.0,0.0,0.0,0.0,0.0,0.0,0.0,0.0,0.0,0.0,0.0,0.0,0.0,0.0,0.0,0.0,0.0,0.0,0.0,0.0,0.0,0.0,0.0,0.0,0.0,0.0,0.0,0.0,0.0,0.0,0.0,0.0,0.0,0.0,0.0,0.0,0.0,0.0,0.0,0.0,0.0,0.0,0.0,0.0,0.0,0.0,0.0,0.0,0.0,0.0,0.0,0.0,0.0,0.0,0.0,0.0,0.0,0.0,0.0,0.0,0.0,0.0,0.0,0.0,0.0,0.0,0.0,0.0,0.0,0.0,0.0,0.0,0.0,0.0,0.0,0.0,0.0,0.0,0.0,0.0,0.0,0.0,0.0,0.0,0.0,0.0,0.0,0.0,0.0,0.0,0.0,0.0,0.0,0.0,0.0,0.0,0.0,0.0,0.0,0.0,0.0,0.0,0.0,0.0,0.0,0.0,0.0,0.0,0.0,0.0,0.0,0.0,0.0,0.0,0.0,0.0,0.0,0.0,0.0,0.0,0.0,0.0,0.0,0.0,0.0,0.0,0.0,0.0,0.0,0.0,0.0,0.0,0.0,0.0,0.0,0.0,0.0,0.0,0.0,0.0,0.0,0.0,0.0,0.0,0.0,0.0,0.0,0.0,0.0,0.0,0.0,0.0,0.0,0.0,0.0,0.0,0.0,0.0,0.0,0.0,0.0,0.0,0.0,0.0,0.0,0.0,0.0,0.0,0.0,0.0,0.0,0.0,0.0,0.0,0.0,0.0,0.0,0.0,0.0,0.0,0.0,0.0,0.0,0.0,0.0,0.0,0.0,0.0,0.0,0.0,0.0,0.0,0.0,0.0,0.0,0.0,0.0,0.0,0.0,0.0,0.0,0.0,0.0,0.0,0.0,0.0,0.0,0.0,0.0,0.0,0.0,0.0,0.0,0.0,0.0,0.0,0.0,0.0,0.0,0.0,0.0,0.0,0.0,0.0,0.0,0.0,0.0,0.0,0.0,0.0,0.0,0.0,0.0,0.0,0.0,0.0,0.0,0.0,0.0,0.0,0.0,0.0,0.0,0.0,0.0,0.0,0.0,0.0,0.0,0.0,0.0,0.0,0.0,0.0,0.0,0.0,0.0,0.0,0.0,0.0,0.0,0.0,0.0,0.0,0.0,0.0,0.0,0.0,0.0,0.0,0.0,0.0,0.0,0.0,0.0,0.0,0.0,0.0,0.0,0.0,0.0,0.0,0.0,0.0,0.0,0.0,0.0,0.0,0.0,0.0,0.0,0.0,0.0,0.0,0.0,0.0,0.0,0.0,0.0,0.0,0.0,0.0,0.0,0.0,0.0,0.0,0.0,0.0,0.0,0.0,0.0,0.0,0.0,0.0,0.0,0.0,0.0,0.0,0.0,0.0,0.0,0.0,0.0,0.0,0.0,0.0,0.0,0.0,0.0,0.0,0.0,0.0,0.0,0.0,0.0,0.0,0.0,0.0,0.0,0.0,0.0,0.0,0.0,0.0,0.0,0.0,0.0,0.0,0.0,0.0,0.0,0.0,0.0,0.0,0.0,0.0,0.0,0.0,0.0,0.0,0.0,0.0,0.0,0.0,0.0,0.0,0.0,0.0,0.0,0.0,0.0,0.0,0.0,0.0,0.0,0.0,0.0,0.0,0.0,0.0,0.0,0.0,0.0,0.0,0.0,0.0,0.0,0.0,0.0,0.0,0.0,0.0,0.0,0.0,0.0,0.0,0.0,0.0,0.0,0.0,0.0,0.0,0.0,0.0,0.0,0.0,0.0,0.0,0.0,0.0,0.0,0.0,0.0,0.0,0.0,0.0,0.0,0.0,0.0,0.0,0.0,0.0,0.0,0.0,0.0,0.0,0.0,0.0,0.0,0.0,0.0,0.0,0.0,0.0,0.0,0.0,1.7848,0.0,0.0,0.0,0.0,0.0,0.0,0.0,0.0,0.0,0.0,0.0,0.0,0.0,0.0,0.0,0.0,0.0,0.0,0.0,0.0,0.0,0.0,0.0,0.0,0.9698,0.9533,0.911,0.911,0.0,0.0,0.0,0.0,0.0,0.0,0.0,0.0,0.0,0.4687,0.9277,1.1329,1.6907,2.5439,1.5735,0.936,0.6063,0.0,0.0,0.0,0.0,0.0,0.0,0.0,0.0,0.0,0.0,0.0,0.0,0.0,0.0,0.0,0.0,0.0,0.0,0.0,0.0,0.0,0.0,0.0,0.0,0.0,0.0,0.0,0.0,0.0,0.0,0.0,0.0,0.0,0.0,0.0,0.0,0.0,0.0,0.0,0.0,0.0,0.0,0.0,0.0,0.0,0.0,0.0,0.0,0.0,0.0,0.0,0.0,0.0,0.0,0.0,0.0,0.0,0.0,0.0,0.0,0.0,0.0,0.0,0.0,0.0,0.0,0.0,0.0,0.0,0.0,0.0,1.8562,0.0,0.0,0.0,0.0,0.0,0.0,0.0,0.0,0.0,0.0,0.0,0.0,0.0,0.0,0.0,0.0,0.0,0.0,0.0,0.0,0.0,0.9776,0.99,0.9919,0.9919,0.9919,0.9177,0.8449,0.7849,0.5392,0.0,0.0,0.0,0.0,0.5039,0.6172,1.0774,1.9044,1.8178,1.9413,2.2524,2.0296,1.6902,1.2656,1.1598,0.0,0.0,0.0,0.0,0.0,0.0,0.0,0.0,0.0,0.0,0.0,0.0,0.0,0.0,0.0,0.0,0.0,0.0,0.0,0.0,0.0,0.0,0.0,0.0,0.0,0.0,0.0,0.0,0.0,0.0,0.0,0.0,0.0,0.0,0.0,0.0,0.0,0.0,0.0,0.0,0.0,0.0,0.0,0.0,0.0,0.0,0.0,0.0,0.0,0.0,0.0,0.0,0.0,0.0,0.0,0.0,0.0,0.0,0.0,0.0,0.0,0.0,0.0,2.1843,2.2064,2.2083,2.2745,2.4205,2.6025,2.3263,2.3293,2.4866,0.0,0.0,0.0,0.0,0.0,0.0,0.0,0.0,0.0,0.0,0.0,0.0,0.0,0.0,0.0,0.0,0.0,0.0,0.0,0.0,1.002,1.0663,1.0746,1.0746,1.0746,1.0003,0.8706,0.6746,0.2865,0.0,0.0,0.0,0.4648,0.5098,1.0469,1.4829,1.8009,2.4693,2.6871,2.4777,2.4986,2.4774,2.3979,1.8735,1.4951,1.2298,0.0,0.0,0.0,0.0,0.0,0.0,0.0,0.0,0.0,0.0,0.0,0.0,0.0,0.0,0.0,0.0,0.0,0.0,0.0,0.0,0.0,0.0,0.0,0.0,0.0,0.0,0.0,0.0,0.0,0.0,0.0,0.0,0.0,0.0,0.0,0.0,0.0,0.0,0.0,0.0,0.0,1.8556,1.8655,0.0,0.0,0.0,0.0,0.0,0.0,0.0,0.0,0.0,0.0,0.0,0.0,0.0,2.031,2.1333,2.3537,2.5023,2.5803,2.8023,2.9075,2.9075,2.9171,2.9413,2.9713,2.9248,0.0,2.5237,2.4342,0.0,0.0,0.0,0.0,0.0,0.0,0.0,0.0,0.0,0.0,0.0,0.0,0.0,0.0,0.0,0.0,0.0,0.0,0.0,0.0,0.0,1.2991,1.338,1.4205,1.3956,1.2187,0.8486,0.5643,0.0,0.0,0.5078,0.791,0.791,1.3453,1.8,2.1328,2.6218,2.8437,2.8138,2.8418,2.8514,2.831,2.5665,2.1729,1.6936,1.4818,0.0,0.0,0.0,0.0,0.0,0.0,0.0,0.0,0.0,0.0,0.0,0.0,0.0,0.0,0.0,0.0,0.0,0.0,0.0,0.0,0.0,0.0,0.0,0.0,0.0,0.0,0.0,0.0,0.0,0.0,0.0,0.0,0.0,0.0,0.0,0.0,0.0,0.0,0.0,1.6713,1.8624,1.8627,1.7382,1.6033,0.0,0.0,0.0,0.0,0.0,0.0,0.0,0.0,0.0,2.3064,2.4052,2.5187,2.6489,2.8099,2.9094,2.949,3.1056,3.1811,3.1811,3.1811,3.1811,3.1811,3.1811,3.096,2.9356,2.6565,2.3839,2.1273,0.0,0.0,0.0,0.0,1.9799,2.0481,0.0,0.0,0.0,0.0,0.0,0.0,0.0,0.0,0.0,0.0,0.0,0.0,1.4709,1.5409,1.6346,1.7875,1.7742,1.6073,1.2493,0.9529,0.5919,0.1428,0.6106,0.9016,0.9448,1.5356,2.0486,2.4686,2.7125,2.9037,3.0398,3.0398,3.0283,3.011,3.011,2.7068,2.1844,2.0544,1.6669,1.0826,0.0,0.0,0.0,0.0,0.0,0.0,0.0,0.0,0.0,0.0,0.0,0.0,0.0,0.0,0.0,0.0,0.0,0.0,0.0,0.0,0.0,0.0,0.0,0.0,0.0,0.0,0.0,0.0,0.0,0.0,0.0,0.0,0.0,0.0,0.0,0.0,0.0,1.8548,2.0074,2.031,1.9938,1.8877,0.0,0.0,0.0,0.0,0.0,0.0,2.2055,2.3375,2.487,2.6546,2.808,2.9471,3.0717,3.1569,3.2011,3.2006,3.2608,3.2897,3.2897,3.2897,3.2897,3.2897,3.2897,3.2916,3.2666,2.8917,2.7091,2.6378,2.3993,2.2759,2.2557,2.4269,2.4921,2.5394,0.0,0.0,0.0,0.0,0.0,0.0,0.0,0.0,0.0,0.0,0.0,1.4294,1.5938,1.753,1.9162,2.085,2.0045,1.94,1.922,1.3161,0.8075,0.4702,0.5065,0.6093,0.7698,1.5904,2.2189,2.6285,2.8948,3.0302,3.0398,3.0398,3.0379,3.0379,3.0379,2.9166,2.7018,2.5362,2.2748,1.9008,1.1137,0.0,0.0,0.0,0.0,0.0,0.0,0.0,0.0,0.0,0.0,0.0,0.0,0.0,0.0,0.0,0.0,0.0,0.0,0.0,0.0,0.0,0.0,0.0,0.0,0.0,0.0,0.0,0.0,0.0,0.0,0.0,0.0,0.0,0.0,0.0,0.0,0.0,0.0,2.6259,2.4897,0.0,0.0,0.0,0.0,2.2304,2.2578,2.4095,2.7321,2.7589,2.8418,3.009,3.1037,3.1549,3.1626,3.2439,3.2827,3.2851,3.2889,3.2908,3.2908,3.2908,3.2908,3.2908,3.2908,3.2966,3.3056,3.2685,3.1596,3.0131,3.0044,2.9026,2.7831,2.9648,3.0316,3.0565,0.0,0.0,0.0,1.1137,1.0464,1.0094,1.0094,1.0478,1.1053,1.1963,1.3988,1.6362,1.9052,2.0921,2.2833,2.4945,2.5242,2.4454,2.2407,1.8989,1.5317,1.1469,0.9386,1.2003,1.992,2.2345,2.5313,2.8979,2.9925,3.0398,3.0398,3.0398,3.0398,3.0398,3.0398,3.001,2.9166,2.6384,2.3304,2.0058,1.72,1.2136,0.0,0.0,0.0,0.0,0.0,0.0,0.0,0.0,0.0,0.0,0.0,0.0,0.0,0.0,0.0,0.0,0.0,0.0,0.0,0.0,0.0,0.0,0.0,0.0,0.0,0.0,0.0,0.0,0.0,0.0,0.0,0.0,0.0,0.0,0.0,0.0,0.0,2.4441,2.519,0.0,2.3247,2.4007,2.5028,2.5979,2.7067,2.8476,3.0244,3.034,3.0864,3.1965,3.2305,3.2473,3.2468,3.332,3.373,3.3728,3.4312,3.4562,3.4562,3.4562,3.4562,3.4562,3.4562,3.4601,3.4653,3.4584,3.3635,3.2212,3.2312,3.1977,3.1484,3.2148,3.2391,3.251,0.0,0.0,0.0,1.1156,1.0483,1.0094,1.0094,1.0727,1.173,1.322,1.5842,1.8744,2.1782,2.3946,2.5925,2.7761,2.832,2.7585,2.5171,2.2811,1.9682,1.5629,1.422,1.76,2.6241,2.5974,2.7274,3.0398,3.0398,3.0398,3.0398,3.0398,3.0398,3.0398,3.0398,3.0398,3.0206,2.7067,2.4465,2.2314,2.1163,1.7022,1.123,0.0,0.0,0.0,0.0,0.0,0.0,0.0,0.0,0.0,0.0,0.0,0.0,0.0,0.0,0.0,0.0,0.0,0.0,0.0,0.0,0.0,0.0,0.0,0.0,0.0,0.0,0.0,0.0,0.0,0.0,0.0,0.0,0.0,0.0,0.0,2.5121,2.4377,2.6219,2.6827,2.5014,2.6895,2.8361,2.8718,3.004,3.1095,3.1677,3.1961,3.2352,3.2884,3.3185,3.3333,3.333,3.4216,3.4653,3.4653,3.5224,3.5493,3.5493,3.5493,3.5493,3.5493,3.5493,3.5526,3.5545,3.5545,3.4941,3.4057,3.4147,3.415,3.4121,3.4199,3.4238,3.4277,0.0,0.0,1.2122,1.0402,1.0094,1.0094,1.0094,1.0863,1.2344,1.4862,1.8208,2.1312,2.386,2.6419,2.8255,2.9063,2.8957,2.8502,2.7656,2.4252,2.0573,1.6734,1.9146,2.2079,2.5313,2.6265,2.7931,3.0398,3.0398,3.0398,3.0398,3.0398,3.0398,3.0398,3.0398,3.0398,3.0225,2.7704,2.664,2.6331,2.2917,2.0007,1.7309,0.0,0.0,0.0,0.0,0.0,0.0,0.0,0.0,0.0,0.0,0.0,0.0,0.0,0.0,0.0,0.0,0.0,0.0,0.0,0.0,0.0,0.0,0.0,0.0,0.0,0.0,0.0,0.0,0.0,0.0,0.0,0.0,0.0,2.4247,2.4972,2.585,2.6763,2.8375,2.8925,2.7693,2.9077,3.0148,3.0417,3.1261,3.1754,3.178,3.2526,3.2952,3.2971,3.3799,3.4255,3.4255,3.5089,3.5493,3.5493,3.5493,3.5493,3.5493,3.5493,3.5493,3.5493,3.5493,3.5545,3.5603,3.5603,3.5641,3.5708,3.5697,3.5703,3.5723,3.5937,3.5996,3.5996,1.2911,1.2199,1.1406,1.0286,1.0094,1.0082,1.0024,1.1266,1.2895,1.4865,1.86,2.2096,2.4688,2.7236,2.9102,2.9967,2.9978,2.9339,2.7911,2.3985,2.0708,1.8417,2.3687,2.6843,2.7169,2.8607,2.9696,3.0398,3.0398,3.0398,3.0398,3.0398,3.0398,3.0398,3.0398,3.0398,3.0263,2.8361,2.7542,2.7248,2.3822,2.0915,1.8452,0.0,0.0,0.0,0.0,0.0,0.0,0.0,0.0,0.0,0.0,0.0,0.0,0.0,0.0,0.0,0.0,0.0,0.0,0.0,0.0,0.0,0.0,0.0,0.0,0.0,0.0,0.0,0.0,0.0,0.0,0.0,0.0,2.5737,2.5139,2.6763,2.8114,2.8356,2.8975,2.9328,2.9118,3.0222,3.1056,3.1318,3.2112,3.2851,3.348,3.3717,3.4126,3.4768,3.5018,3.5147,3.5147,3.5378,3.5493,3.5493,3.5493,3.5493,3.5493,3.5493,3.5493,3.5493,3.5493,3.5526,3.5545,3.5545,3.5584,3.5636,3.5684,3.5761,3.5859,3.5918,3.5957,3.5996,1.2854,1.2007,1.1113,1.0223,1.0061,1.0044,0.9976,1.1383,1.3192,1.5244,1.9183,2.2753,2.5309,2.7924,2.9685,3.0184,3.0222,2.925,2.6956,2.3485,2.187,2.2686,2.615,2.8324,2.894,2.991,3.0398,3.0398,3.0398,3.0398,3.0398,3.0398,3.0398,3.0398,3.0398,3.0398,3.0283,2.861,2.7907,2.7663,2.4947,2.2546,2.0466,1.9257,1.7665,1.5977,1.5062,1.414,1.3772,1.6411,0.0,0.0,0.0,0.0,0.0,0.0,0.0,0.0,0.0,0.0,0.0,0.0,0.0,0.0,0.0,0.0,0.0,0.0,0.0,0.0,0.0,0.0,0.0,0.0,2.5886,2.7437,2.6968,2.8132,2.8994,2.8994,2.9315,2.9714,3.0203,3.0999,3.1672,3.2167,3.2968,3.366,3.4178,3.4543,3.4979,3.5474,3.5493,3.5493,3.5493,3.5493,3.5493,3.5493,3.5493,3.5493,3.5493,3.5493,3.5493,0.0,3.5493,3.5493,3.5493,3.5493,3.5526,0.0,0.0,0.0,0.0,0.0,3.5976,3.5996,1.2844,1.1978,1.1095,1.0149,0.9982,0.9957,0.9893,1.1313,1.3327,1.5894,1.9719,2.3226,2.5891,2.8388,2.9918,3.0028,3.0094,2.8821,2.5742,2.3448,2.3889,2.7582,2.7295,2.8104,3.034,3.0398,3.0398,3.0398,3.0398,3.0398,3.0398,3.0398,3.0398,3.0398,3.0398,3.0398,3.0283,2.861,2.7907,2.7759,2.5996,2.4351,2.2777,2.1199,2.0035,1.9073,1.7428,1.6709,1.6409,1.5724,0.0,0.0,0.0,0.0,0.0,0.0,0.0,0.0,0.0,0.0,0.0,0.0,0.0,0.0,0.0,0.0,0.0,0.0,0.0,0.0,0.0,0.0,0.0,0.0,2.7944,2.8994,2.8994,2.9085,2.9135,2.9153,2.9554,3.0183,3.1053,3.1646,3.2295,3.2985,3.3857,3.4351,3.4351,0.0,0.0,0.0,0.0,3.5493,3.5493,3.5493,3.5493,3.5493,3.5493,3.5493,3.5493,3.5493,3.5493,3.5493,3.5493,3.5493,3.5493,3.5493,3.5493,3.5526,3.5644,3.5777,3.5886,3.5968,3.5996,3.5996,1.2728,1.188,1.1013,1.009,0.9916,0.9893,0.9831,1.1298,1.3511,1.6586,1.9654,2.3034,2.686,2.8322,2.9383,3.0253,3.0567,2.9699,2.7235,2.6822,2.6717,2.6851,2.8659,2.991,3.0379,3.0398,3.0398,3.0398,3.0398,3.0398,3.0398,3.0398,3.0398,3.0398,3.0398,3.0398,3.0283,2.861,2.7926,2.7817,2.6025,2.4706,2.3746,2.2703,2.1775,2.0885,1.9892,1.9358,1.935,2.1086,1.9693,1.7524,1.9168,1.7754,0.0,0.0,0.0,0.0,0.0,0.0,0.0,0.0,0.0,0.0,0.0,0.0,0.0,0.0,0.0,0.0,0.0,0.0,0.0,2.649,2.7944,2.8994,2.8994,2.9551,2.9965,2.9976,3.0424,3.1068,3.1885,3.3026,3.3774,3.3934,3.4768,3.5243,3.5243,3.5397,3.5493,3.5493,3.5493,3.5493,3.5493,3.5493,3.5493,3.5493,0.0,0.0,3.5493,3.5493,3.5493,3.5493,3.5493,3.5493,3.5493,3.5493,3.5545,3.5579,3.5611,3.5662,3.5745,3.5877,3.5957,3.5996,1.3328,1.2172,1.1043,1.0104,0.9955,0.9933,0.9869,1.1293,1.3424,1.628,1.9309,2.2144,2.4625,2.6097,2.6766,2.6431,2.667,2.7023,2.7475,2.7328,2.7621,2.8467,2.9706,3.0398,3.0398,3.0398,3.0398,3.0398,3.0398,3.0398,3.0398,3.0398,3.0398,3.0398,3.0398,3.0398,3.0283,2.866,2.7964,2.7846,2.6083,2.5111,2.462,2.3303,2.2263,2.1459,2.1039,2.0685,2.0638,2.2308,2.1787,2.0572,2.1316,2.0179,1.8157,0.0,0.0,0.0,0.0,0.0,0.0,0.0,0.0,0.0,0.0,0.0,0.0,0.0,0.0,2.3324,0.0,0.0,2.7196,2.772,2.8805,2.9596,2.9596,3.0299,3.0711,3.0442,3.1096,3.1968,3.2908,3.373,3.4389,3.4826,3.5243,3.5493,3.5493,3.5493,3.5493,3.5493,3.5493,3.5493,3.5493,3.5493,3.5493,3.5493,3.5493,3.5493,3.5493,3.5493,3.5493,3.5493,3.5493,3.5493,3.5493,3.5493,3.5526,3.5553,3.556,3.5606,3.5723,3.5851,3.5918,3.5957,1.3811,1.253,1.135,1.0392,1.0091,0.9971,0.9904,1.1181,1.3036,1.5517,1.8321,2.0519,2.1645,2.3101,2.3619,2.2665,2.3005,2.4551,2.7527,2.7481,2.8255,3.0302,3.0398,3.0398,3.0398,3.0398,3.0398,3.0398,3.0398,3.0398,3.0398,3.0398,3.0398,3.0398,3.0398,3.0302,3.0052,2.8591,2.7887,2.7615,2.602,2.5395,2.5226,2.3659,2.2717,2.2188,2.1872,2.1644,2.1616,2.2482,2.2883,2.2935,2.2478,2.2069,2.1356,1.9373,1.8245,0.0,0.0,0.0,0.0,0.0,0.0,0.0,0.0,0.0,2.1604,2.2728,2.4472,2.6036,2.6905,2.7589,2.8301,2.9108,2.9766,3.0231,3.0404,3.1149,3.1496,3.1103,3.1875,3.2855,3.3872,3.4266,3.4749,3.5435,3.5493,3.5493,3.5493,3.5493,3.5493,3.5493,3.5493,3.5493,3.5493,3.5493,3.5493,3.5493,3.5493,3.5493,3.5493,3.5493,3.5493,3.5493,3.5493,3.5493,3.5493,3.5493,3.5493,3.5493,3.5493,3.5584,3.5689,3.5791,3.5847,3.5873,1.3132,1.2676,1.2242,1.1231,1.0432,0.9904,0.9893,1.0678,1.2132,1.4615,1.6033,1.7698,1.9998,2.0386,2.1204,2.3049,2.4312,2.6036,2.8413,2.9455,3.009,3.0379,3.0398,3.0398,3.0398,3.0398,3.0398,3.0398,3.0398,3.0398,3.0398,3.0398,3.0398,3.0398,3.0398,2.9963,2.919,2.8303,2.7511,2.6756,2.5733,2.5342,2.5284,2.4312,2.434,2.4683,2.3195,2.2906,2.3358,2.4234,2.3841,2.3048,2.3394,2.3955,2.4182,2.2673,2.1732,2.0772,1.9011,1.7567,1.6863,1.8102,1.9498,2.1257,0.0,0.0,2.609,2.6949,2.7908,2.8585,2.8705,2.8815,2.9127,2.9936,3.0143,3.0459,3.118,3.1971,3.2526,3.2711,3.3045,3.3616,3.4525,3.5058,3.5397,3.5474,3.5493,3.5493,3.5493,3.5493,3.5493,3.5493,3.5493,3.5493,3.5493,3.5493,3.5493,3.5493,3.5493,3.5493,3.5493,3.5493,3.5493,3.5493,3.5493,3.5493,3.5493,3.5493,3.5493,3.5493,3.5493,3.5526,3.5526,3.5605,3.567,3.5716,1.4291,1.3753,1.3275,1.2837,1.1233,1.002,1.002,1.0727,1.2,1.4008,1.5087,1.6053,1.7084,1.6304,1.6685,1.9124,2.1646,2.412,2.6558,2.9037,3.0398,3.0398,3.0398,3.0398,3.0398,3.0398,3.0398,3.0398,3.0398,3.0398,3.0398,3.0398,3.0398,3.0379,2.9867,2.9433,2.9017,2.7734,2.7016,2.6612,2.5732,2.536,2.5303,2.4438,2.4918,2.5898,2.4687,2.4251,0.0,2.5221,2.4999,2.4324,2.3834,2.3804,2.3803,2.297,2.2108,2.143,2.1501,2.1366,2.1281,2.1463,2.2754,2.4252,2.5321,2.6291,2.7241,2.8291,2.8769,2.8994,2.8994,2.937,2.9803,0.0,3.0993,3.1718,3.2041,3.2783,3.3342,3.3456,3.3876,3.4367,3.4868,3.5277,3.5493,3.5493,3.5493,3.5493,3.5493,3.5493,3.5493,3.5493,3.5493,3.5493,3.5493,3.5493,3.5493,3.5493,3.5493,3.5493,3.5493,3.5493,3.5493,3.5493,3.5493,3.5493,3.5493,3.5493,3.5493,3.5493,3.5493,3.5493,3.5526,3.5584,3.5618,3.5657,1.4882,1.4324,1.3824,1.3613,1.1844,1.0464,1.0464,1.0791,1.156,1.3017,1.3767,1.4157,1.4157,1.2849,1.3007,1.5561,1.8869,2.1985,2.4793,2.8159,3.016,3.0379,3.0398,3.0398,3.0398,3.0398,3.0398,3.0398,3.0398,3.0398,3.0398,3.0398,3.0263,3.0002,2.9375,2.8837,2.833,2.718,2.6535,2.6256,2.562,2.5245,2.4966,2.4332,2.4668,2.5408,2.4771,2.4534,2.4448,2.4317,2.4168,2.3862,2.2758,2.2723,2.3092,2.3057,2.2459,2.1989,2.2852,2.3621,2.4113,2.3775,2.5077,2.6409,2.6258,2.6925,2.7825,2.8795,2.8994,2.9072,2.9297,2.9803,3.0351,3.0785,3.1824,3.268,3.2889,3.3442,3.3807,3.3807,3.432,3.4773,3.4966,3.5301,3.5493,3.5493,3.5493,3.5493,3.5493,3.5493,3.5493,3.5493,3.5493,3.5493,3.5493,3.5493,3.5493,3.5493,3.5493,3.5493,3.5493,3.5493,3.5493,3.5493,3.5493,3.5493,3.5493,3.5493,3.5628,3.5839,3.5825,3.5825,3.5839,3.5878,3.5762,3.5622,1.4113,1.3915,1.3651,1.2873,1.1968,1.1368,1.1368,1.0675,1.0464,1.1368,1.1502,1.1521,1.1521,1.0714,1.1209,1.3767,1.7099,2.0512,2.3918,2.7285,2.9525,3.0359,3.0398,3.0398,3.0398,3.0398,3.0398,3.0398,3.0398,3.0398,3.0398,3.0398,2.9944,2.9133,2.9113,2.8195,2.667,2.6612,2.6121,2.5341,2.5303,2.4851,2.414,2.4111,2.3534,2.2728,2.2696,2.3091,2.3247,2.0751,2.0228,2.0481,1.946,2.0753,2.2779,2.3624,2.3596,2.319,2.253,2.2868,2.3596,2.4289,2.5859,2.7379,2.7736,2.8124,2.8484,2.892,2.8994,2.9242,3.001,3.018,3.0711,3.2279,3.2569,3.2857,3.3642,3.377,3.3807,3.3807,3.432,3.4699,0.0,3.5185,3.5493,3.5493,3.5493,3.5493,3.5493,3.5493,3.5493,3.5493,3.5493,3.5493,3.5493,3.5493,3.5493,3.5493,3.5493,3.5493,3.5493,3.5493,3.5493,3.5493,3.5493,3.5493,3.5493,3.5493,3.5974,3.6656,3.6669,3.6665,3.6652,3.6671,3.6166,3.5622,1.4824,1.4766,1.467,1.4407,1.32,1.2257,1.2257,1.1021,1.021,1.0502,1.054,0.0,0.0,0.0,0.0,0.0,1.5695,1.8773,2.2139,2.5543,2.8063,2.9486,3.0102,3.0398,3.0398,3.0398,3.0398,3.0398,3.0398,3.0398,3.0379,2.9809,2.9375,2.9056,2.7937,2.7141,2.6554,2.5976,2.5563,2.5245,2.4706,2.4572,2.4755,2.5281,2.3865,2.1577,0.0,2.1233,2.0883,1.9996,1.9639,1.9497,1.9165,1.9741,2.0537,2.0577,2.1589,2.2733,2.297,2.3562,2.4408,2.5642,2.6437,2.7026,2.7417,2.7812,2.818,2.8529,2.9242,2.9881,3.0143,3.106,3.1983,3.2511,3.3054,3.3505,3.377,3.3807,3.3807,3.3807,3.4127,0.0,0.0,0.0,0.0,3.5493,3.5493,3.5493,3.5493,3.5493,3.5493,3.5493,3.5493,3.5493,3.5493,3.5493,3.5493,3.5493,3.5493,3.5493,3.5493,3.5493,3.5787,3.63,3.63,3.6613,3.7165,3.7156,3.7324,3.7563,3.7559,3.7574,3.757,3.755,3.7392,3.7103,1.5189,1.5189,1.5189,1.5189,1.381,0.0,0.0,0.0,0.0,0.0,0.0,0.0,0.0,0.0,0.0,0.0,0.0,1.6869,1.9946,2.2774,2.537,2.764,2.742,2.7647,2.8552,2.7685,2.7819,2.9037,2.9037,2.9356,2.9925,2.9356,2.8779,2.8157,2.7083,2.6275,2.5688,2.5428,2.5486,2.5659,2.4476,2.4082,2.4139,2.3667,2.1368,0.0,1.7862,1.7177,1.6486,1.6542,1.6967,1.7411,1.7219,1.8139,1.9297,1.9287,2.0534,2.2175,2.3444,2.4147,2.4842,2.6352,2.6691,2.6791,2.7198,2.7604,2.807,2.8718,2.9333,3.0042,3.0919,3.1667,3.2456,3.3331,3.388,3.4228,3.4228,3.4228,3.4109,3.3825,3.4036,3.4316,0.0,0.0,0.0,3.5474,3.5493,3.5493,3.5493,3.5493,3.5493,3.5493,3.5493,3.5493,3.5493,3.5493,3.5628,3.5935,3.5935,3.6089,3.6392,3.6392,3.6671,3.7164,3.7164,3.7478,3.7998,3.7988,3.8185,3.8462,3.8458,3.8454,3.8454,3.8469,3.845,3.8373,1.5189,1.5189,1.5189,0.0,0.0,0.0,0.0,0.0,0.0,0.0,0.0,0.0,0.0,0.0,0.0,0.0,0.0,0.0,1.733,1.9138,2.1573,2.4899,2.2767,2.265,2.513,2.2806,2.3183,2.6473,2.6481,2.7309,2.889,2.8864,2.8003,2.6477,2.6439,2.5524,2.4072,2.4851,2.5611,2.6121,2.4283,2.3103,2.2142,1.9575,1.6474,1.338,1.258,1.1562,1.0679,1.0906,1.2645,1.465,1.4188,1.6368,1.9202,1.9941,2.0755,2.1858,2.3943,2.4564,2.4951,2.6352,2.6691,2.6809,2.7182,2.7606,2.8164,2.9168,2.914,2.9606,0.0,0.0,3.2092,3.4402,3.487,3.4944,3.4952,3.4952,3.4668,0.0,0.0,0.0,0.0,0.0,0.0,3.546,0.0,3.5493,3.5493,3.5493,3.5493,3.5493,3.5493,3.5493,3.5493,3.5532,3.5935,3.669,3.6748,3.719,3.8007,3.8007,3.8027,3.8065,3.807,3.8089,3.8127,3.8127,3.8623,3.9354,3.9358,3.9358,3.9354,3.9354,3.9354,3.9354,0.0,0.0,0.0,0.0,0.0,0.0,0.0,0.0,0.0,0.0,0.0,0.0,0.0,0.0,0.0,0.0,0.0,0.0,1.4747,1.6509,1.8701,2.1442,2.1534,2.2102,2.3408,2.2803,2.3214,2.4752,2.4743,2.5263,2.6266,2.5663,2.5138,2.4706,2.4053,2.3534,2.3151,2.3349,2.2784,2.1674,2.0576,1.9518,1.8594,1.849,1.6332,1.3455,1.4324,1.2556,1.0052,1.1678,1.4646,1.7766,1.8568,2.0035,2.1511,2.196,2.3032,2.4171,2.4431,2.5285,2.6217,2.659,2.6691,2.6708,2.6826,2.7385,2.7653,2.6723,2.738,2.7918,0.0,0.0,0.0,3.1311,3.2936,0.0,3.4119,3.4109,0.0,3.3825,0.0,3.402,3.4288,3.4408,0.0,0.0,3.5392,3.5493,3.5493,3.5493,3.5493,3.5493,3.5493,3.5493,3.5493,3.6103,3.6507,3.6704,3.7358,3.7781,3.7993,3.8001,3.8347,3.8973,3.8958,3.9319,3.9854,3.9854,3.9988,4.0181,4.0181,4.0181,4.0181,4.0181,4.0181,4.0181,0.0,0.0,0.0,0.0,0.0,0.0,0.0,0.0,0.0,0.0,0.0,0.0,0.0,0.0,0.0,0.0,0.0,0.0,0.0,1.372,1.5395,1.7945,1.743,1.7833,1.9431,1.8363,1.8948,2.1293,2.0935,2.1559,2.3083,2.2249,2.1664,2.1271,2.0774,2.0373,2.0058,2.0384,2.0156,0.0,0.0,1.7251,1.663,1.591,1.4005,1.1817,1.2527,1.2317,1.204,1.4217,1.6685,1.9132,2.0498,2.1575,2.2468,2.3289,2.4161,2.4936,2.5339,2.6075,2.6691,2.6691,2.6691,2.6539,2.5883,2.6303,2.6505,2.5265,2.5647,2.6161,2.5961,2.798,0.0,0.0,0.0,0.0,3.433,3.432,3.4209,0.0,3.3807,0.0,3.4166,3.4203,3.4406,0.0,3.5162,3.5377,3.5493,3.5493,3.5493,3.5493,3.5493,3.568,3.6026,3.6469,3.7084,3.7834,3.795,3.8377,3.9104,3.9092,3.9362,3.9819,0.0,4.0085,4.0489,4.0489,4.0489,4.0489,4.0489,4.0489,4.0489,4.0489,4.0489,4.0489,0.0,0.0,0.0,0.0,0.0,0.0,0.0,0.0,0.0,1.2472,1.3186,0.0,0.0,0.0,0.0,0.0,0.0,0.0,0.0,0.0,1.2214,1.443,1.241,1.2262,1.4464,1.2363,1.3076,1.6852,1.627,1.7175,1.9442,1.8804,1.809,1.7351,1.7351,1.6953,1.6338,1.6972,1.7554,1.7884,1.6185,1.5411,1.5008,0.0,1.0956,0.9816,0.9743,1.1897,1.5128,1.7363,1.8822,1.9992,2.1437,2.2419,2.328,2.4523,2.489,2.5124,2.6384,2.6691,2.6691,2.6691,2.6691,2.6303,2.4846,2.5029,2.5206,2.4141,2.3879,2.4204,2.5405,2.7104,2.8857,3.048,0.0,3.4586,3.4797,3.4833,3.4567,3.3862,3.3807,3.3891,3.413,3.4134,3.4285,3.4614,3.485,3.511,3.5432,3.5446,3.546,3.5493,3.5493,3.5853,3.6526,3.6661,3.7469,3.895,3.8411,3.8931,4.0335,4.045,4.0489,4.0489,0.0,0.0,4.0489,4.0489,4.0489,4.0489,4.0489,4.0489,4.0489,4.0489,4.0489,4.0489,0.0,0.0,0.0,0.0,0.0,0.0,0.0,0.0,0.0,0.0,1.4893,1.3104,0.0,0.0,0.0,0.0,0.0,0.0,0.0,0.0,0.0,1.0979,1.0559,1.0531,1.098,1.0556,1.1046,1.2485,1.307,1.3937,1.5028,1.5579,1.5758,1.554,1.554,1.5444,1.5265,1.5405,1.4664,1.3418,1.3074,1.2083,1.0755,1.0283,0.0,0.0,1.1513,1.3786,1.6665,1.8858,2.12,2.3299,2.4184,2.5604,2.6895,2.684,2.6816,2.6805,2.6708,2.6691,2.6691,2.6691,2.6691,2.6303,2.4846,2.5017,2.4721,2.1989,2.1673,2.1622,2.0729,2.2824,2.5305,2.7128,3.0026,3.2492,3.3825,3.4017,3.3962,0.0,3.3807,3.3815,3.3858,3.3884,0.0,0.0,0.0,3.4595,3.5138,3.5174,3.5273,3.5493,3.5493,3.5584,3.5718,3.6372,3.6853,3.718,3.845,3.9219,3.9527,4.02,4.0489,4.0489,4.0489,0.0,4.0489,4.0489,4.0489,4.0489,4.0489,4.0489,4.0489,4.0489,4.0489,4.0489,0.0,0.0,0.0,0.0,0.0,0.0,0.0,1.7945,1.9555,2.2566,2.0795,1.8739,1.7374,1.4514,1.2697,0.0,0.0,0.0,0.0,0.0,0.0,1.0093,0.97,0.9483,0.947,0.9036,0.9438,1.0778,0.0,1.0911,1.2587,1.2131,1.2131,1.2506,1.25,1.2488,1.245,1.2387,1.1831,1.1038,1.0982,1.0446,0.9743,1.0049,0.0,0.0,1.3036,1.5078,1.7271,1.8876,2.1591,2.4464,2.5588,2.6567,2.7261,2.7028,2.6982,2.6945,2.6759,2.6691,2.6691,2.6691,2.6691,2.6118,2.3851,2.3708,2.3091,1.9707,1.9629,1.9862,1.8858,2.1263,2.3824,2.5131,2.8409,3.1187,3.2375,3.3275,3.3807,3.3807,3.3807,3.3807,0.0,3.3807,0.0,0.0,0.0,3.426,3.4851,3.4889,3.5088,3.5493,3.5772,3.5983,3.6122,3.6507,3.693,3.7392,3.8219,3.8854,3.9315,4.0123,4.0489,4.0489,4.0489,0.0,4.0489,4.0489,4.0489,4.0489,4.0489,4.0489,4.0489,4.0489,4.0489,4.0489,0.0,0.0,0.0,0.0,0.0,0.0,0.0,2.1081,2.2429,2.6841,2.6504,2.4659,2.1462,1.7288,1.4178,0.0,0.0,0.0,0.0,0.0,0.0,0.0,0.0,0.0,0.0,0.0,0.0,0.0,0.8451,0.0,0.0,0.0,0.0,0.0,1.0087,1.0072,1.0047,0.9928,0.9879,0.0,0.0,0.9779,0.0,0.0,0.0,0.0,0.0,1.5771,1.7406,1.8788,2.1225,2.3942,2.5714,2.6438,2.6691,2.6691,2.6691,2.6691,2.6691,2.6691,2.6691,2.6691,2.6775,2.6034,2.2978,2.2446,2.157,1.8046,1.7906,1.8339,1.8076,2.028,2.265,2.4202,2.7255,2.995,3.1464,3.2742,3.3605,0.0,3.3807,0.0,3.3807,3.3807,0.0,0.0,0.0,0.0,3.4569,3.4653,3.4965,3.5573,3.605,3.6468,3.6876,3.694,3.7315,3.8007,3.818,3.8642,3.9315,4.0123,4.0489,4.0489,4.0489,0.0,0.0,4.0489,4.0489,4.0489,4.0489,4.0489,4.0489,4.0489,4.0489,4.0489,0.0,0.0,0.0,0.0,0.0,0.0,0.0,2.2119,2.4378,2.9385,2.8664,2.6669,2.4031,1.9915,1.6103,0.0,0.0,0.0,0.0,0.0,0.0,0.0,0.0,0.0,0.0,0.0,0.0,0.0,0.0,0.0,0.0,0.0,0.0,0.0,0.0,0.0,0.9908,0.9846,0.0,0.0,0.0,0.0,0.0,0.0,0.0,0.0,0.0,1.5604,1.7203,1.9615,2.0671,2.1391,2.3909,2.5615,2.6691,2.6691,2.6691,2.6691,2.6691,2.6691,2.6691,2.6691,2.6962,2.6387,2.306,2.2235,2.1202,1.7819,1.683,1.6811,1.7669,1.8669,2.0682,2.4649,2.6209,2.8227,3.1971,3.2632,3.2981,3.3715,0.0,0.0,3.3807,0.0,0.0,0.0,0.0,0.0,3.4279,3.4529,3.5073,3.585,3.614,3.6667,3.743,3.7744,3.7911,3.8007,3.8796,3.9219,3.9315,4.0123,4.0489,4.0489,4.0489,0.0,0.0,4.0489,4.0489,4.0489,4.0489,4.0489,4.0489,4.0489,4.0489,4.0489,0.0,0.0,0.0,0.0,0.0,0.0,2.2132,2.2422,2.4404,3.1096,3.0508,2.8709,2.6724,2.2685,1.8101,1.3131,0.0,0.0,0.0,0.0,0.0,0.0,0.0,0.0,0.0,0.0,0.0,0.8444,0.0,0.0,0.0,0.0,0.0,0.0,0.0,0.0,1.0017,0.9956,0.0,0.0,0.0,0.0,0.0,0.0,0.0,0.0,0.0,0.0,1.7284,1.8031,1.9203,2.0437,2.1246,2.2829,2.4638,2.573,2.6371,2.6691,2.6691,2.6691,2.6691,2.6691,2.6156,2.5032,2.2821,2.1188,1.9435,1.6903,1.6232,1.6312,1.6972,1.7351,1.8635,2.1915,2.3162,2.4612,2.7181,2.9219,3.0742,3.1549,3.2504,0.0,0.0,0.0,0.0,0.0,0.0,0.0,3.4692,3.5303,3.5944,3.6591,3.6569,3.6764,3.7255,3.7545,3.7687,3.7706,3.8792,3.9296,3.9315,4.0123,4.0489,4.0489,4.0489,0.0,0.0,4.0489,4.0489,4.0489,4.0489,4.0489,4.0489,4.0489,4.0489,4.0489,0.0,0.0,0.0,0.0,0.0,1.7092,2.2732,2.2642,2.4321,3.1032,3.0648,2.9154,2.7508,2.3265,1.8744,1.4248,1.1574,0.0,0.0,0.0,0.0,0.0,0.0,0.0,0.0,0.0,0.8868,0.9737,0.9382,0.9682,0.0,0.0,0.0,0.0,0.0,0.0,0.0,0.0,0.0,0.0,0.0,0.0,0.0,0.0,0.0,0.0,0.0,0.0,0.0,0.0,0.0,1.9329,1.9346,2.0661,2.2634,2.4676,2.5782,2.6421,2.664,2.6691,2.6691,2.6691,2.5681,2.4254,2.265,2.0463,1.8191,1.6221,1.552,1.5531,1.6284,1.653,1.7509,2.0311,2.1347,2.2611,2.4942,2.7218,2.9035,3.0081,0.0,3.2551,0.0,0.0,0.0,0.0,0.0,0.0,0.0,3.6657,3.719,3.7319,3.715,3.7355,3.7988,3.8175,3.8307,3.8397,3.9253,3.9642,3.9662,4.0239,4.0489,4.0489,0.0,0.0,0.0,4.0239,4.0277,4.0469,4.0239,4.0277,4.0489,4.0489,4.0489,4.0489,0.0,0.0,0.0,0.0,0.0,0.0,2.2119,2.29,2.4436,2.8772,2.8569,2.7395,2.5701,2.0918,1.7481,1.6622,1.2652,0.0,0.0,0.0,0.0,0.0,0.0,0.0,0.0,0.0,1.0608,1.1463,1.233,1.2305,1.1504,1.2359,0.0,0.0,0.0,0.0,0.0,0.0,0.0,0.0,0.0,0.0,0.0,0.0,0.0,0.0,0.0,0.0,0.0,0.0,0.0,0.0,0.0,1.9755,2.1136,2.3744,2.5029,2.5765,2.6505,2.6691,2.6691,2.6691,2.5887,2.4609,2.2717,2.0289,1.7856,1.5983,1.4538,1.4102,1.5714,1.6333,1.7643,2.0861,2.1625,2.3217,2.72,2.7787,2.8411,0.0,0.0,3.1718,0.0,0.0,0.0,0.0,0.0,0.0,0.0,3.8633,3.8707,3.7932,3.7895,3.8587,4.0043,4.0081,4.0212,4.0469,4.0469,4.0489,4.0489,4.0489,4.0489,0.0,0.0,0.0,0.0,3.9642,3.9777,4.0412,3.9623,3.9796,4.0489,4.0489,4.0489,4.0489,0.0,0.0,0.0,0.0,0.0,0.0,0.0,1.8955,1.9948,2.3684,2.341,2.2917,2.3022,1.9448,1.6709,1.5847,1.2362,0.0,0.0,0.0,0.0,0.0,0.0,0.0,0.0,1.1445,1.2459,1.3288,1.4745,1.5312,1.5039,1.4115,1.3087,1.1914,1.073,0.0,0.0,0.0,0.0,0.0,0.0,0.0,0.0,0.0,0.0,0.0,0.0,0.0,0.0,0.0,0.0,0.0,0.0,0.0,0.0,2.0567,2.2622,2.4263,2.4011,2.4305,2.4488,2.3846,2.2637,2.1335,2.0219,1.8168,1.6169,1.5061,1.411,1.3835,1.5036,1.4872,1.5953,2.0296,2.0859,2.1716,2.448,2.7045,0.0,2.8558,3.1299,3.3121,0.0,0.0,0.0,0.0,0.0,0.0,0.0,3.8883,3.9325,3.9062,3.9062,3.9289,3.9735,3.9982,4.0139,4.0232,3.9868,3.9681,3.9681,3.9681,0.0,0.0,0.0,0.0,0.0,4.0219,4.0258,4.0469,4.0219,4.0277,4.0489,4.0489,4.0562,4.0639,0.0,0.0,0.0,0.0,0.0,0.0,0.0,1.7215,1.7991,2.0527,2.0098,2.0019,2.123,1.7695,1.5272,1.5391,1.2205,0.0,0.0,0.0,0.0,0.0,0.0,0.0,1.1191,1.1973,1.373,1.6504,1.7598,1.8301,1.8652,1.7891,1.6011,1.3233,1.2156,1.1127,0.0,0.0,0.0,0.0,0.0,0.0,1.3503,0.0,0.0,0.0,0.0,0.0,0.0,0.0,0.0,0.0,0.0,0.0,0.0,0.0,1.9938,2.1721,2.2216,2.2668,2.2847,2.2265,2.0959,1.9668,1.9039,1.7189,1.5392,1.4646,1.3904,1.3667,1.4573,1.438,1.5191,1.8563,1.9255,2.0391,2.3358,2.5987,0.0,2.9175,0.0,0.0,0.0,0.0,0.0,0.0,0.0,0.0,0.0,3.8999,3.984,3.9944,3.9712,3.9712,3.9925,4.0042,4.0158,4.025,3.9906,3.9738,3.9738,3.9738,0.0,0.0,0.0,0.0,0.0,4.0162,4.0219,4.0469,4.0162,4.0219,4.0508,4.0562,4.0639,4.0693,0.0,0.0,0.0,0.0,0.0,0.0,0.0,1.7245,1.8026,1.8905,1.8301,1.8359,1.9805,1.5664,1.3398,1.4902,0.0,0.0,0.0,0.0,0.0,0.0,0.0,0.0,1.2655,1.2088,1.4647,2.0487,2.0742,2.1328,2.2266,2.3086,2.0312,1.4629,1.4394,1.2795,0.0,0.0,0.0,0.0,0.0,1.2817,0.0,0.0,0.0,0.0,0.0,0.0,0.0,0.0,0.0,0.0,0.0,0.0,0.0,0.0,0.0,0.0,0.0,2.1391,2.1485,2.144,2.0327,1.9116,1.867,1.6999,0.0,1.4562,1.387,1.3633,1.4359,1.4676,1.5206,1.6412,1.7372,1.9462,2.371,2.5144,0.0,0.0,3.1763,0.0,0.0,0.0,0.0,0.0,0.0,0.0,0.0,3.9088,4.0232,4.0489,3.9964,3.9925,4.0489,4.025,4.023,4.0412,4.0412,4.0373,4.0315,4.0392,0.0,0.0,0.0,0.0,0.0,3.9623,3.9777,4.0431,3.9604,3.9796,4.0543,4.0658,4.0716,4.0723,0.0,0.0,0.0,0.0,0.0,0.0,0.0,0.0,0.0,0.0,1.6055,1.5605,1.4707,1.3529,1.2423,0.0,0.0,0.0,0.0,0.0,0.0,0.0,0.0,0.0,1.2659,1.3817,1.6389,2.0424,2.3038,2.4785,2.5644,2.5918,2.3848,1.9805,1.7227,1.4261,0.0,0.0,0.0,0.0,1.1744,1.2114,0.0,0.0,0.0,0.0,1.4603,1.511,0.0,0.0,0.0,0.0,0.0,0.0,0.0,0.0,1.5426,1.5392,1.6155,0.0,1.8475,1.7997,1.7204,1.6341,0.0,1.5138,1.4563,1.3802,1.3532,1.3633,1.4359,1.4178,1.5124,1.8818,1.9589,2.1079,2.4937,2.7551,0.0,3.4181,3.3802,0.0,0.0,0.0,0.0,0.0,0.0,0.0,0.0,3.9675,4.0422,4.0489,4.0353,4.0353,4.0489,4.0441,4.0134,3.9565,3.9565,3.9219,3.8604,3.9277,0.0,0.0,0.0,0.0,4.0431,3.9623,3.9815,4.0581,3.9715,3.9927,4.0735,4.0754,4.0831,4.0924,0.0,0.0,0.0,0.0,0.0,0.0,0.0,0.0,0.0,0.0,0.0,1.4204,1.2909,1.2419,0.0,0.0,0.0,0.0,0.0,0.0,0.0,0.0,0.0,1.0946,1.2665,1.3984,1.7118,2.2146,2.4394,2.6753,2.9117,2.8385,2.5987,2.207,1.7129,1.3862,0.0,0.0,0.0,0.0,1.1412,0.0,0.0,0.0,0.0,0.0,1.41,1.4918,0.0,1.7034,1.7511,1.7439,0.0,0.0,0.0,0.0,1.4452,1.4144,1.4452,1.5622,1.6738,1.6514,1.6163,1.5716,1.5134,1.4731,1.4311,1.3632,1.3477,1.3647,1.4124,1.4744,1.5801,1.7765,1.9802,2.2713,2.7247,3.0725,3.3427,3.5062,3.4959,0.0,0.0,0.0,0.0,0.0,0.0,0.0,0.0,3.9684,4.0489,4.0489,4.0489,4.0489,4.0489,4.0489,4.0277,3.9835,3.9835,3.9604,3.9161,3.9642,3.9835,0.0,0.0,0.0,4.0562,4.0158,4.0288,4.0703,4.0236,4.0343,4.0803,4.0872,4.0927,4.1007,0.0,0.0,0.0,0.0,0.0,0.0,0.0,0.0,0.0,0.0,0.0,0.0,0.0,0.0,0.0,0.0,0.0,0.0,0.0,0.0,0.0,0.0,1.0201,1.1132,1.3397,1.3863,1.7405,2.4184,2.5438,2.7904,3.1448,3.0833,2.7913,2.2887,1.6582,1.3398,1.2656,0.0,0.0,0.0,1.1174,0.0,0.0,0.0,0.0,0.0,0.0,0.0,0.0,1.6999,1.7763,1.7996,1.7221,0.0,0.0,0.0,0.0,0.0,1.413,1.505,1.5895,1.5889,1.5912,1.5818,1.5367,1.4783,1.4194,1.3678,1.3586,1.3787,1.4381,1.5836,1.6886,1.6781,2.0365,2.4743,2.9368,3.3127,3.5338,3.5161,0.0,0.0,0.0,0.0,0.0,0.0,0.0,0.0,0.0,3.9353,4.0354,4.0489,4.0489,4.0489,4.0489,4.0489,4.0431,4.0315,4.0431,4.0354,4.0123,4.0258,4.0239,0.0,0.0,0.0,4.0347,4.0386,4.0487,4.0617,4.0489,4.0599,4.0863,4.0986,4.1023,4.1052,0.0,0.0,0.0,0.0,0.0,0.0,0.0,0.0,0.0,0.0,0.0,0.0,0.0,0.0,0.0,0.0,0.0,0.0,0.0,0.0,0.0,1.1929,1.0655,1.2103,1.6742,1.5575,1.794,2.4127,2.7093,2.8883,2.962,3.3801,3.1523,2.3752,1.9931,1.6133,1.2578,1.1602,0.0,1.1216,1.022,0.0,0.0,0.0,0.0,0.0,0.0,0.0,0.0,1.5646,1.6403,1.6773,1.5763,0.0,0.0,0.0,0.0,0.0,1.375,1.5195,1.593,1.4717,1.4591,1.4592,1.3887,1.365,1.3532,1.3447,1.3526,1.4348,1.6768,1.6922,1.8055,2.2322,2.5778,2.8228,0.0,0.0,3.3777,3.5562,0.0,0.0,0.0,0.0,0.0,0.0,0.0,0.0,0.0,3.8916,3.9796,4.0469,4.0489,4.0489,4.0489,4.0489,4.0162,3.9488,4.0162,3.9758,3.8411,3.9142,3.9104,0.0,0.0,3.9264,3.8665,3.8684,3.9162,3.9811,3.9064,3.9727,4.1147,4.116,4.1177,4.1179,0.0,0.0,0.0,0.0,0.0,0.0,0.0,0.0,0.0,0.0,0.0,0.0,0.0,0.0,0.0,0.0,0.0,0.0,0.0,0.0,0.0,1.4757,1.4106,1.4831,1.7335,1.769,2.0517,2.5947,2.861,3.0816,3.2557,3.2138,2.8368,2.1841,1.8474,1.5365,1.2578,1.1328,1.0918,1.1025,0.0,0.0,0.0,0.0,0.0,0.0,0.0,0.0,0.0,0.0,1.5441,1.6325,1.6046,0.0,0.0,0.0,0.0,0.0,1.2904,1.4381,1.5535,1.4851,1.6214,1.759,1.7259,1.706,1.6766,1.6092,1.5982,1.6452,1.7866,1.8891,2.1054,2.5786,2.7693,2.9172,3.0909,3.2783,0.0,0.0,0.0,0.0,0.0,0.0,0.0,0.0,0.0,0.0,0.0,0.0,3.9662,4.0469,4.0489,4.0489,4.0489,4.0489,4.0296,3.995,4.0315,4.0085,3.9354,3.9758,3.9777,3.9503,0.0,3.9336,3.9054,3.9123,3.9424,3.9831,3.989,4.0434,4.1191,4.1191,4.1191,4.1191,0.0,0.0,0.0,0.0,0.0,0.0,0.0,0.0,0.0,0.0,0.0,0.0,0.0,0.0,0.0,0.0,0.0,0.0,0.0,0.0,1.4084,1.7119,1.7771,1.8444,1.93,2.0627,2.354,2.8211,3.0571,3.3109,3.5662,3.0433,2.5412,2.0575,1.6999,1.4263,1.2251,1.0878,1.0498,1.0761,0.0,0.0,0.0,0.0,0.0,0.0,0.0,0.0,0.0,0.0,0.0,0.0,0.0,0.0,0.0,1.4734,1.3576,1.278,1.2979,1.4255,1.5639,1.5993,1.7872,1.9733,2.0049,1.9844,1.9386,1.8699,1.8572,1.8784,1.9303,2.1653,2.454,2.773,2.8809,3.002,3.2321,0.0,0.0,0.0,0.0,0.0,0.0,0.0,0.0,0.0,0.0,0.0,0.0,0.0,3.9238,4.045,4.0315,4.0296,4.0489,4.0489,4.0489,4.0489,4.0489,4.0277,3.9912,3.9912,3.9758,3.9484,3.9141,3.8908,3.8844,3.9149,3.9414,3.9668,4.0332,4.084,4.1191,4.1191,4.1191,4.1191,0.0,0.0,0.0,0.0,0.0,0.0,0.0,0.0,0.0,0.0,0.0,0.0,0.0,0.0,0.0,0.0,0.0,0.0,0.0,0.0,1.5441,1.7894,2.0223,2.2758,2.5575,2.4882,2.6389,3.0282,3.3507,3.5592,3.6502,3.1328,2.6553,2.2155,1.8106,1.4455,1.1249,1.0583,1.0176,0.9988,0.9909,0.0,0.0,0.0,0.0,0.0,0.0,0.0,0.0,0.0,0.0,0.0,0.0,0.0,1.5736,1.5265,1.4191,1.3487,1.5034,1.6005,1.6933,1.8377,1.804,1.7702,1.9065,1.8824,1.8616,1.9636,2.0013,2.0594,2.2106,2.5425,2.7936,2.7844,3.0338,3.2089,0.0,0.0,0.0,0.0,0.0,0.0,0.0,0.0,0.0,0.0,0.0,0.0,0.0,0.0,0.0,4.0412,3.9777,3.9738,4.0489,4.0489,4.0489,4.0489,4.0489,3.9681,3.818,3.818,3.7377,3.6017,3.6841,3.6791,3.6247,3.7128,3.7969,3.8691,3.8769,3.9785,4.1191,4.1191,4.1191,4.1191,0.0,0.0,0.0,0.0,0.0,0.0,0.0,0.0,0.0,0.0,0.0,0.0,0.0,0.0,0.0,0.0,0.0,0.0,0.0,1.4477,1.6544,2.0007,2.176,2.3634,2.5769,2.7727,3.0485,3.4104,3.5477,3.5204,3.3311,2.8632,2.3883,1.9174,1.66,1.4199,1.202,1.1371,1.127,1.1404,1.0203,0.9549,0.0,0.0,0.0,0.0,0.0,0.0,0.0,0.0,1.2042,1.3347,1.4123,1.5284,1.6242,1.562,1.4436,1.3437,1.3893,1.5321,1.6713,1.6786,1.8485,2.0512,2.1977,2.2332,2.2522,2.3064,2.3021,2.311,2.3648,2.6145,2.8174,2.8503,2.9989,0.0,0.0,0.0,0.0,0.0,0.0,0.0,0.0,0.0,0.0,0.0,0.0,0.0,0.0,0.0,0.0,4.0431,4.02,4.0181,4.0489,4.0489,4.0489,4.0489,4.0489,4.0162,3.9546,3.9546,3.8984,3.7959,3.7848,3.7396,3.6738,3.7148,3.7812,3.8711,3.9785,4.0625,4.1191,4.1191,4.1191,4.1191,0.0,0.0,0.0,0.0,0.0,0.0,0.0,0.0,0.0,0.0,0.0,0.0,0.0,0.0,0.0,0.0,0.0,0.0,1.4508,1.546,1.7377,2.0596,2.2113,2.3594,2.5162,2.8994,3.2089,3.434,3.5271,3.4023,3.0624,2.6664,2.2658,1.8707,1.6355,1.4871,1.4016,1.2606,1.2192,1.2343,1.0446,0.9534,0.0,0.0,0.0,0.0,0.0,0.0,0.0,0.0,1.1166,1.2657,1.3854,1.5371,1.6597,1.6106,1.5544,1.5052,1.4644,1.5912,1.7384,1.7387,1.9454,2.2028,2.4076,2.4717,2.5083,2.5817,2.5449,2.5094,2.5575,2.6655,2.79,0.0,3.0063,0.0,0.0,0.0,0.0,0.0,0.0,0.0,0.0,0.0,0.0,0.0,0.0,0.0,0.0,0.0,0.0,0.0,4.0239,4.0123,4.0123,4.0354,4.0354,4.0123,4.0373,4.0354,4.0104,4.0138,3.9749,3.8975,3.8267,3.7665,3.718,3.6988,3.7578,3.875,4.0215,4.0957,4.1191,4.1191,4.1191,4.1191,0.0,0.0,0.0,0.0,0.0,0.0,0.0,0.0,0.0,0.0,0.0,0.0,0.0,0.0,0.0,0.0,0.0,0.0,1.625,1.6976,1.7944,1.9216,2.1131,2.2884,2.4394,2.8506,3.0453,3.0108,3.2611,3.222,2.9064,2.5995,2.3674,2.1878,1.7971,1.6674,1.7198,1.4209,1.2779,1.2412,1.0637,0.9686,0.9332,0.0,0.0,0.0,0.0,0.0,0.0,0.0,1.1344,1.2153,1.4757,1.6086,1.6699,1.6682,1.7693,1.8691,1.7963,1.8318,1.9304,2.1024,2.096,2.1333,2.4716,2.5151,2.5404,2.7475,2.6897,2.6495,2.8088,2.7414,0.0,2.9806,0.0,0.0,0.0,0.0,0.0,0.0,0.0,0.0,0.0,0.0,0.0,0.0,0.0,0.0,0.0,0.0,0.0,0.0,3.97,3.9277,3.9277,4.0085,4.0085,3.9296,4.0085,4.0065,3.9315,3.9369,3.896,3.8152,3.7492,3.7184,3.7122,3.6345,3.7031,3.8691,3.9551,4.043,4.1191,4.1191,4.1191,4.1191,0.0,0.0,0.0,0.0,0.0,0.0,0.0,0.0,0.0,0.0,0.0,0.0,0.0,0.0,0.0,0.0,0.0,0.0,1.5741,1.5661,1.6128,1.7339,1.9006,1.9836,1.9721,2.2528,2.6247,3.0814,3.0985,2.8945,2.4816,2.3852,2.1634,1.8462,1.854,1.8178,1.7338,1.5304,1.5184,1.6126,1.3293,1.215,1.1995,0.0,0.0,0.0,0.0,0.0,0.0,0.0,0.0,0.0,1.2959,1.4569,1.5815,1.5308,1.5088,1.4887,1.4124,1.5984,1.8138,1.8109,2.1284,2.4594,2.5402,2.5435,2.579,2.7525,2.7781,2.7655,2.7565,2.8189,0.0,0.0,0.0,0.0,0.0,0.0,0.0,0.0,0.0,0.0,0.0,0.0,0.0,0.0,0.0,0.0,0.0,0.0,0.0,0.0,3.8565,3.843,3.8392,3.9273,3.9311,3.8454,3.9319,3.9931,4.0273,3.9681,3.8981,3.8219,3.7462,3.6805,3.6325,3.6735,3.7578,3.8691,3.9551,4.043,4.1191,4.1191,4.1191,4.1191,0.0,0.0,0.0,0.0,0.0,0.0,0.0,0.0,0.0,0.0,1.4219,1.4051,0.0,0.0,0.0,0.0,0.0,0.0,1.426,1.4683,1.5177,1.578,1.7259,1.831,1.8834,2.0398,2.2853,2.6247,2.7128,2.5851,2.2608,2.338,2.2502,2.0335,2.1489,2.1428,2.0251,1.8039,1.7383,1.7654,1.4973,1.3594,1.3001,0.0,0.0,0.0,0.0,0.0,0.0,0.0,0.0,0.0,1.1679,1.3023,1.4428,1.5155,1.568,1.612,1.6576,1.8538,2.05,2.0636,2.309,2.5643,2.6347,2.6718,2.7176,2.8154,2.8236,2.8112,2.7949,2.8712,0.0,0.0,0.0,0.0,0.0,0.0,0.0,0.0,0.0,0.0,0.0,0.0,0.0,0.0,0.0,0.0,0.0,0.0,0.0,0.0,3.8046,3.7896,3.7584,3.843,3.8469,3.7666,3.8556,3.9257,3.9762,3.9246,3.8767,3.8294,3.7521,3.6705,3.597,3.6548,3.75,3.8613,3.8809,3.9824,4.1152,4.0801,4.0898,4.1191,0.0,0.0,0.0,0.0,0.0,0.0,0.0,0.0,0.0,1.4111,1.3904,1.3672,0.0,0.0,0.0,1.2363,1.2854,1.2973,1.2432,1.3965,1.4816,1.4606,1.5964,1.7872,2.0268,2.0518,1.9951,1.8589,2.191,2.2873,2.1644,2.3916,2.5048,2.5201,2.5523,2.5208,2.4266,2.1171,1.9081,1.7695,1.5996,1.4488,1.3186,1.2338,0.0,0.0,0.0,0.0,0.0,0.0,0.0,0.0,1.0856,1.1632,1.2768,1.5535,1.7907,2.0061,2.2152,2.349,2.4659,2.6048,2.5588,2.5339,2.7419,2.8456,2.8994,2.8994,2.8429,2.8154,2.8984,2.9182,0.0,0.0,0.0,0.0,0.0,0.0,0.0,0.0,0.0,0.0,0.0,0.0,0.0,0.0,0.0,0.0,0.0,0.0,0.0,3.7757,3.7777,3.7469,3.6781,3.7589,3.7685,0.0,3.782,3.8225,3.8293,3.8293,3.8243,3.813,3.7471,3.6737,3.5996,3.5996,3.6973,3.8398,3.7617,3.8848,4.0996,4.0195,4.0449,4.1191,0.0,0.0,0.0,0.0,0.0,0.0,0.0,0.0,1.3997,1.3412,1.3006,1.2565,1.1942,1.1723,0.0,1.2263,1.1857,1.2041,1.3091,1.33,1.3747,1.4574,1.5753,1.6902,1.7988,1.6954,1.6375,1.6306,1.8784,1.9502,1.8645,2.2761,2.4277,2.3566,2.4872,2.4151,2.1716,1.9097,1.836,1.8828,1.7402,1.6534,1.5921,1.4235,1.2453,0.0,0.0,0.0,0.0,0.0,0.0,0.0,1.0844,1.1443,1.1916,1.3188,1.5038,1.6829,1.737,2.0084,2.2987,2.3883,2.5656,2.732,2.7798,2.8456,2.8994,2.8994,2.8847,2.9048,3.0071,0.0,0.0,0.0,0.0,0.0,0.0,0.0,0.0,0.0,0.0,0.0,0.0,0.0,0.0,0.0,0.0,0.0,0.0,0.0,0.0,3.6026,3.6142,3.6084,3.5892,3.6829,3.7266,0.0,3.7299,3.743,3.7533,3.7437,3.7061,3.6501,3.6294,3.6119,3.5996,3.5937,3.6582,3.7559,3.7363,3.8476,4.0156,3.9961,4.0449,4.1191,0.0,0.0,0.0,0.0,0.0,0.0,0.0,0.0,1.3644,1.2903,1.2578,1.2104,1.1342,1.1148,0.0,0.0,1.0825,1.091,1.1722,1.2299,1.3384,1.5103,1.6251,1.657,1.6014,1.506,1.4195,1.3447,1.4986,1.648,1.8017,2.1722,2.3404,2.3373,2.4292,2.3115,2.0389,1.9027,1.8537,1.8593,1.7746,1.7026,1.6224,1.3895,1.1996,1.0386,0.8908,0.0,0.0,0.0,0.0,0.0,0.0,0.0,1.0813,1.2643,1.4511,1.6442,1.8491,2.1242,2.3772,2.4726,2.645,2.7897,2.7897,2.8456,2.8994,2.8994,2.9089,2.953,0.0,0.0,0.0,0.0,0.0,0.0,0.0,0.0,0.0,0.0,0.0,0.0,0.0,0.0,0.0,0.0,0.0,0.0,0.0,3.5493,3.5526,3.5565,3.5622,3.568,3.5738,3.6252,3.6565,3.6632,3.6599,3.6612,3.6689,3.6612,3.6367,3.5996,3.5958,3.5976,3.6002,3.5966,3.6484,3.7305,3.7305,3.8379,3.9902,3.9902,4.0449,4.1191,0.0,0.0,0.0,0.0,0.0,0.0,0.0,0.0,0.0,1.2595,1.2248,1.1789,1.0994,1.0791,1.047,0.0,0.0,0.0,0.9984,1.1459,1.3327,1.5514,1.6258,1.5957,1.4569,1.3783,1.2684,1.127,1.196,1.4264,1.8072,2.076,2.255,2.3515,2.3492,2.2014,1.9538,1.8992,1.8185,1.7301,1.7016,1.6257,1.5017,1.2594,1.0824,0.945,0.8102,0.8095,0.8744,0.8981,0.0,0.0,0.0,0.0,1.0061,1.2499,1.4533,1.6711,2.0072,2.2605,2.4653,2.6283,2.7255,2.7794,2.7897,2.843,2.8929,2.9044,2.9203,0.0,0.0,0.0,0.0,0.0,0.0,0.0,0.0,0.0,0.0,0.0,0.0,0.0,0.0,0.0,0.0,0.0,0.0,0.0,3.5493,3.5526,3.5545,3.5603,3.5641,3.5738,3.5892,3.5912,3.6014,3.6215,3.622,3.6131,3.5979,3.5979,3.5979,3.5979,3.596,3.5955,3.5985,3.5987,3.6498,3.7305,3.7305,3.8379,3.9902,3.9902,4.0449,4.1191,0.0,0.0,0.0,0.0,0.0,0.0,0.0,0.0,0.0,0.0,1.1784,1.0978,1.022,0.9574,0.9145,0.9061,0.9044,0.9332,0.995,0.0,0.0,1.4854,1.396,1.3702,1.4343,1.2072,1.1205,1.1874,1.215,1.3888,1.6986,1.9888,2.1785,2.2725,2.2095,2.0657,1.851,1.6246,1.5023,1.4629,1.457,1.3845,1.2659,1.159,0.9942,0.8067,0.7165,0.7315,0.8044,0.8693,0.9539,0.0,0.0,0.0,1.0758,1.1168,1.3071,1.5051,1.498,1.825,2.2485,2.5878,2.7051,2.747,2.7811,2.821,2.8646,0.0,0.0,0.0,0.0,0.0,0.0,0.0,0.0,0.0,0.0,0.0,0.0,0.0,0.0,0.0,0.0,0.0,0.0,0.0,0.0,0.0,3.5493,3.5565,3.5603,3.5603,3.5776,3.5872,3.5892,3.5955,3.6376,3.7136,3.7127,3.6707,3.5917,3.5917,3.5917,3.5917,3.5801,3.5807,3.5901,3.5911,3.6455,3.7305,3.7305,3.8379,3.9902,3.9902,4.0449,4.1191,0.0,0.0,0.0,0.0,0.0,0.0,0.0,0.0,0.0,0.0,0.0,1.0825,1.0085,0.9337,0.8891,0.8891,0.8891,0.9275,1.0176,1.1194,1.2154,1.3086,1.2538,1.2145,1.1942,1.0821,1.0415,1.0766,1.0858,1.2689,1.6123,1.8212,2.0059,2.1521,2.001,1.8235,1.6291,1.4,1.2906,1.2637,1.1953,1.2618,1.3592,1.0089,0.9439,1.0048,0.7163,0.6901,0.7975,0.8381,0.9052,0.9736,0.9776,0.0,0.0,0.0,1.0598,1.2621,1.5976,1.9613,2.3105,2.5981,2.7178,2.7678,2.7869,2.8334,2.885,0.0,0.0,0.0,0.0,0.0,0.0,0.0,0.0,0.0,0.0,0.0,0.0,0.0,0.0,0.0,0.0,0.0,0.0,0.0,0.0,3.5493,3.5493,3.5565,3.5618,3.565,3.5804,3.5925,3.5963,3.5984,3.6191,3.6562,3.6523,3.6299,3.5892,3.5815,3.5795,3.5795,3.5815,3.584,3.5898,3.5938,3.6192,3.668,3.7656,3.8496,3.9297,4.0273,4.0879,4.1191,0.0,0.0,0.0,0.0,0.0,0.0,0.0,0.0,0.0,0.0,0.0,1.0605,1.0051,0.0,0.0,0.0,0.8891,0.9251,1.0097,1.0469,1.0921,1.1506,1.1236,1.0745,1.0073,0.9756,0.964,0.9727,1.0145,1.2356,1.6191,1.7519,1.9259,2.1206,1.9122,1.717,1.5295,1.2789,1.1728,1.1641,1.1094,1.2293,1.4075,1.094,1.1188,1.2662,0.8343,0.7783,0.0,0.0,0.0,0.0,0.0,0.0,0.0,0.0,0.0,0.9974,1.6392,1.9545,2.1823,2.524,2.6755,2.7531,2.8031,0.0,2.9007,0.0,0.0,0.0,0.0,0.0,0.0,0.0,0.0,0.0,0.0,0.0,0.0,0.0,0.0,0.0,0.0,0.0,0.0,0.0,0.0,3.5493,3.5493,3.5584,3.5639,3.5696,3.5853,3.5949,3.5996,3.5996,3.5996,3.5996,3.594,3.5892,3.5892,3.5757,3.5695,3.5712,3.5836,3.5912,3.5907,3.5973,3.6133,3.6484,3.8008,3.873,3.9101,4.0644,4.1191,4.1191,0.0,0.0,0.0,0.0,0.0,0.0,0.0,0.0,0.0,0.0,0.0,1.0035,1.0001,0.9337,0.8891,0.8891,0.8891,0.9047,0.9426,0.9297,0.9705,1.0798,0.9698,0.0,0.9893,0.8789,0.8633,0.9525,1.1118,1.3879,1.771,1.8784,2.0489,2.2531,2.0612,1.8847,1.7013,1.3147,1.1709,1.207,1.3301,1.3054,1.2394,1.6102,1.6696,1.503,1.1161,0.0,0.0,0.0,0.0,0.0,0.0,0.0,0.0,0.0,0.0,0.0,1.3322,1.4709,1.6094,2.2762,2.5265,2.6571,2.8361,0.0,0.0,0.0,0.0,0.0,0.0,0.0,0.0,0.0,0.0,0.0,0.0,0.0,0.0,0.0,0.0,0.0,0.0,0.0,0.0,0.0,0.0,3.5493,3.5493,3.5622,3.5697,3.5696,3.5893,3.5995,3.5996,3.5996,3.5996,3.5996,3.594,3.5892,3.5892,3.5757,3.5701,3.5721,3.584,3.59,3.59,3.5978,3.6484,3.7324,3.8242,3.9101,3.9941,4.0859,4.1191,4.1191,0.0,0.0,0.0,0.0,0.0,0.0,0.0,0.0,0.0,0.0,0.0,0.0,0.0,0.9337,0.8891,0.8891,0.8708,0.8639,0.8754,0.8493,0.8515,0.8917,0.8499,0.8364,0.8619,0.8183,0.8474,0.9495,0.9632,1.1975,1.639,1.7184,1.8513,2.0226,1.9303,1.8483,1.7528,1.2851,1.1518,1.2578,1.2594,1.3995,1.6151,1.649,0.0,0.0,0.0,0.0,0.0,0.0,0.0,0.0,0.0,0.0,0.0,0.5997,0.6474,0.796,1.0986,1.3387,1.5887,1.9544,2.2763,2.5275,2.6158,2.7679,0.0,0.0,0.0,0.0,0.0,0.0,0.0,0.0,0.0,0.0,0.0,0.0,0.0,0.0,0.0,0.0,0.0,0.0,0.0,0.0,0.0,0.0,3.5493,3.5641,3.5697,3.5696,3.5901,3.5996,3.5996,3.5996,3.5996,3.5996,3.584,3.5831,3.5905,3.5764,3.5747,3.5836,3.592,3.593,3.5907,3.5974,3.6504,3.7383,3.8262,3.9121,4.0019,4.0879,4.1191,4.1191,0.0,0.0,0.0,0.0,0.0,0.0,0.0,0.0,0.0,1.0668,0.0,0.0,0.0,0.0,0.8891,0.8891,0.8648,0.8479,0.8415,0.8121,0.7956,0.7899,0.7899,0.7928,0.7955,0.7716,0.8,0.8825,0.8831,1.0771,1.4531,1.5662,1.7155,1.8866,1.7851,1.7755,1.8104,1.3868,0.0,1.3754,0.0,0.0,1.8115,0.0,0.0,0.0,0.0,0.0,0.0,0.0,0.0,0.0,0.0,0.0,0.0,0.0,0.6083,0.7629,0.8804,1.1283,1.4273,1.7312,2.0062,2.2711,2.5312,0.0,0.0,0.0,0.0,0.0,0.0,0.0,0.0,0.0,0.0,0.0,0.0,0.0,0.0,0.0,0.0,0.0,0.0,0.0,0.0,0.0,0.0,0.0,3.5493,3.5641,3.5723,3.5797,3.593,3.5996,3.5996,3.5996,3.5996,3.5996,3.5832,3.5803,3.5905,3.5813,3.5811,3.5886,3.5968,3.5969,3.5937,3.5977,3.6504,3.7383,3.8262,3.9121,4.0019,4.0879,4.1191,4.1191,0.0,0.0,0.0,0.0,0.0,0.0,0.0,0.0,1.0365,0.9437,0.0,0.0,0.0,0.0,0.0,0.8959,0.8838,0.8653,0.8396,0.8196,0.802,0.7884,0.7869,0.7954,0.8088,0.7383,0.7179,0.7513,0.8915,1.0499,1.228,1.4446,1.661,1.864,1.6512,1.6733,1.8545,0.0,1.5155,1.5626,0.0,1.9781,1.7918,0.0,0.0,0.0,2.0834,2.0273,0.0,1.6557,0.0,0.0,0.0,0.0,0.0,0.0,0.5446,0.6072,0.0,0.0,0.0,1.5968,0.0,0.0,2.5761,0.0,0.0,0.0,0.0,0.0,0.0,0.0,0.0,0.0,0.0,0.0,0.0,0.0,0.0,0.0,0.0,0.0,0.0,0.0,0.0,0.0,0.0,3.5493,3.5493,3.5636,3.5795,3.5996,3.5996,3.5996,3.5996,3.5996,3.5996,3.5996,3.5937,3.5895,3.5913,3.5905,3.5925,3.5952,3.597,3.6035,3.6074,3.6016,3.6523,3.7422,3.8262,3.9141,4.0039,4.0898,4.1191,4.1191,0.0,0.0,0.0,0.0,0.0,1.0939,1.0117,1.0386,1.0394,0.0,0.0,0.0,0.9361,1.0077,1.0599,1.05,1.0369,0.957,0.7853,0.7553,0.7382,0.726,0.7334,0.7626,0.8102,0.7515,0.7352,0.764,0.7427,0.842,1.0577,1.1433,1.2861,1.4699,1.4384,1.4178,1.4074,1.3134,0.0,1.6895,1.7233,1.8771,0.0,0.0,0.0,0.0,0.0,2.5461,2.4098,0.0,1.9751,1.5141,0.0,0.0,0.4827,0.0,0.5838,0.6496,0.5635,0.0,0.0,0.0,0.0,0.0,0.0,0.0,0.0,0.0,0.0,0.0,0.0,0.0,0.0,0.0,0.0,0.0,0.0,0.0,0.0,0.0,0.0,0.0,0.0,0.0,0.0,0.0,3.5493,3.5493,3.5493,3.5629,3.5774,3.5918,3.5976,3.5996,3.5996,3.5996,3.5996,3.5996,3.5937,3.5932,3.5966,3.5919,3.627,3.6875,3.6266,3.6719,3.7773,3.6523,3.6894,3.8262,3.8516,3.9512,4.0879,4.1113,4.1191,4.1191,0.0,0.0,1.1023,1.0834,1.1733,1.2318,1.1774,1.1754,1.1751,0.0,0.0,0.0,1.1348,1.2603,1.2998,1.1837,1.1418,1.0318,0.8149,0.7669,0.7237,0.6657,0.708,0.7481,0.78,0.723,0.7061,0.7356,0.6515,0.6796,0.8126,0.9308,1.0382,1.1339,1.1889,1.1864,1.1313,1.062,0.0,0.0,1.8353,0.0,0.0,2.52,2.6673,0.0,0.0,0.0,2.4929,2.4694,2.055,0.0,0.0,0.0,0.0,0.0,0.6599,0.7955,0.6162,0.7535,0.9375,0.8877,0.0,0.0,0.0,1.8034,0.0,0.0,0.0,0.0,0.0,0.0,0.0,0.0,0.0,0.0,0.0,0.0,0.0,0.0,0.0,0.0,0.0,0.0,0.0,3.5493,3.5493,3.5526,3.5545,3.5615,3.573,3.5898,3.5937,3.5976,3.5996,3.5996,3.5996,3.5996,3.5957,3.5957,3.5957,3.5947,3.6215,3.6688,3.6202,3.6777,3.7988,3.6953,3.7578,3.9141,3.9141,3.998,4.1191,4.1191,4.1191,4.1191,0.0,0.0,1.1527,1.2132,1.3756,1.4908,1.4692,1.4107,1.396,0.0,1.342,1.3081,1.4729,1.5947,1.5678,1.3359,1.2409,1.1042,0.8908,0.8155,0.7286,0.618,0.6949,0.7444,0.7544,0.6821,0.6594,0.6918,0.6021,0.5633,0.5775,0.7781,0.8699,0.8683,0.9357,0.96,0.9489,0.8838,0.0,1.3959,2.0698,2.242,0.0,0.0,2.7496,0.0,2.5948,2.5306,2.4501,2.3522,1.9905,0.0,0.0,0.0,0.0,0.0,0.7902,1.0154,0.7753,0.8558,1.0182,1.0572,0.0,0.0,1.7671,1.8374,0.0,0.0,0.0,0.0,0.0,0.0,0.0,0.0,0.0,0.0,0.0,0.0,0.0,0.0,0.0,0.0,0.0,3.5335,3.5493,3.5493,3.5493,3.5545,3.5603,3.5603,3.5679,3.587,3.5876,3.5917,3.5975,3.5976,3.5996,3.5996,3.5996,3.5976,3.5918,3.5976,3.6016,3.6045,3.6017,3.6543,3.7441,3.7441,3.8418,3.9902,3.9902,4.043,4.1191,4.1191,4.1191,4.1191,1.0065,1.1233,1.2287,1.2414,1.4813,1.647,1.5748,1.5944,1.6248,1.6413,1.6143,1.6958,1.9668,1.8478,1.7243,1.6668,1.4683,1.2249,0.9369,0.7869,0.6878,0.6361,0.6669,0.7357,0.841,0.7268,0.6748,0.6978,0.5531,0.5418,0.6555,0.6432,0.6868,0.7748,0.758,0.7156,0.6689,0.919,0.0,1.4053,1.6277,0.0,2.2911,2.6195,2.8196,2.9198,2.8651,2.8323,2.7678,0.0,2.1425,1.8899,0.0,0.0,0.0,0.9679,0.0,0.0,0.0,0.0,0.0,0.0,0.0,0.0,1.0262,1.0879,0.0,0.0,0.0,0.0,0.0,0.0,0.0,0.0,0.0,0.0,0.0,0.0,0.0,0.0,0.0,0.0,0.0,3.5335,3.5493,3.5493,3.5493,3.5526,3.5526,3.5584,3.5618,3.5654,3.5721,3.5752,3.5752,3.5868,3.5918,3.5918,3.5976,3.5996,3.5976,3.5996,3.6384,3.6992,3.6306,3.6894,3.8359,3.8359,3.8965,3.9902,3.9902,4.043,4.1191,4.1191,4.1191,4.1191,1.0267,1.2478,1.4456,1.4358,1.7028,1.9134,1.8971,1.8886,1.9109,1.984,2.0647,2.1256,2.1571,2.086,1.9482,1.7295,1.5688,1.3394,1.0065,0.8467,0.714,0.5994,0.6495,0.707,0.763,0.7024,0.6791,0.6995,0.5453,0.5065,0.5748,0.579,0.7011,0.9106,0.7174,0.7105,0.8419,0.0,0.9228,1.2022,1.7463,0.0,2.5431,2.8545,3.0135,3.0437,2.8799,2.7319,2.5782,2.322,2.1383,0.0,0.0,1.7462,1.6809,0.0,1.3583,1.5076,0.0,0.0,0.0,0.9703,0.0,0.0,0.0,0.0,0.0,0.0,0.0,0.0,0.0,0.0,0.0,0.0,0.0,0.0,0.0,0.0,0.0,0.0,0.0,0.0,0.0,3.5335,3.5493,3.5493,3.5493,3.568,3.6084,3.5757,3.5757,3.6232,3.5863,3.5669,3.5707,3.5826,3.5864,3.5806,3.5934,3.5976,3.5957,3.5948,3.6216,3.6621,3.6152,3.6719,3.7988,3.8418,3.9101,3.9941,4.0371,4.082,4.1191,4.1191,4.1191,4.119,1.04,1.3434,1.6157,1.5827,1.8783,2.1294,2.1577,2.1166,2.131,2.2644,2.4044,2.4245,2.2464,2.2777,2.1771,1.8413,1.7321,1.5287,1.1682,1.001,0.8392,0.6672,0.6638,0.6911,0.746,0.6824,0.6597,0.6791,0.5452,0.4851,0.4979,0.5487,0.7235,0.9843,0.773,0.8126,0.0,0.0,0.0,1.2145,0.0,2.4249,2.5911,2.9829,3.0965,3.0166,2.7967,2.5422,2.2968,2.2128,0.0,2.0096,2.0148,2.0137,0.0,0.0,0.0,0.0,0.0,0.0,0.0,0.0,0.0,0.9748,0.0,0.0,0.0,0.0,0.0,0.0,0.0,0.0,0.0,0.0,0.0,0.0,0.0,0.0,0.0,0.0,0.0,0.0,0.0,3.4069,3.4449,3.543,3.4603,3.4757,3.6392,3.5853,3.5853,3.6612,3.5949,3.5622,3.5661,3.5776,3.5786,3.5689,3.5888,3.5948,3.5898,3.59,3.604,3.625,3.619,3.6699,3.7617,3.8496,3.9277,3.998,4.0859,4.1191,4.1191,4.1179,4.1169,4.1148,1.0233,1.298,1.5122,1.4379,1.8104,2.098,2.0329,2.0644,2.124,2.2009,2.2791,2.3437,2.3878,0.0,0.0,0.0,0.0,0.0,1.5524,0.0,1.1526,1.0595,0.7527,0.7337,1.0521,0.7401,0.5817,0.602,0.5197,0.5195,0.5935,0.5368,0.5596,0.6587,0.9475,0.0,0.0,0.0,1.5371,0.0,2.1134,2.0672,0.0,2.5639,2.7732,2.7591,2.7316,2.5422,2.3014,0.0,2.1893,2.1233,0.0,2.0788,2.2239,1.6904,0.0,0.0,0.0,0.0,0.0,0.0,1.1213,0.0,0.0,0.0,0.0,0.0,0.0,0.0,0.0,0.0,0.0,0.0,0.0,0.0,0.0,0.0,0.0,0.0,0.0,0.0,0.0,0.0,3.0641,3.5161,3.1314,3.0775,3.5391,3.5565,3.5565,3.5661,3.5565,3.5526,3.5526,3.5603,3.5623,3.5609,3.5809,3.5912,3.5898,3.5954,3.642,3.715,3.7133,3.7637,3.8516,3.9394,3.9805,3.998,4.0859,4.1191,4.1188,4.1071,4.1021,4.1003,0.9362,1.2181,1.4391,1.406,1.6872,1.9371,1.9906,2.2218,2.3783,2.3454,2.4466,0.0,0.0,0.0,0.0,0.0,0.0,2.0793,0.0,0.0,1.3169,1.0629,0.862,0.8058,0.9151,0.7328,0.6203,0.5896,0.5244,0.5097,0.5449,0.5142,0.6899,1.0333,1.107,0.0,1.455,0.0,1.4787,0.0,0.0,0.0,0.0,2.6871,2.8958,2.7195,2.7191,2.5422,2.3166,0.0,2.2657,0.0,0.0,0.0,0.0,0.0,0.0,0.0,0.0,0.0,0.0,0.0,0.0,0.0,0.7127,0.0,0.6275,0.0,0.0,0.0,0.0,0.0,0.0,0.0,0.0,0.0,0.0,0.0,0.0,0.0,0.0,0.0,0.0,0.0,0.0,0.0,0.0,3.0458,3.6364,3.5916,3.5718,3.618,3.5738,3.5493,3.5493,3.5584,3.5566,3.555,3.5701,3.5785,3.5771,3.5807,3.6377,3.7305,3.7253,3.7766,3.8672,3.9531,3.9902,3.998,4.0766,4.1081,4.1072,4.0925,4.0881,4.0881,0.8353,1.1139,1.3384,1.3634,1.5713,1.7905,1.9477,2.2178,2.3912,0.0,0.0,0.0,2.5446,2.4892,0.0,0.0,0.0,2.3311,0.0,0.0,1.5803,1.3542,1.0615,0.0,0.9806,0.7975,0.6568,0.5651,0.5219,0.5237,0.5679,0.5233,0.7449,1.1819,1.2142,1.4663,1.85,0.0,0.0,1.8216,1.857,1.9411,2.116,2.8279,2.9399,2.7186,2.7186,2.5678,2.3729,2.4245,2.3041,0.0,2.4593,0.0,0.0,0.0,0.0,0.0,1.5862,0.0,0.0,0.0,0.0,0.0,0.0,0.0,0.0,0.0,0.0,0.0,0.0,0.0,0.0,0.0,0.0,0.0,0.0,0.0,0.0,0.0,0.0,0.0,0.0,0.0,0.0,0.0,0.0,0.0,3.6439,3.5921,3.5701,3.6339,3.5815,3.5493,3.5493,3.5565,3.5565,3.5493,3.5622,3.5674,3.5696,3.5747,3.645,3.7656,3.7598,3.8234,3.9355,3.9956,4.0207,4.0248,4.0732,4.0908,4.09,4.0804,4.0764,4.0754,0.7402,0.9814,1.1857,1.2684,1.4898,1.7106,1.878,0.0,0.0,0.0,0.0,0.0,0.0,0.0,0.0,0.0,0.0,2.8001,2.4946,0.0,2.0359,0.0,0.0,1.1126,0.0,0.9924,0.6542,0.5028,0.5006,0.5824,0.7388,0.5823,0.5955,0.7699,1.2465,1.4701,1.5191,1.9974,2.5009,2.9512,2.6571,2.7545,3.047,0.0,2.7296,2.7186,2.7186,0.0,0.0,2.2963,2.2904,0.0,0.0,0.0,0.0,0.0,0.0,0.0,0.0,0.0,0.0,1.0259,0.0,0.0,0.0,0.0,0.7628,0.0,0.0,0.0,0.0,0.0,0.0,0.0,0.0,0.0,0.0,0.0,0.0,0.0,0.0,0.0,0.0,0.0,0.0,0.0,0.0,0.0,3.463,3.5143,3.5242,3.5532,3.5512,3.5493,3.5493,3.5493,3.5493,3.5493,3.5584,3.5641,3.5701,3.5821,3.6875,3.8555,3.8554,3.9531,4.1112,4.1011,4.0954,4.0954,4.0789,4.0716,4.0716,4.0712,4.0712,4.0677,0.748,0.8861,1.011,1.0938,1.1776,1.3466,0.0,1.9684,0.0,0.0,0.0,0.0,0.0,0.0,2.8112,0.0,0.0,2.8665,2.5914,2.3555,0.0,0.0,0.0,1.4107,0.0,0.0,0.858,0.6457,0.6063,0.6395,0.7402,0.5836,0.6972,1.0442,0.0,1.6463,0.0,0.0,0.0,0.0,0.0,2.6795,2.9426,0.0,0.0,2.7334,2.8233,2.7086,0.0,2.5467,2.4751,2.3783,2.3786,2.2451,2.0935,2.0988,2.0738,0.0,0.0,0.0,1.8465,1.3246,0.0,0.0,0.0,0.0,0.0,0.0,0.0,0.0,0.0,0.0,0.0,0.0,0.0,0.0,0.0,0.0,0.0,0.0,0.0,0.0,0.0,0.0,0.0,0.0,0.0,0.0,0.0,3.5477,3.5138,3.5223,3.5417,3.5493,3.5493,3.5493,3.5493,3.5493,3.5526,3.5584,3.5636,3.5674,3.6682,3.8405,3.8405,3.936,4.0939,4.0887,4.0868,4.085,4.0735,4.0696,4.0696,4.06,4.0581,4.0562,0.8022,0.7849,0.8164,0.9929,1.0981,0.0,0.0,0.0,0.0,0.0,2.4977,0.0,2.8493,0.0,2.8908,0.0,3.0271,2.9115,2.6681,2.5279,0.0,2.3787,2.0068,0.0,0.0,0.0,1.2017,0.9576,0.8564,0.8436,0.9057,0.6972,0.782,1.1111,0.0,1.6146,2.2578,0.0,2.6087,0.0,0.0,2.8249,0.0,0.0,2.9433,2.7149,0.0,2.8076,2.6594,2.6491,2.5824,2.4955,2.4573,2.3056,2.1475,2.1861,2.1564,2.0922,2.004,2.0358,0.0,1.5341,1.4356,0.0,0.8635,0.0,0.0,0.0,0.0,0.0,0.0,0.0,0.0,0.0,0.0,0.0,0.0,0.0,0.0,0.0,0.0,0.0,0.0,0.0,0.0,0.0,0.0,0.0,0.0,0.0,3.5287,3.5381,3.5274,3.5273,3.5354,3.5369,3.5417,3.5493,3.5493,3.5545,3.5603,3.5917,3.6878,3.8325,3.8625,3.9547,4.0809,4.077,4.0752,4.0739,4.0562,4.054,4.062,4.0543,4.0489,4.0489,0.8848,0.6988,0.0,0.0,1.252,0.0,0.0,0.0,2.2009,0.0,2.4598,2.6574,2.8821,2.8502,2.8994,3.1162,3.0776,0.0,2.7585,2.6787,0.0,0.0,2.4326,2.3164,2.4118,0.0,0.0,0.0,0.0,1.1566,1.2032,0.9019,0.8327,0.963,1.001,0.0,2.0649,2.4232,2.9214,3.4584,3.3007,3.1862,3.1089,3.11,0.0,2.6863,2.8667,2.9227,2.8728,2.6141,2.6141,2.6747,2.4,2.3138,2.3138,2.3138,2.3138,2.2732,2.0923,2.045,1.969,1.6505,0.0,0.0,0.0,0.0,1.3317,0.0,0.0,0.0,0.0,0.0,0.0,0.0,0.0,0.0,0.0,0.0,0.0,0.0,0.0,0.0,0.0,0.0,0.0,0.0,0.0,0.0,0.0,0.0,3.5385,3.5859,3.5145,3.487,3.5088,3.5088,3.5207,3.546,3.546,3.5512,3.5608,3.6454,3.7373,3.833,3.9165,4.0008,4.0773,4.07,4.0681,4.063,4.0215,4.0232,4.0473,4.0473,4.0473,4.0473,0.8254,0.9007,1.0751,0.0,1.4102,1.496,0.0,0.0,0.0,0.0,2.6373,2.8157,2.9998,3.0042,3.0169,3.074,3.0662,0.0,0.0,0.0,0.0,2.9688,2.6459,2.507,2.6053,2.1001,0.0,1.5764,0.0,0.0,1.0526,0.8536,0.8362,0.9739,0.0,0.0,2.2356,2.4208,2.8289,3.3456,3.2379,3.107,0.0,0.0,2.922,2.8716,3.0168,2.9419,2.758,2.695,2.695,2.6798,2.47,2.3603,2.3185,2.3826,2.3603,2.3,2.2493,2.24,2.185,1.9603,1.8358,1.7072,0.0,0.0,0.0,0.0,0.0,0.0,0.0,0.0,0.0,0.0,0.0,0.0,0.0,0.0,0.0,0.0,0.0,0.0,0.0,0.0,0.0,0.0,0.0,0.0,0.0,0.0,0.0,3.5493,3.5603,3.5337,3.4812,3.4793,3.4851,3.4908,3.5105,3.5207,3.5245,3.5667,3.668,3.8084,3.8315,3.9238,4.0566,4.0342,4.0252,4.0215,3.9859,3.9757,3.9863,4.012,4.0195,4.0177,0.9009,0.0,0.0,1.5037,0.0,0.0,1.9222,0.0,0.0,2.5169,2.7075,0.0,2.9494,3.0216,3.0642,3.0639,3.0629,0.0,0.0,0.0,0.0,2.9344,2.8318,2.8019,2.8574,2.4739,0.0,1.9245,0.0,0.0,1.1011,0.8684,0.8009,0.877,0.0,1.3367,1.9926,2.4629,2.8463,3.1381,3.1897,0.0,0.0,3.0325,2.9869,2.9376,3.0718,2.9831,2.798,2.7384,2.6798,2.6117,2.4727,2.3767,2.3258,2.406,2.3708,2.3078,2.3078,2.3078,2.2836,2.1805,2.0952,1.982,1.769,1.748,1.7619,0.0,0.0,0.0,0.0,0.0,0.0,0.0,0.0,0.0,0.0,0.0,0.0,0.0,0.0,0.0,0.0,0.0,0.0,0.0,0.0,0.0,0.0,0.0,0.0,3.6221,3.479,3.43,3.5049,3.3625,3.35,3.4694,3.4963,3.5105,3.5124,3.5748,3.6757,3.8007,3.8246,3.9095,4.0285,4.0003,3.988,3.9861,3.9668,3.951,3.9389,3.9599,3.9754,3.984,1.0598,0.0,0.0,0.0,0.0,0.0,0.0,2.2302,0.0,2.5544,0.0,2.8613,2.8613,2.9883,3.0723,3.0723,0.0,2.9847,2.8067,2.9674,2.9883,2.8088,2.981,3.0838,3.0813,2.8781,0.0,0.0,0.0,0.0,1.171,0.8908,0.7422,0.0,0.0,0.0,0.0,2.5448,2.926,0.0,3.1629,3.2161,3.1789,3.1554,3.0667,2.9637,3.0419,2.9933,2.8774,2.758,2.635,2.5218,2.4526,2.3826,2.3365,2.4118,2.3708,2.3078,2.3078,2.3078,2.3078,2.3078,2.3078,2.251,2.0204,1.9737,1.9762,1.9699,1.788,1.7613,0.0,0.0,0.0,0.0,0.0,0.0,0.0,0.0,0.0,0.0,0.0,0.0,0.0,0.0,0.0,0.0,0.0,0.0,0.0,0.0,0.0,3.7312,3.4045,0.0,3.4928,0.0,3.2144,3.412,3.4737,3.5053,3.5089,3.6163,3.7117,3.7947,3.8497,3.9242,4.0002,3.9668,3.9505,3.9481,3.9481,3.9308,3.9063,3.9063,3.9231,3.9481,0.0,0.0,0.0,0.0,0.0,2.1724,2.3428,2.4976,2.6346,2.7493,2.9189,3.0273,3.0273,3.0625,3.0859,3.0859,3.0745,0.0,0.0,0.0,0.0,3.0164,3.0367,3.0465,3.0405,2.7624,2.4348,0.0,0.0,0.0,0.8435,0.7861,0.0,0.0,0.0,0.0,2.1293,2.6766,0.0,3.1912,3.1917,3.188,3.1645,3.0187,3.0368,3.1053,2.8711,2.774,2.7531,2.7285,2.6725,2.5884,2.4697,2.4176,2.4118,2.4234,2.3708,2.3078,2.3078,2.3078,2.3078,2.3078,2.3078,2.3119,2.3306,2.2917,2.2629,2.3258,2.2519,2.1361,2.0188,0.0,0.0,0.0,0.0,0.0,0.0,0.0,0.0,0.0,0.0,0.0,0.0,0.0,0.0,0.0,0.0,0.0,0.0,0.0,0.0,0.0,3.6828,0.0,0.0,0.0,3.314,3.1025,3.3571,3.4754,3.4812,3.5873,3.6818,3.7619,3.8148,3.8893,3.9668,3.9314,3.9054,3.8862,3.8862,3.8803,3.8762,3.8762,3.8822,3.8862,0.0,0.0,0.0,0.0,0.0,0.0,0.0,2.7908,0.0,2.8097,2.8791,2.9352,2.9357,3.0183,3.0749,3.0749,3.0691,3.0684,3.0749,3.0681,3.0643,3.0651,3.0567,0.0,3.1119,2.9563,2.6174,2.0874,0.0,0.0,0.7577,0.0,0.0,0.5287,0.0,1.4348,0.0,0.0,0.0,3.0248,3.1603,3.2039,3.1699,3.0858,3.0506,3.0269,2.8788,2.761,2.674,2.674,2.5788,2.4687,2.4824,2.4337,2.3767,2.4176,2.3708,2.3078,2.3078,2.3078,2.3078,2.3078,2.3078,2.3198,2.3603,2.3365,2.3185,2.359,2.3365,2.2337,1.976,1.7184,0.0,0.0,0.0,0.0,0.0,0.0,0.0,0.0,0.0,0.0,0.0,0.0,0.0,0.0,0.0,0.0,0.0,0.0,0.0,0.0,0.0,0.0,0.0,0.0,0.0,3.2706,3.433,3.5098,3.5158,3.6226,3.7143,3.7919,3.8047,3.8584,3.9333,3.9017,3.8833,3.8707,3.8707,3.8707,3.8707,3.8707,3.8707,3.8707,0.0,1.8609,0.0,0.0,2.4469,0.0,2.8049,3.0103,3.0788,2.8868,2.8624,2.8615,2.8601,2.9802,3.0605,3.0605,3.0586,3.0574,3.0595,3.0586,3.0664,3.0858,3.0797,3.1174,3.2029,3.1784,2.8641,0.0,0.0,0.0,0.0,0.0,0.0,0.0,0.0,0.0,0.0,0.0,2.8476,2.8918,3.1272,3.2004,3.1642,3.135,3.0409,2.9138,2.8744,2.7591,2.6309,2.6165,2.4968,2.3754,2.4838,2.4323,2.3424,2.3884,2.3603,2.3078,2.3078,2.3078,2.3078,2.3078,2.3078,2.3125,2.3305,2.3185,2.3138,2.3305,2.3471,2.2778,2.0086,1.8409,0.0,0.0,0.0,0.0,0.0,0.0,0.0,0.0,0.0,0.0,0.0,0.0,0.0,0.0,0.0,0.0,0.0,0.0,0.0,0.0,0.0,3.3807,3.5404,0.0,3.3293,0.0,3.5347,3.5764,3.5783,3.6803,3.761,3.8193,3.8111,3.8423,3.8999,3.8773,3.8707,3.8707,3.8707,3.8707,3.8676,3.8578,3.8546,3.8515,0.0,0.0,0.0,0.0,0.0,0.0,0.0,3.0415,3.1767,3.1074,3.0567,3.0275,3.029,3.0463,3.0609,3.0609,3.054,3.0529,3.0602,3.0548,3.0868,3.1646,3.1456,3.1702,3.253,3.2257,2.9925,0.0,0.0,0.0,0.0,0.0,0.0,0.0,0.0,0.0,0.0,2.6552,2.8921,3.1422,3.1363,3.1291,3.11,2.9901,2.9359,2.8987,2.721,2.6437,2.6218,2.5672,2.5329,2.5063,2.4567,2.4292,2.406,2.3424,2.3138,2.3078,2.3078,2.3078,2.3078,2.3078,2.3078,2.3305,2.4002,2.359,2.3305,2.406,2.4724,2.4226,2.1078,2.3191,2.3252,0.0,0.0,0.0,0.0,0.0,0.0,0.0,0.0,0.0,0.0,0.0,0.0,0.0,1.6638,0.0,0.0,0.0,0.0,3.2306,0.0,2.9947,2.8705,3.4156,0.0,3.2871,3.5384,3.6596,3.6633,3.7459,3.7869,3.7981,3.842,3.8676,3.875,3.8689,3.8707,3.8707,3.8707,3.8707,3.8627,3.8132,3.798,3.7911,0.0,0.0,0.0,0.0,0.0,0.0,0.0,3.2184,3.2564,3.2349,3.1823,3.1274,3.0779,3.0757,3.0586,3.0106,3.0152,3.0221,3.024,3.0849,3.1391,3.1725,3.2089,3.2694,3.3547,3.3293,3.0932,0.0,0.0,0.0,0.0,0.0,0.0,0.0,0.0,2.2372,2.518,2.8544,3.053,3.1411,3.1252,3.119,3.1038,2.9729,2.8958,2.8451,2.6886,2.6352,2.6318,2.5659,2.5119,2.4681,2.4408,2.3943,2.3543,2.3185,2.3078,2.3078,2.3078,2.3078,2.3078,2.3078,2.3078,2.3185,2.3484,2.3305,2.3198,2.3543,2.4553,2.501,2.3696,2.3206,2.2787,0.0,0.0,0.0,0.0,0.0,0.0,0.0,0.0,0.0,0.0,0.0,0.0,0.0,0.0,0.0,0.0,0.0,0.0,2.5624,0.0,3.2784,2.8494,3.4468,3.6597,3.4835,3.6408,3.7193,3.723,3.7995,3.8383,3.8401,3.8621,3.8515,3.8216,3.8216,3.8032,3.7791,3.7791,3.7791,3.7791,3.7542,3.747,3.747,2.7751,0.0,2.741,0.0,3.0305,3.0513,3.3027,3.3203,3.3043,3.3043,3.2794,3.2175,3.1017,3.0884,3.0582,2.9771,2.9829,2.9908,2.9908,3.0746,3.146,3.1949,3.2409,0.0,3.424,3.3863,3.1954,2.8516,2.5287,0.0,0.0,1.6005,0.0,0.0,2.3605,2.5675,2.6844,3.0217,3.147,3.119,3.119,3.1095,3.0781,2.9468,2.8451,2.7603,2.6688,2.6144,2.5783,2.5508,2.4894,2.4292,2.4292,2.3767,2.3078,2.3078,2.3078,2.3078,2.3078,2.3078,2.3078,2.3078,2.3078,2.3078,2.3078,2.3078,2.3245,2.3695,2.4824,2.5728,2.5728,2.3702,2.2682,2.4662,0.0,0.0,0.0,0.0,0.0,0.0,2.5479,2.4636,2.3179,0.0,0.0,0.0,0.0,0.0,0.0,0.0,0.0,0.0,0.0,0.0,0.0,3.4907,3.7314,3.6784,3.7509,3.7845,3.7863,3.829,3.8465,3.8465,3.8318,3.805,3.7685,3.7685,3.7506,3.719,3.719,3.719,3.7173,3.702,3.6943,3.6943,2.9879,2.9917,3.0305,3.2744,3.2773,3.2482,3.2517,3.2903,3.3196,3.3196,3.3532,3.3025,3.1111,3.0884,3.0582,2.9771,2.9713,2.9713,2.9713,3.0016,3.094,0.0,0.0,3.2839,3.4354,3.369,3.3131,3.2834,0.0,0.0,2.5046,2.0357,2.048,2.4618,2.4681,2.7078,3.114,3.1173,3.119,3.119,3.119,3.0838,3.0149,2.8839,2.7489,2.6323,2.6453,2.5563,2.4452,2.5175,2.4894,2.4292,2.4292,2.3767,2.3078,2.3078,2.3078,2.3078,2.3078,2.3078,2.3078,2.3078,2.3078,2.3078,2.3078,2.3078,2.3531,2.5063,2.596,2.651,2.651,2.5863,2.4468,2.19,0.0,0.0,0.0,0.0,0.0,0.0,1.6283,1.5446,2.2873,0.0,0.0,0.0,0.0,0.0,0.0,0.0,0.0,3.0084,2.9311,0.0,3.1052,3.5608,3.7875,3.7875,3.8446,3.8689,3.8658,3.815,3.7893,3.7859,3.7433,3.721,3.7228,3.7228,3.7228,3.719,3.719,3.719,3.7152,3.662,3.6416,3.6333,3.2569,3.2356,3.2386,3.3423,3.3273,3.2983,3.2983,3.3105,3.3093,3.2745,3.3105,3.2938,3.1777,3.19,3.1501,0.0,3.0195,3.0297,0.0,3.0812,3.156,3.2629,3.2834,3.3158,3.3642,3.3423,3.3029,3.2481,0.0,0.0,0.0,2.5056,2.6035,2.9115,2.9115,2.9917,3.119,3.074,3.0821,3.1151,3.0293,3.0107,3.0107,2.8341,2.7743,2.759,2.624,2.5783,2.5673,2.4894,2.4509,2.4176,2.3649,2.3305,2.3078,2.3078,2.3078,2.3078,2.3078,2.3078,2.3078,2.3078,2.3078,2.3078,2.3078,2.3531,2.406,2.4567,2.5618,2.6176,2.5175,2.5618,2.5689,2.4375,2.5258,0.0,0.0,0.0,0.0,0.0,2.4342,2.4551,0.0,2.2742,0.0,0.0,0.0,0.0,0.0,0.0,0.0,0.0,3.0248,0.0,2.8617,3.4464,3.7111,3.6541,3.7327,3.7685,3.7667,3.7524,3.7433,3.7396,3.7248,3.6981,3.6643,3.6643,3.6457,3.6122,3.6122,3.6122,3.6079,3.5941,3.5854,3.5766,3.355,3.3225,3.3075,3.3494,3.3087,3.2663,3.2663,3.2663,3.2565,3.2282,3.2648,3.2742,3.224,3.2397,0.0,3.0754,3.0937,3.107,3.0913,3.1526,3.2082,3.2551,3.2542,3.2655,3.2933,0.0,0.0,3.1899,3.0205,2.9166,2.8682,2.8682,2.9602,3.119,3.0958,3.0878,3.0781,2.9913,2.9929,3.0418,2.9387,2.9223,2.948,2.8275,2.7784,2.755,2.6254,2.5728,2.5508,2.4624,2.4118,2.3767,2.3245,2.3078,2.3078,2.3078,2.3078,2.3078,2.3078,2.3078,2.3078,2.3078,2.3078,2.3078,2.3078,2.3943,2.4738,2.4738,2.5673,2.6122,2.4951,2.5231,2.5618,2.5453,2.5783,2.6443,2.7458,0.0,0.0,0.0,0.0,0.0,0.0,2.53,0.0,0.0,0.0,0.0,0.0,0.0,0.0,2.5531,3.2412,0.0,3.052,3.4763,3.6619,3.6089,3.6849,3.719,3.7173,3.6981,3.6921,3.6882,3.6684,3.6399,3.6097,3.6097,3.5898,3.5622,3.5622,3.5622,3.5577,3.5316,3.5207,3.5144,3.3075,3.2809,0.0,0.0,3.2466,0.0,3.1861,3.1825,3.1789,3.1752,3.2161,3.2451,3.2451,3.2451,3.2206,3.1623,0.0,0.0,0.0,3.2145,3.2483,3.2491,3.169,3.1531,3.2207,3.1568,3.119,3.1151,3.1112,3.1112,3.1151,3.1095,3.1112,3.1112,3.0518,3.0251,3.0149,2.8854,2.8747,2.9345,2.8576,2.834,2.8511,2.8415,2.7565,2.651,2.6404,2.5453,2.4292,2.4234,2.3708,2.3078,2.3078,2.3078,2.3078,2.3078,2.3078,2.3078,2.3078,2.3078,2.3078,2.3078,2.3078,2.3078,2.3078,2.4266,2.5342,2.5287,2.5892,2.6229,2.5398,2.4794,2.4567,2.5231,2.5398,2.5946,2.7357,0.0,0.0,0.0,0.0,0.0,0.0,2.4642,2.6658,0.0,0.0,0.0,0.0,0.0,2.4697,3.4327,3.5253,3.5622,3.5622,3.6097,3.6333,3.6333,3.6843,3.7097,3.7058,3.6563,3.6333,3.6308,3.5827,3.5622,3.5622,3.5622,3.5577,3.5515,3.5515,3.5515,3.5379,3.4736,3.4528,3.4431,0.0,0.0,3.2648,3.3124,3.2713,3.2332,3.2332,3.2022,3.1696,3.1372,3.1714,3.1968,3.1968,3.1968,3.2283,3.2998,3.2595,3.2688,3.3569,3.287,3.271,3.3377,3.2301,3.1585,3.1435,3.1274,3.0975,3.0518,3.0038,3.0064,3.0518,3.0021,3.0081,3.0477,2.9892,2.9629,2.9585,2.8795,2.8841,2.9316,2.8225,2.8061,2.8415,2.7363,2.6759,2.6336,2.5231,2.4624,2.4234,2.3603,2.3258,2.3078,2.3078,2.3078,2.3078,2.3078,2.3078,2.3078,2.3078,2.3078,2.3078,2.3078,2.3078,2.3078,2.3078,2.4266,2.5063,2.3872,2.5161,2.5892,2.3989,2.4439,2.5007,2.4624,2.5508,2.6336,2.6721,2.7255,0.0,0.0,2.6782,2.7455,2.8098,2.8742,2.8323,0.0,0.0,0.0,0.0,2.5119,2.746,3.4378,3.5253,3.5622,3.5622,3.5739,3.5783,3.5783,3.5941,3.5968,3.5968,3.5854,3.5783,3.5783,3.5667,3.5622,3.5622,3.5622,3.5316,3.4847,3.4847,3.4544,3.4037,3.3887,3.3836,3.3668,3.2127,3.2161,3.2332,3.2809,3.2535,3.2231,3.2161,3.1806,3.1449,3.123,3.1679,3.2042,3.2042,3.2312,3.2926,3.3921,3.3539,3.3583,3.4436,3.4006,3.3506,3.2993,3.2102,3.1211,3.0393,3.0393,3.0208,2.9892,2.954,2.9585,2.9892,2.954,2.9585,2.9848,2.9271,2.9012,2.8904,2.7997,2.7947,2.848,2.7479,2.7276,2.7515,2.6759,2.6283,2.5837,2.4738,2.4292,2.4176,2.3365,2.3078,2.3078,2.3078,2.3078,2.3078,2.3078,2.3078,2.3005,2.2641,2.2823,2.3078,2.3078,2.3078,2.3078,2.3078,2.4047,2.4681,2.3826,2.461,2.5119,2.3884,2.4047,2.4337,2.4292,2.4951,2.5728,2.6404,2.6826,0.0,2.7993,2.829,2.8723,2.9425,3.0057,2.9542,2.7386,0.0,0.0,2.7733,2.8437,3.0464,3.4055,3.4496,3.4958,3.5577,3.5622,3.5622,3.5622,3.5622,3.5453,3.5144,3.5144,3.4958,3.4704,3.4704,3.4704,3.4704,3.4704,3.4447,3.4137,3.4137,3.3937,3.3531,3.2786,3.2571,3.2338,3.1493,3.1642,3.1861,3.2316,3.2074,3.1804,3.1789,3.1449,3.1241,3.1343,3.1803,3.2184,3.2302,3.2774,3.3463,3.429,3.4199,3.432,3.492,3.5178,3.4398,3.2364,3.1775,3.0855,2.9422,2.9316,2.9271,2.9271,2.918,2.918,2.9271,2.918,2.918,2.9225,2.8638,2.8319,2.811,2.6953,2.6826,2.7188,2.6602,2.6336,2.6336,2.6229,2.5783,2.5119,2.4394,2.4118,2.4002,2.3305,2.3005,2.2944,2.2944,2.2823,2.2689,2.2689,2.2823,2.2823,2.2261,2.2567,2.3078,2.3078,2.3078,2.3078,2.3078,2.3708,2.4292,2.4118,2.4234,2.4292,2.4118,2.3543,2.3251,2.366,2.4068,2.4603,2.5611,0.0,2.6909,2.808,2.8262,2.8497,2.9026,2.9834,3.0329,3.0329,3.1029,3.1482,0.0,3.212,3.2734,3.3443,3.3547,3.4153,3.527,3.5316,3.5316,3.5316,3.5316,3.5005,3.4431,3.4431,3.4137,3.3582,3.3582,3.3582,3.3582,3.3582,3.3531,3.3443,3.3308,3.3187,3.2924,3.1486,3.0968,3.0734,3.0526,3.0925,3.1411,3.1825,3.1582,3.1428,3.1752,3.1449,3.141,3.2036,3.1759,3.1698,3.2326,3.1957,3.2268,3.3565,3.3653,3.4314,3.6041,3.5567,3.4599,3.3192,3.2384,3.1191,2.9422,2.8919,2.8654,2.8654,2.8125,2.8125,2.8654,2.8125,2.8125,2.8591,2.7993,2.7393,2.6811,2.6602,2.6229,2.5728,2.5618,2.5563,2.5508,2.4908,2.4567,2.435,2.359,2.3305,2.3245,2.3125,2.2641,2.2075,2.2075,2.1553,2.0974,2.0974,2.1491,2.2199,2.2763,2.3005,2.3078,2.3078,2.3078,2.3078,2.3078,2.3708,2.4118,2.3424,2.3826,2.4118,2.3424,2.3185,2.264,2.1171,2.2847,2.3817,2.241,0.0,2.6313,2.6581,2.7454,2.8055,2.8213,2.9458,3.0329,3.0329,3.1029,3.1482,3.1482,3.1582,3.2007,3.2749,3.3287,3.3684,3.3887,3.3887,3.3887,3.3887,3.3887,3.3853,3.3735,3.3735,3.3684,3.3582,3.3582,3.3582,3.3582,3.3582,3.3287,3.268,3.1911,3.1287,3.0704,2.9723,2.9352,2.9226,2.9805,3.0038,3.0276,3.046,3.0327,3.0402,3.0897,3.1163,3.14,3.1733,3.2188,3.2482,3.2433,3.2546,3.285,3.3485,3.3551,3.381,3.4339,3.4337,3.3728,3.243,3.1332,2.983,2.7868,2.7963,2.7615,2.6805,2.6967,2.6967,2.6805,2.652,2.6573,2.6805,2.652,2.6215,2.5906,2.5906,2.5728,2.5398,2.5398,2.5175,2.4794,2.4452,2.4002,2.3603,2.3245,2.3078,2.3078,2.3078,2.2567,2.1877,2.1877,2.1616,2.1302,2.1302,2.1553,2.2075,2.2884,2.3078,2.3078,2.3078,2.3078,2.3078,2.3078,2.3365,2.3543,2.3198,2.3424,2.3543,2.3198,2.3078,2.2799,2.1939,2.2866,2.3508,2.3044,2.4493,2.5896,2.6634,2.7067,2.7467,2.7803,2.8457,2.9066,2.9566,3.0389,3.1029,3.1467,3.1482,3.164,3.2007,3.3024,3.3443,3.3039,3.3443,3.3582,3.3582,3.3582,3.3391,3.3039,3.3039,3.2826,3.2461,3.2461,3.2461,3.2461,3.2013,3.1618,3.1246,3.0422,2.9893,2.9504,2.862,2.8298,2.8182,2.918,2.9316,2.9406,2.9406,2.9406,2.9605,3.0207,3.0647,3.0953,3.1248,3.1967,3.236,3.2226,3.261,3.2992,3.3339,3.3061,3.2713,3.2376,3.2224,3.1758,3.0941,2.9416,2.7891,2.6297,2.6811,2.6534,2.5398,2.596,2.596,2.5398,2.5398,2.5398,2.5398,2.5398,2.5287,2.5119,2.5119,2.5063,2.4894,2.4894,2.4496,2.4002,2.4002,2.3662,2.3078,2.3078,2.3078,2.3078,2.2884,2.2249,2.1553,2.1365,2.1164,2.1037,2.1491,2.1877,2.2322,2.2944,2.3078,2.3078,2.3078,2.3078,2.3078,2.3078,2.3078,2.3078,2.3078,2.3078,2.3078,2.3078,2.3078,2.2975,2.2506,0.0,2.3187,2.3328,2.4334,2.5458,2.6492,2.6614,2.6843,2.7365,2.7604,2.7986,2.862,2.9504,3.0329,3.1161,3.1219,3.1278,3.1482,3.2555,3.2879,3.2327,3.2879,3.313,3.313,3.313,3.2826,3.2327,3.2327,3.2064,3.1482,3.1278,3.1219,3.1161,3.0329,3.0011,2.9889,2.9066,2.8684,2.862,2.7736,2.7417,2.7351,2.8559,2.9012,2.9406,2.9406,2.9406,2.963,3.027,2.9769,2.9735,3.1027,3.0078,2.9797,3.1222,3.0881,3.113,3.2532,3.1488,3.0975,3.154,2.9215,2.8136,2.8722,2.6798,2.566,2.5453,2.5508,2.5508,2.5398,2.5453,2.5453,2.5398,2.5398,2.5398,2.5398,2.5398,2.5007,2.4408,2.4408,2.3943,2.3245,2.3245,2.3245,2.3198,2.3198,2.3125,2.3078,2.3078,2.3078,2.3017,2.2261,2.1428,2.0526,1.9759,1.8911,1.8586,2.0204,2.1803,2.3005,2.3065,2.3078,2.3078,2.3078,2.3078,2.3078,2.3078,2.3078,2.3078,2.3078,2.3078,2.3078,2.3078,2.3078,2.2518,2.077,0.0,0.0,2.0823,2.2997,2.4834,2.4924,2.5883,2.6539,2.6589,2.7297,2.7736,2.7802,2.862,2.9442,3.0329,3.0389,3.0718,3.1467,3.1582,3.1625,3.1582,3.164,3.1625,3.1625,3.1625,3.164,3.1582,3.1582,3.1524,3.1467,3.0703,3.0389,3.0329,2.9442,2.9129,2.9002,2.8117,2.7802,2.767,2.6905,2.6589,2.6589,2.7363,2.7815,2.8281,2.8212,2.8571,2.9051,2.9582,2.9757,2.9847,2.9799,2.9639,2.9674,2.9836,2.9662,2.9582,2.9827,2.939,2.8886,2.8385,2.6877,2.6189,2.6554,2.5826,2.5175,2.4738,2.5175,2.4951,2.3975,2.4452,2.4452,2.3975,2.3975,2.3975,2.3975,2.3975,2.3813,2.3543,2.3543,2.3365,2.3078,2.3078,2.3078,2.3078,2.3078,2.3078,2.3078,2.3078,2.2763,2.2322,2.2002,2.0974,1.9759,1.9431,1.9044,1.9177,2.091,2.2187,2.3078,2.3078,2.3078,2.3078,2.3078,2.3078,2.3078,2.3078,2.3078,2.3078,2.3078,2.3078,2.3078,2.3078,2.3078,2.2862,2.2122,0.0,2.2962,2.2647,2.3865,2.4946,2.5259,2.5988,2.6533,2.6533,2.6782,2.7162,2.767,2.7986,2.8556,2.9442,3.0011,3.0644,3.1467,3.1482,3.1482,3.1482,3.1106,3.1106,3.1467,3.1106,3.0639,3.0221,3.0587,3.0089,2.8927,2.929,2.9293,2.897,2.8407,2.8182,2.8117,2.7297,2.6973,2.6837,2.5931,2.5581,2.5511,2.654,2.6837,2.72,2.7327,2.7775,2.8254,2.8751,2.9001,2.9027,2.8582,2.8594,2.8574,2.8334,2.817,2.8009,2.7903,2.7501,2.6927,2.6048,2.5116,2.4603,2.4681,2.4667,2.4439,2.3943,2.4439,2.415,2.3078,2.3649,2.3649,2.3065,2.2823,2.2884,2.3078,2.2823,2.2689,2.2689,2.2689,2.2567,2.231,2.2628,2.2689,2.2763,2.3005,2.2944,2.2689,2.2689,2.2187,2.1428,2.1175,2.0268,1.9233,1.8977,1.9299,1.9944,2.1175,2.2249,2.3078,2.3078,2.2944,2.2763,2.3017,2.3078,2.3078,2.3078,2.3078,2.3078,2.3078,2.3078,2.3078,2.3078,2.3078,2.3128,2.3376,2.3401,2.3602,2.418,2.472,2.5197,2.5548,2.6101,2.6533,2.6533,2.6533,2.6714,2.7297,2.7284,2.767,2.8556,2.9442,3.0269,3.1087,3.1087,3.1219,3.1482,3.1061,3.0956,3.121,3.049,2.978,2.9117,2.9256,2.863,2.7325,2.7879,2.7892,2.7489,2.7157,2.7077,2.6958,2.6283,2.6025,2.5873,2.4921,2.4564,2.4409,2.6242,2.6194,2.6373,2.6877,2.6973,2.7253,2.7886,2.7283,2.6921,2.7591,2.646,2.5917,2.6814,2.6426,2.6425,2.7211,2.6026,2.5216,2.5157,2.3885,2.3065,2.3065,2.3078,2.3078,2.3065,2.3065,2.3065,2.3065,2.3065,2.3065,2.3078,2.2261,2.2322,2.3078,2.2249,2.1877,2.1877,2.1877,2.1428,2.0655,2.1553,2.1877,2.2002,2.2763,2.2567,2.1877,2.1877,2.1365,2.0462,1.9562,1.9299,1.911,1.8269,1.9177,2.059,2.059,2.1803,2.3078,2.3078,2.2506,2.2063,2.2884,2.3078,2.3078,2.3078,2.3078,2.3078,2.3078,2.3078,2.3078,2.3078,2.3078,2.3265,2.3904,2.4004,2.4192,2.4745,2.5272,2.5598,2.5598,2.6113,2.6533,2.6533,2.6533,2.6533,2.6533,2.6533,2.685,2.767,2.8492,2.938,3.0269,3.0329,3.0703,3.1467,3.1467,3.118,3.0507,2.9753,2.9059,2.8325,2.7621,2.727,2.7197,2.6411,2.6069,2.6047,2.5741,2.5586,2.5582,2.5153,2.5004,2.4862,2.3891,2.3514,2.3514,2.6022,2.643,2.6799,2.6921,2.7339,2.7714,2.7769,2.7603,2.7275,2.6879,2.5852,2.5399,2.5955,2.529,2.48,2.4991,2.46,2.3963,2.2985,2.1937,2.1353,2.1353,2.1939,2.2002,2.1353,2.1353,2.1353,2.1353,2.1353,2.1353,2.1353,2.1101,2.1101,2.1353,2.1741,2.1565,2.1037,2.1628,2.1428,2.0655,2.1553,2.1553,2.1112,2.1939,2.1741,2.0974,2.0974,2.0398,1.9628,1.9365,1.8911,1.8462,1.8787,1.9694,2.0719,2.1365,2.1877,2.2261,2.2261,2.1616,2.1175,2.2063,2.2261,2.2261,2.2261,2.2689,2.3078,2.3078,2.3078,2.3078,2.3078,2.3464,2.353,2.3023,2.3848,2.4499,2.4408,2.5086,2.5749,2.6151,2.642,2.6533,2.6533,2.6533,2.6533,2.6533,2.6533,2.685,2.767,2.792,2.8492,2.938,2.995,3.0133,2.9766,3.0426,3.0461,2.9696,2.9015,2.7811,2.6194,2.6391,2.5714,2.4403,2.4935,2.518,2.5192,2.5113,2.5086,2.5105,2.461,2.4248,2.3818,2.285,2.2478,2.2328,2.5842,2.6123,2.6496,2.6739,2.7092,2.7392,2.7232,2.6867,2.637,2.5704,2.4563,2.3815,2.3917,2.3266,2.2768,2.2666,2.2681,2.2285,2.1451,2.091,2.0462,2.0074,2.059,2.0782,2.059,2.059,2.059,2.059,2.059,2.059,2.059,2.0268,2.0268,2.059,2.0782,2.059,2.0139,2.0655,2.0398,1.9628,2.0526,2.059,2.0204,2.1037,2.0846,2.0074,2.0074,1.9562,1.8787,1.8787,1.8462,1.8076,1.8586,1.9365,2.0204,2.0719,2.1101,2.1365,2.1365,2.0719,2.0204,2.0719,2.1101,2.1491,2.1815,2.2261,2.2641,2.2641,2.2884,2.2946,2.2452,2.2955,2.3396,2.3197,2.3954,2.4713,2.5034,2.5599,2.6063,2.6483,2.6533,2.6533,2.6533,2.6533,2.6533,2.6533,2.6533,2.6714,2.7229,2.7229,2.7604,2.8427,2.9002,2.9192,2.9002,2.9611,2.9419,2.8493,2.7818,2.6548,2.4853,2.4862,2.4231,2.3128,2.4104,2.4494,2.4467,2.4554,2.4626,2.4613,2.3695,2.3184,2.2776,2.1821,2.1451,2.1375,2.5693,2.5674,2.5837,2.6433,2.6533,2.6452,2.6383,2.5545,2.4743,2.4243,2.2823,2.1788,2.1441,2.0861,2.0571,2.059,2.0526,2.0462,2.0462,2.0398,2.0009,1.9243,1.9177,1.9562,2.0333,2.0398,2.0398,2.0398,2.0398,2.0398,2.0333,1.9562,1.9628,2.0333,1.9628,1.9243,1.9177,1.9299,1.8787,1.8076,1.8977,1.9233,1.9299,2.0139,1.9944,1.9177,1.9177,1.8654,1.8008,1.8008,1.8008,1.8008,1.8076,1.8654,1.9299,1.9365,1.9944,2.0462,2.0462,1.9814,1.9177,1.9177,1.9759,2.059,2.1491,2.1753,2.1753,2.1753,2.242,2.259,2.1416,2.1916,2.2827,2.379,2.4129,2.4747,2.602,2.6383,2.6533,2.6533,2.6533,2.6533,2.6533,2.6533,2.6533,2.6533,2.6533,2.6533,2.6533,2.6533,2.685,2.7537,2.767,2.8051,2.8748,2.8876,2.8271,2.7088,2.6425,2.5401,2.4176,2.3424,2.3078,2.3103,2.369,2.3891,2.3879,2.3977,2.3999,2.3839,2.2464,2.192,2.1735,2.0934,2.0566,2.0566,2.6219,2.6264,2.6382,2.6508,2.6533,2.6233,2.5441,2.4845,2.4164,2.3303,2.1952,2.1123,2.1375,2.0619,2.0212,2.056,2.0009,1.9552,1.9552,1.8911,1.8462,1.8269,1.8269,1.8395,1.8596,1.8596,1.8596,1.8596,1.8596,1.8596,1.8596,1.8395,1.8405,1.8596,1.911,1.8911,1.8337,1.8977,1.8787,1.8076,1.8977,1.8911,1.8405,1.9233,1.9044,1.8269,1.8269,1.8134,1.8008,1.8008,1.8008,1.8144,1.8787,1.9177,1.9431,2.0139,1.9944,1.9552,1.9552,1.8921,1.8269,1.8269,1.8395,1.8787,1.9694,2.0398,2.091,2.091,2.1282,2.1513,2.1219,2.2003,2.2469,2.1955,2.3553,2.4661,2.423,2.5499,2.6533,2.6533,2.6533,2.6533,2.6533,2.6533,2.6533,2.6533,2.6533,2.6533,2.6533,2.6533,2.6589,2.6782,2.7351,2.7484,2.704,2.767,2.74,2.6363,2.6193,2.5171,2.3365,2.3198,2.3078,2.3078,2.3263,2.3183,2.3007,2.2888,2.2503,2.1937,2.1534,2.121,2.0857,2.0644,2.0566,2.0566,2.5075,2.5429,2.5804,2.5804,2.5804,2.5496,2.4788,2.3652,2.2607,2.1673,2.0122,1.9103,1.9114,1.8606,1.8604,1.932,1.8911,1.8654,1.8654,1.8269,1.8008,1.8008,1.8008,1.8008,1.8008,1.7579,1.7569,1.8008,1.8008,1.8008,1.8008,1.8008,1.8008,1.8008,1.8462,1.8462,1.8008,1.8462,1.8395,1.8008,1.8529,1.8104,1.7354,1.7804,1.7745,1.7354,1.7354,1.7647,1.8008,1.8008,1.8008,1.8076,1.8529,1.8654,1.8787,1.9243,1.9044,1.8654,1.8654,1.8337,1.8008,1.8008,1.8008,1.8202,1.911,1.9628,2.0009,2.0237,2.0731,2.1039,2.0688,2.1368,2.1929,2.1639,2.2687,2.3514,2.3526,2.4397,2.5063,2.5063,2.5063,2.5063,2.5063,2.5063,2.5288,2.5734,2.5804,2.6025,2.6452,2.6533,2.6533,2.6533,2.6905,2.6905,2.6533,2.6905,2.6594,2.5471,2.5471,2.463,2.3078,2.3078,2.2884,2.2519,2.2775,2.2735,2.2359,2.2049,2.1887,2.1607,2.1104,2.0801,2.0566,2.0566,2.0245,1.9844,2.3661,2.4192,2.4707,2.4707,2.472,2.4425,2.3886,2.2275,2.077,1.973,1.8165,1.6946,1.6385,1.6376,1.6673,1.7442,1.751,1.751,1.751,1.751,1.751,1.751,1.751,1.751,1.751,1.6784,1.6922,1.8008,1.7862,1.7862,1.8008,1.8008,1.794,1.7794,1.794,1.7794,1.751,1.7725,1.7657,1.751,1.751,1.7079,1.6349,1.6349,1.6498,1.6636,1.6636,1.7207,1.8008,1.8008,1.8008,1.8008,1.8008,1.7872,1.7794,1.7794,1.7794,1.7794,1.7794,1.7862,1.8008,1.8008,1.8008,1.8221,1.9014,1.9158,1.9261,1.9634,2.0371,2.0781,1.9989,2.0551,2.1226,2.1673,2.1886,2.2253,2.3147,2.3368,2.3514,2.3514,2.3514,2.3514,2.3514,2.3514,2.3818,2.4707,2.4707,2.5146,2.6164,2.6245,2.6314,2.6452,2.6533,2.6533,2.6533,2.6314,2.5697,2.4549,2.4406,2.3825,2.2884,2.2788,2.2395,2.1714,2.2232,2.2154,2.1614,2.1413,2.1502,2.1556,2.0904,2.0566,2.0566,2.0401,1.9599,1.8718,2.3514,2.3599,2.3661,2.3661,2.3394,2.2876,2.1937,2.0956,1.9633,1.7834,1.7076,1.6351,1.5446,1.5376,1.5446,1.5587,1.5587,1.5587,1.5587,1.5587,1.5587,1.5587,1.5587,1.5587,1.5587,1.5446,1.6228,1.8008,1.7217,1.7207,1.8008,1.8008,1.7579,1.6844,1.7647,1.7088,1.5658,1.6428,1.6289,1.5587,1.5587,1.5517,1.5376,1.5376,1.586,1.6636,1.6636,1.7207,1.8008,1.8008,1.8008,1.8008,1.8008,1.7432,1.6784,1.6784,1.6784,1.6784,1.6784,1.7354,1.8008,1.8008,1.8008,1.8105,1.8596,1.8685,1.8705,1.8754,1.9499,2.0064,1.9893,2.0291,2.072,2.0779,2.1441,2.2027,2.2178,2.2925,2.3514,2.3514,2.3514,2.3514,2.3514,2.3514,2.3588,2.3661,2.3661,2.4108,2.5158,2.5229,2.5594,2.6452,2.6533,2.6533,2.6533,2.5664,2.4689,2.3646,2.2808,2.2275,2.2025,2.1677,2.1243,2.0816,2.1226,2.094,2.0265,2.0927,2.0808,2.018,2.0497,2.0566,2.0489,1.952,1.847,1.7496,2.1247,2.1855,2.2381,2.1565,2.1754,2.16,2.0104,1.9082,1.7925,1.6297,1.5476,1.4799,1.4386,1.4378,1.4601,1.5163,1.5234,1.5234,1.5234,1.5234,1.5234,1.5234,1.5234,1.5234,1.5234,1.4665,1.5021,1.6446,1.6009,1.6009,1.6446,1.6446,1.6228,1.586,1.6228,1.5948,1.5234,1.5658,1.5587,1.5234,1.5234,1.4879,1.4378,1.4378,1.4593,1.5155,1.621,1.7207,1.794,1.7354,1.7217,1.7139,1.6576,1.6158,1.579,1.579,1.579,1.579,1.579,1.6149,1.6576,1.707,1.7394,1.776,1.8453,1.9004,1.9355,1.9355,1.9648,1.999,2.0234,2.0439,2.0566,2.0566,2.0934,2.1231,2.1231,2.1593,2.1897,2.1897,2.1897,2.1897,2.1897,2.1897,2.2113,2.2627,2.2627,2.3073,2.4108,2.4192,2.4624,2.5664,2.5652,2.5652,2.5652,2.5229,2.419,2.2672,2.1978,2.1592,2.1525,2.1273,2.1007,2.0601,2.0536,2.0264,1.9917,2.0068,2.0207,2.0303,2.0488,2.0235,1.9599,1.847,1.7334,1.6437]},{"header":{"parameterUnit":"m.s-1","parameterCategory":1,"la1":30.6,"la2":28.766,"lo1":-90.7593,"lo2":-88.6598,"dx":0.0162,"dy":0.0183,"nx":116,"ny":114,"refTime":"2022-12-02T06:00:00:Z","depth":0,"parameterNumber":3,"parameterNumberName":"V-component_of_WINDS"},"data":[0.0,0.0,0.0,0.0,0.0,0.0,0.0,0.0,0.0,0.0,0.0,0.0,0.0,0.0,0.0,0.0,0.0,0.0,0.0,0.0,0.0,0.0,0.0,0.0,0.0,0.0,0.0,0.0,0.0,0.0,0.0,0.0,0.0,0.0,0.0,0.0,0.0,0.0,0.0,0.0,0.0,0.0,0.0,0.0,0.0,0.0,0.0,0.0,0.0,0.0,0.0,0.0,0.0,0.0,0.0,0.0,0.0,0.0,0.0,0.0,0.0,0.0,0.0,0.0,0.0,0.0,0.0,0.0,0.0,0.0,0.0,0.0,0.0,0.0,0.0,0.0,0.0,0.0,0.0,0.0,0.0,0.0,0.0,0.0,0.0,0.0,0.0,0.0,0.0,0.0,0.0,0.0,0.0,0.0,0.0,0.0,0.0,0.0,0.0,0.0,0.0,0.0,0.0,0.0,0.0,0.0,0.0,0.0,0.0,0.0,0.0,0.0,0.0,0.0,0.0,0.0,0.0,0.0,0.0,0.0,0.0,0.0,0.0,0.0,0.0,0.0,0.0,0.0,0.0,0.0,0.0,0.0,0.0,0.0,0.0,0.0,0.0,0.0,0.0,0.0,0.0,0.0,0.0,0.0,0.0,0.0,0.0,0.0,0.0,0.0,0.0,0.0,0.0,0.0,0.0,0.0,0.0,0.0,0.0,0.0,0.0,0.0,0.0,0.0,0.0,0.0,0.0,0.0,0.0,0.0,0.0,0.0,0.0,0.0,0.0,0.0,0.0,0.0,0.0,0.0,0.0,0.0,0.0,0.0,0.0,0.0,0.0,0.0,0.0,0.0,0.0,0.0,0.0,0.0,0.0,0.0,0.0,0.0,0.0,0.0,0.0,0.0,0.0,0.0,0.0,0.0,0.0,0.0,0.0,0.0,0.0,0.0,0.0,0.0,0.0,0.0,0.0,0.0,0.0,0.0,0.0,0.0,0.0,0.0,0.0,0.0,0.0,0.0,0.0,0.0,0.0,0.0,0.0,0.0,0.0,0.0,0.0,0.0,0.0,0.0,0.0,0.0,0.0,0.0,0.0,0.0,0.0,0.0,0.0,0.0,0.0,0.0,0.0,0.0,0.0,0.0,0.0,0.0,0.0,0.0,0.0,0.0,0.0,0.0,0.0,0.0,0.0,0.0,0.0,0.0,0.0,0.0,0.0,0.0,0.0,0.0,0.0,0.0,0.0,0.0,0.0,0.0,0.0,0.0,0.0,0.0,0.0,0.0,0.0,0.0,0.0,0.0,0.0,0.0,0.0,0.0,0.0,0.0,0.0,0.0,0.0,0.0,0.0,0.0,0.0,0.0,0.0,0.0,0.0,0.0,0.0,0.0,0.0,0.0,0.0,0.0,0.0,0.0,0.0,0.0,0.0,0.0,0.0,0.0,0.0,0.0,0.0,0.0,0.0,0.0,0.0,0.0,0.0,0.0,0.0,0.0,0.0,0.0,0.0,0.0,0.0,0.0,0.0,0.0,0.0,0.0,0.0,0.0,0.0,0.0,0.0,0.0,0.0,0.0,0.0,0.0,0.0,0.0,0.0,0.0,0.0,0.0,0.0,0.0,0.0,0.0,0.0,0.0,0.0,0.0,0.0,0.0,0.0,0.0,0.0,0.0,0.0,0.0,0.0,0.0,0.0,0.0,0.0,0.0,0.0,0.0,0.0,0.0,0.0,0.0,0.0,0.0,0.0,0.0,0.0,0.0,0.0,0.0,0.0,0.0,0.0,0.0,0.0,0.0,0.0,0.0,0.0,0.0,0.0,0.0,0.0,0.0,0.0,0.0,0.0,0.0,0.0,0.0,0.0,0.0,0.0,0.0,0.0,0.0,0.0,0.0,0.0,0.0,0.0,0.0,0.0,0.0,0.0,0.0,0.0,0.0,0.0,0.0,0.0,0.0,0.0,0.0,0.0,0.0,0.0,0.0,0.0,0.0,0.0,0.0,0.0,0.0,0.0,0.0,0.0,0.0,0.0,0.0,0.0,0.0,0.0,0.0,0.0,0.0,0.0,0.0,0.0,0.0,0.0,0.0,0.0,0.0,0.0,0.0,0.0,0.0,0.0,0.0,0.0,0.0,0.0,0.0,0.0,0.0,0.0,0.0,0.0,0.0,0.0,0.0,0.0,0.0,0.0,0.0,0.0,0.0,0.0,0.0,0.0,0.0,0.0,0.0,0.0,0.0,0.0,0.0,0.0,0.0,0.0,0.0,0.0,0.0,0.0,0.0,0.0,0.0,0.0,0.0,0.0,0.0,0.0,0.0,0.0,0.0,0.0,0.0,0.0,0.0,0.0,0.0,0.0,0.0,0.0,0.0,0.0,0.0,0.0,0.0,0.0,0.0,0.0,0.0,0.0,0.0,0.0,0.0,0.0,0.0,0.0,0.0,0.0,0.0,0.0,0.0,0.0,0.0,0.0,0.0,0.0,0.0,0.0,0.0,0.0,0.0,0.0,0.0,0.0,0.0,0.0,0.0,0.0,0.0,0.0,0.0,0.0,0.0,0.0,0.0,0.0,0.0,0.0,0.0,0.0,0.0,0.0,0.0,0.0,0.0,0.0,0.0,0.0,0.0,0.0,0.0,0.0,0.0,0.0,0.0,0.0,0.0,0.0,0.0,0.0,0.0,0.0,0.0,0.0,0.0,0.0,0.0,0.0,0.0,0.0,0.0,0.0,0.0,0.0,0.0,0.0,0.0,0.0,0.0,0.0,0.0,0.0,0.0,0.0,0.0,0.0,0.0,0.0,0.0,0.0,0.0,0.0,0.0,0.0,0.0,0.0,0.0,0.0,0.0,0.0,0.0,0.0,0.0,0.0,0.0,0.0,0.0,0.0,0.0,0.0,0.0,0.0,0.0,0.0,0.0,0.0,0.0,0.0,0.0,0.0,0.0,0.0,0.0,0.0,0.0,0.0,0.0,0.0,0.0,0.0,0.0,0.0,0.0,0.0,0.0,0.0,0.0,0.0,0.0,0.0,0.0,0.0,0.0,0.0,0.0,0.0,0.0,0.0,0.0,0.0,0.0,0.0,0.0,0.0,0.0,0.0,0.0,0.0,0.0,0.0,0.0,0.0,0.0,0.0,0.0,0.0,0.0,0.0,0.0,0.0,0.0,0.0,0.0,0.0,0.0,0.0,0.0,0.0,0.0,0.0,0.0,0.0,0.0,0.0,0.0,0.0,0.0,0.0,0.0,0.0,0.0,0.0,0.0,0.0,0.0,0.0,0.0,0.0,0.0,0.0,0.0,0.0,0.0,0.0,0.0,0.0,0.0,0.0,0.0,0.0,0.0,0.0,0.0,0.0,0.0,0.0,0.0,0.0,0.0,0.0,0.0,0.0,0.0,0.0,0.0,0.0,0.0,0.0,0.0,0.0,0.0,0.0,0.0,0.0,0.0,0.0,0.0,0.0,0.0,0.0,0.0,0.0,0.0,0.0,0.0,0.0,0.0,0.0,0.0,0.0,0.0,0.0,0.0,0.0,0.0,0.0,0.0,0.0,0.0,0.0,0.0,0.0,0.0,0.0,0.0,0.0,0.0,0.0,0.0,0.0,0.0,0.0,0.0,0.0,0.0,0.0,0.0,0.0,0.0,0.0,0.0,0.0,0.0,0.0,0.0,0.0,0.0,0.0,0.0,0.0,0.0,0.0,0.0,0.0,0.0,0.0,0.0,0.0,0.0,0.0,0.0,0.0,0.0,0.0,0.0,0.0,0.0,0.0,0.0,0.0,0.0,0.0,0.0,0.0,0.0,0.0,0.0,0.0,0.0,0.0,0.0,0.0,0.0,0.0,0.0,0.0,0.0,0.0,0.0,0.0,0.0,0.0,0.0,0.0,0.0,0.0,0.0,0.0,0.0,0.0,0.0,0.0,0.0,0.0,0.0,0.0,0.0,0.0,0.0,0.0,0.0,0.0,0.0,0.0,0.0,0.0,0.0,0.0,0.0,0.0,0.0,0.0,0.0,0.0,0.0,0.0,0.0,0.0,0.0,0.0,0.0,0.0,0.0,0.0,0.0,0.0,0.0,0.0,0.0,0.0,0.0,0.0,0.0,0.0,0.0,0.0,0.0,0.0,0.0,0.0,0.0,0.0,0.0,0.0,0.0,0.0,0.0,0.0,0.0,0.0,0.0,0.0,0.0,0.0,0.0,0.0,0.0,0.0,0.0,0.0,0.0,0.0,0.0,0.0,0.0,0.0,0.0,0.0,0.0,0.0,0.0,0.0,0.0,0.0,0.0,0.0,0.0,0.0,0.0,0.0,0.0,0.0,0.0,0.0,0.0,0.0,0.0,0.0,0.0,0.0,0.0,0.0,0.0,0.0,0.0,0.0,0.0,0.0,0.0,0.0,0.0,0.0,0.0,0.0,0.0,0.0,0.0,0.0,0.0,0.0,0.0,0.0,0.0,0.0,0.0,0.0,0.0,0.0,0.0,0.0,0.0,0.0,0.0,0.0,0.0,0.0,0.0,0.0,0.0,0.0,0.0,0.0,0.0,0.0,0.0,0.0,0.0,0.0,0.0,0.0,0.0,0.0,0.0,0.0,0.0,0.0,0.0,0.0,0.0,0.0,0.0,0.0,0.0,0.0,0.0,0.0,0.0,0.0,0.0,0.0,0.0,0.0,0.0,0.0,0.0,0.0,0.0,0.0,0.0,0.0,0.0,0.0,0.0,0.0,0.0,0.0,0.0,0.0,0.0,0.0,0.0,0.0,0.0,0.0,0.0,0.0,0.0,0.0,0.0,0.0,0.0,0.0,0.0,0.0,0.0,0.0,0.0,0.0,0.0,0.0,0.0,0.0,0.0,0.0,0.0,0.0,0.0,0.0,0.0,0.0,0.0,0.0,0.0,0.0,0.0,0.0,0.0,0.0,0.0,0.0,0.0,0.0,0.0,0.0,0.0,0.0,0.0,0.0,0.0,0.0,0.0,0.0,0.0,0.0,0.0,0.0,0.0,0.0,0.0,0.0,0.0,0.0,0.0,0.0,0.0,0.0,0.0,0.0,0.0,0.0,0.0,0.0,0.0,0.0,0.0,0.0,0.0,0.0,0.0,0.0,0.0,0.0,0.0,0.0,0.0,0.0,0.0,0.0,0.0,0.0,0.0,0.0,0.0,0.0,0.0,0.0,0.0,0.0,0.0,0.0,0.0,0.0,0.0,0.0,0.0,0.0,0.0,0.0,0.0,0.0,0.0,0.0,0.0,0.0,0.0,0.0,0.0,0.0,0.0,0.0,0.0,0.0,0.0,0.0,0.0,0.0,0.0,0.0,0.0,0.0,0.0,0.0,0.0,0.0,0.0,0.0,0.0,0.0,0.0,0.0,0.0,0.0,0.0,0.0,0.0,0.0,0.0,0.0,0.0,0.0,0.0,0.0,0.0,0.0,0.0,0.0,0.0,0.0,0.0,0.0,0.0,0.0,0.0,0.0,0.0,0.0,0.0,0.0,0.0,0.0,0.0,0.0,0.0,0.0,0.0,0.0,0.0,0.0,0.0,0.0,0.0,0.0,0.0,0.0,0.0,0.0,0.0,0.0,0.0,0.0,0.0,0.0,0.0,0.0,0.0,0.0,0.0,0.0,0.0,0.0,0.0,0.0,0.0,0.0,0.0,0.0,0.0,0.0,0.0,0.0,0.0,0.0,0.0,0.0,0.0,0.0,0.0,0.0,0.0,0.0,0.0,0.0,0.0,0.0,0.0,0.0,0.0,0.0,0.0,0.0,0.0,0.0,0.0,0.0,0.0,0.0,0.0,0.0,0.0,0.0,0.0,0.0,0.0,0.0,0.0,0.0,0.0,0.0,0.0,0.0,0.0,0.0,0.0,0.0,0.0,0.0,0.0,0.0,0.0,0.0,0.0,0.0,0.0,0.0,0.0,0.0,0.0,0.0,0.0,0.0,0.0,0.0,0.0,0.0,0.0,0.0,0.0,0.0,0.0,0.0,0.0,0.0,0.0,0.0,0.0,0.0,0.0,0.0,0.0,0.0,0.0,0.0,0.0,0.0,0.0,0.0,0.0,0.0,0.0,0.0,0.0,0.0,0.0,0.0,0.0,0.0,0.0,0.3957,0.0,0.0,0.0,0.0,0.0,0.0,0.0,0.0,0.0,0.0,0.0,0.0,0.0,0.0,0.0,0.0,0.0,0.0,0.0,0.0,0.0,0.0,0.0,0.0,0.3506,0.3446,0.3293,0.3293,0.0,0.0,0.0,0.0,0.0,0.0,0.0,0.0,0.0,0.0,0.0,0.1141,0.2867,0.506,0.338,0.2574,0.2511,0.0,0.0,0.0,0.0,0.0,0.0,0.0,0.0,0.0,0.0,0.0,0.0,0.0,0.0,0.0,0.0,0.0,0.0,0.0,0.0,0.0,0.0,0.0,0.0,0.0,0.0,0.0,0.0,0.0,0.0,0.0,0.0,0.0,0.0,0.0,0.0,0.0,0.0,0.0,0.0,0.0,0.0,0.0,0.0,0.0,0.0,0.0,0.0,0.0,0.0,0.0,0.0,0.0,0.0,0.0,0.0,0.0,0.0,0.0,0.0,0.0,0.0,0.0,0.0,0.0,0.0,0.0,0.0,0.0,0.0,0.0,0.4671,0.0,0.0,0.0,0.0,0.0,0.0,0.0,0.0,0.0,0.0,0.0,0.0,0.0,0.0,0.0,0.0,0.0,0.0,0.0,0.0,0.0,0.3462,0.3579,0.3586,0.3586,0.3586,0.334,0.3054,0.2818,0.1976,0.0,0.0,0.0,0.0,0.0,0.0,0.04,0.1206,0.2961,0.5843,0.9619,0.6742,0.537,0.5275,0.4394,0.0,0.0,0.0,0.0,0.0,0.0,0.0,0.0,0.0,0.0,0.0,0.0,0.0,0.0,0.0,0.0,0.0,0.0,0.0,0.0,0.0,0.0,0.0,0.0,0.0,0.0,0.0,0.0,0.0,0.0,0.0,0.0,0.0,0.0,0.0,0.0,0.0,0.0,0.0,0.0,0.0,0.0,0.0,0.0,0.0,0.0,0.0,0.0,0.0,0.0,0.0,0.0,0.0,0.0,0.0,0.0,0.0,0.0,0.0,0.0,0.0,0.0,0.0,0.5396,0.5399,0.5404,0.5408,0.5422,0.5413,0.5424,0.5378,0.5229,0.0,0.0,0.0,0.0,0.0,0.0,0.0,0.0,0.0,0.0,0.0,0.0,0.0,0.0,0.0,0.0,0.0,0.0,0.0,0.0,0.3353,0.3881,0.3938,0.3938,0.3938,0.3641,0.3147,0.2422,0.1036,0.0,0.0,0.0,0.0,0.0,0.0,0.1985,0.6069,0.5474,0.5467,0.6063,0.5597,0.5379,0.5536,0.8292,0.7783,0.4751,0.0,0.0,0.0,0.0,0.0,0.0,0.0,0.0,0.0,0.0,0.0,0.0,0.0,0.0,0.0,0.0,0.0,0.0,0.0,0.0,0.0,0.0,0.0,0.0,0.0,0.0,0.0,0.0,0.0,0.0,0.0,0.0,0.0,0.0,0.0,0.0,0.0,0.0,0.0,0.0,0.0,0.7356,0.5305,0.0,0.0,0.0,0.0,0.0,0.0,0.0,0.0,0.0,0.0,0.0,0.0,0.0,0.4923,0.4925,0.5003,0.5148,0.5426,0.5384,0.5389,0.5389,0.5407,0.5385,0.5373,0.5421,0.0,0.5364,0.5063,0.0,0.0,0.0,0.0,0.0,0.0,0.0,0.0,0.0,0.0,0.0,0.0,0.0,0.0,0.0,0.0,0.0,0.0,0.0,0.0,0.0,0.4505,0.4575,0.517,0.5114,0.4436,0.3068,0.2026,0.0,0.0,0.0,0.0,0.0,0.1951,0.3991,0.6116,0.5633,0.5399,0.5406,0.5395,0.5414,0.5439,0.6997,0.7323,0.6671,0.5138,0.0,0.0,0.0,0.0,0.0,0.0,0.0,0.0,0.0,0.0,0.0,0.0,0.0,0.0,0.0,0.0,0.0,0.0,0.0,0.0,0.0,0.0,0.0,0.0,0.0,0.0,0.0,0.0,0.0,0.0,0.0,0.0,0.0,0.0,0.0,0.0,0.0,0.0,0.0,0.8839,0.9438,0.8391,0.8291,0.7013,0.0,0.0,0.0,0.0,0.0,0.0,0.0,0.0,0.0,0.4588,0.5113,0.5411,0.5389,0.5398,0.5392,0.5399,0.5406,0.5395,0.5395,0.5395,0.5395,0.5395,0.5395,0.5389,0.5375,0.5405,0.4796,0.3751,0.0,0.0,0.0,0.0,0.2827,0.3519,0.0,0.0,0.0,0.0,0.0,0.0,0.0,0.0,0.0,0.0,0.0,0.0,0.485,0.4711,0.492,0.5851,0.6066,0.5574,0.415,0.3281,0.2125,0.053,0.0307,0.0374,0.0681,0.3722,0.5346,0.5416,0.5395,0.5382,0.5428,0.5428,0.5408,0.5377,0.5377,0.6561,0.8495,0.7225,0.5456,0.3336,0.0,0.0,0.0,0.0,0.0,0.0,0.0,0.0,0.0,0.0,0.0,0.0,0.0,0.0,0.0,0.0,0.0,0.0,0.0,0.0,0.0,0.0,0.0,0.0,0.0,0.0,0.0,0.0,0.0,0.0,0.0,0.0,0.0,0.0,0.0,0.0,0.0,0.9502,0.99,1.0516,0.9778,0.7964,0.0,0.0,0.0,0.0,0.0,0.0,0.4038,0.4915,0.54,0.5401,0.5395,0.5396,0.5416,0.5424,0.5501,0.5644,0.5603,0.5653,0.5653,0.5653,0.5653,0.5653,0.5653,0.5656,0.5613,0.549,0.4838,0.4001,0.4069,0.3503,0.267,0.2658,0.3836,0.5282,0.0,0.0,0.0,0.0,0.0,0.0,0.0,0.0,0.0,0.0,0.0,0.3202,0.3974,0.4289,0.4601,0.5102,0.5701,0.5885,0.5602,0.4244,0.2939,0.1758,0.1158,0.1393,0.2538,0.441,0.5378,0.5408,0.5431,0.5411,0.5428,0.5428,0.5425,0.5425,0.5425,0.7272,1.0439,1.0376,0.7722,0.3437,0.159,0.0,0.0,0.0,0.0,0.0,0.0,0.0,0.0,0.0,0.0,0.0,0.0,0.0,0.0,0.0,0.0,0.0,0.0,0.0,0.0,0.0,0.0,0.0,0.0,0.0,0.0,0.0,0.0,0.0,0.0,0.0,0.0,0.0,0.0,0.0,0.0,0.0,0.0,1.0344,0.7612,0.0,0.0,0.0,0.0,0.5149,0.5264,0.5287,0.5311,0.5363,0.5395,0.5373,0.5403,0.5421,0.5434,0.5429,0.5714,0.6237,0.6244,0.6248,0.6248,0.6248,0.6248,0.6248,0.6248,0.6259,0.6201,0.5616,0.3391,0.0592,0.4022,0.3179,0.0182,0.0194,0.2386,0.4909,0.0,0.0,0.0,0.1964,0.1845,0.1803,0.1803,0.2275,0.2654,0.2707,0.3229,0.3966,0.4883,0.4974,0.5376,0.6277,0.6764,0.661,0.5795,0.576,0.494,0.3154,0.2059,0.1874,0.2667,0.4495,0.5381,0.5371,0.5411,0.5428,0.5428,0.5428,0.5428,0.5428,0.5428,0.6106,0.7272,0.7255,0.6299,0.4631,0.3227,0.2031,0.0,0.0,0.0,0.0,0.0,0.0,0.0,0.0,0.0,0.0,0.0,0.0,0.0,0.0,0.0,0.0,0.0,0.0,0.0,0.0,0.0,0.0,0.0,0.0,0.0,0.0,0.0,0.0,0.0,0.0,0.0,0.0,0.0,0.0,0.0,0.0,0.0,1.0501,0.6809,0.0,0.8982,0.6545,0.4922,0.5345,0.5384,0.5406,0.5401,0.5418,0.5373,0.5421,0.5406,0.558,0.5944,0.595,0.6099,0.6327,0.6282,0.6328,0.6328,0.6328,0.6328,0.6328,0.6328,0.6335,0.6266,0.6098,0.5252,0.4169,0.548,0.3502,0.0,0.0,0.0848,0.1775,0.0,0.0,0.0,0.1967,0.1848,0.1803,0.1803,0.2329,0.2762,0.281,0.344,0.4155,0.4979,0.5144,0.551,0.6345,0.6865,0.675,0.5927,0.6326,0.583,0.4078,0.2796,0.2474,0.328,0.4056,0.4809,0.5428,0.5428,0.5428,0.5428,0.5428,0.5428,0.5428,0.5428,0.5428,0.5394,0.5384,0.5144,0.4743,0.3922,0.3116,0.231,0.0,0.0,0.0,0.0,0.0,0.0,0.0,0.0,0.0,0.0,0.0,0.0,0.0,0.0,0.0,0.0,0.0,0.0,0.0,0.0,0.0,0.0,0.0,0.0,0.0,0.0,0.0,0.0,0.0,0.0,0.0,0.0,0.0,0.0,0.0,1.0599,1.06,0.7829,0.7188,1.0297,0.7459,0.5384,0.5387,0.5432,0.5413,0.5372,0.5564,0.5705,0.5724,0.5702,0.5878,0.6328,0.6264,0.6266,0.6266,0.629,0.6338,0.6338,0.6338,0.6338,0.6338,0.6338,0.6264,0.6268,0.6268,0.6318,0.6159,0.4723,0.2463,0.0,0.0,0.0,0.0,0.0,0.0,0.211,0.1858,0.1803,0.1803,0.1803,0.194,0.2204,0.2654,0.3252,0.3758,0.4153,0.4599,0.4982,0.5125,0.5891,0.6253,0.6005,0.5822,0.5321,0.4406,0.3333,0.33,0.4463,0.34,0.3615,0.5428,0.5428,0.5428,0.5428,0.5428,0.5428,0.5428,0.5428,0.5428,0.5397,0.5385,0.4697,0.3642,0.363,0.3618,0.3482,0.0,0.0,0.0,0.0,0.0,0.0,0.0,0.0,0.0,0.0,0.0,0.0,0.0,0.0,0.0,0.0,0.0,0.0,0.0,0.0,0.0,0.0,0.0,0.0,0.0,0.0,0.0,0.0,0.0,0.0,0.0,0.0,0.0,1.0606,1.06,1.0576,1.061,1.0609,1.0528,1.0423,0.7385,0.5384,0.5432,0.5372,0.5385,0.5461,0.5955,0.6331,0.6334,0.6264,0.6271,0.6271,0.6266,0.6338,0.6338,0.6338,0.6338,0.6338,0.6338,0.6338,0.6338,0.6338,0.6268,0.6278,0.6278,0.6285,0.5895,0.1793,0.0078,0.0,0.0,0.0,0.0,0.2248,0.2124,0.2011,0.1837,0.1803,0.1869,0.2062,0.242,0.2741,0.2957,0.37,0.4245,0.4409,0.4802,0.5131,0.5284,0.5556,0.557,0.5236,0.4662,0.4119,0.3622,0.4123,0.4552,0.473,0.4659,0.4903,0.5428,0.5428,0.5428,0.5428,0.5428,0.5428,0.5428,0.5428,0.5428,0.5404,0.5384,0.498,0.4255,0.4254,0.3971,0.3545,0.0,0.0,0.0,0.0,0.0,0.0,0.0,0.0,0.0,0.0,0.0,0.0,0.0,0.0,0.0,0.0,0.0,0.0,0.0,0.0,0.0,0.0,0.0,0.0,0.0,0.0,0.0,0.0,0.0,0.0,0.0,0.0,1.0595,1.0606,1.061,1.0581,1.0602,1.0618,0.96,0.7058,0.5943,0.5406,0.5381,0.5374,0.5571,0.6054,0.6173,0.6325,0.6287,0.6332,0.6276,0.6276,0.6318,0.6338,0.6338,0.6338,0.6338,0.6338,0.6338,0.6338,0.6338,0.6338,0.6264,0.6268,0.6268,0.6274,0.6203,0.5015,0.2657,0.0,0.0,0.0,0.0,0.2238,0.209,0.1985,0.1964,0.1978,0.2066,0.2372,0.2785,0.3198,0.3519,0.4429,0.5201,0.5495,0.5681,0.5837,0.5935,0.5943,0.5619,0.4814,0.4141,0.3856,0.3949,0.4552,0.4931,0.5038,0.5274,0.5428,0.5428,0.5428,0.5428,0.5428,0.5428,0.5428,0.5428,0.5428,0.5428,0.5408,0.5432,0.5046,0.4505,0.4511,0.4281,0.3932,0.37,0.3394,0.307,0.3064,0.3264,0.369,0.4628,0.0,0.0,0.0,0.0,0.0,0.0,0.0,0.0,0.0,0.0,0.0,0.0,0.0,0.0,0.0,0.0,0.0,0.0,0.0,0.0,0.0,0.0,0.0,0.0,1.059,1.0601,1.0623,1.0588,1.0624,1.0624,1.0597,0.9226,0.5734,0.5396,0.5513,0.5744,0.5813,0.5935,0.6257,0.6324,0.6325,0.6335,0.6338,0.6338,0.6338,0.6338,0.6338,0.6338,0.6338,0.6338,0.6338,0.6338,0.6338,0.0,0.6338,0.6338,0.6338,0.6338,0.6264,0.0,0.0,0.0,0.0,0.0,0.0,0.0,0.2294,0.2139,0.2081,0.2227,0.2259,0.2367,0.2697,0.3058,0.354,0.4222,0.5191,0.6061,0.6756,0.675,0.6633,0.6588,0.6741,0.6258,0.4829,0.424,0.4212,0.4863,0.469,0.4829,0.5418,0.5428,0.5428,0.5428,0.5428,0.5428,0.5428,0.5428,0.5428,0.5428,0.5428,0.5428,0.5408,0.5432,0.5046,0.4521,0.4525,0.4513,0.4427,0.3833,0.3578,0.3621,0.3585,0.359,0.3939,0.6233,0.0,0.0,0.0,0.0,0.0,0.0,0.0,0.0,0.0,0.0,0.0,0.0,0.0,0.0,0.0,0.0,0.0,0.0,0.0,0.0,0.0,0.0,0.0,0.0,1.0587,1.0624,1.0624,1.0658,1.0749,1.0755,1.0684,0.9228,0.5755,0.5438,0.5694,0.6262,0.6275,0.6289,0.6289,0.0,0.0,0.0,0.0,0.6338,0.6338,0.6338,0.6338,0.6338,0.6338,0.6338,0.6338,0.6338,0.6338,0.6338,0.6338,0.6338,0.6338,0.6338,0.6338,0.6264,0.5805,0.5587,0.5123,0.1413,0.0,0.0,0.2589,0.2444,0.2391,0.2562,0.2611,0.2697,0.2982,0.3186,0.3683,0.4795,0.4809,0.5107,0.6078,0.6344,0.6245,0.5675,0.7127,0.7474,0.61,0.5214,0.4711,0.4735,0.5053,0.5274,0.5425,0.5428,0.5428,0.5428,0.5428,0.5428,0.5428,0.5428,0.5428,0.5428,0.5428,0.5428,0.5408,0.5432,0.505,0.453,0.4472,0.4523,0.4455,0.385,0.3595,0.3589,0.3597,0.3588,0.3937,0.6246,0.7168,0.7986,1.1746,1.2374,0.0,0.0,0.0,0.0,0.0,0.0,0.0,0.0,0.0,0.0,0.0,0.0,0.0,0.0,0.0,0.0,0.0,0.0,0.0,1.0502,1.0587,1.0624,1.0624,1.0975,1.1428,1.1884,1.1149,0.9203,0.5766,0.5823,0.6184,0.6289,0.6287,0.6294,0.6294,0.6321,0.6338,0.6338,0.6338,0.6338,0.6338,0.6338,0.6338,0.6338,0.0,0.0,0.6338,0.6338,0.6338,0.6338,0.6338,0.6338,0.6338,0.6338,0.6268,0.5954,0.2568,0.1245,0.1092,0.0313,0.0,0.0,0.2772,0.2477,0.2247,0.2426,0.2459,0.2546,0.2853,0.3132,0.3628,0.4515,0.4904,0.5316,0.6026,0.6085,0.5873,0.5377,0.5852,0.6239,0.628,0.5374,0.487,0.502,0.5305,0.5428,0.5428,0.5428,0.5428,0.5428,0.5428,0.5428,0.5428,0.5428,0.5428,0.5428,0.5428,0.5428,0.5408,0.5377,0.5057,0.4473,0.4482,0.4484,0.4452,0.4161,0.3875,0.3591,0.3615,0.3601,0.3965,0.6239,0.7396,0.8364,1.1037,1.1533,1.0964,0.0,0.0,0.0,0.0,0.0,0.0,0.0,0.0,0.0,0.0,0.0,0.0,0.0,0.0,0.8779,0.0,0.0,1.0576,1.0572,1.0627,1.0626,1.0626,1.0804,1.1102,1.1382,1.1472,1.0003,0.6248,0.6099,0.6296,0.6298,0.6294,0.6338,0.6338,0.6338,0.6338,0.6338,0.6338,0.6338,0.6338,0.6338,0.6338,0.6338,0.6338,0.6338,0.6338,0.6338,0.6338,0.6338,0.6338,0.6338,0.6338,0.6338,0.6264,0.6109,0.3973,0.3115,0.289,0.0782,0.0,0.0,0.2747,0.2379,0.2104,0.2304,0.2307,0.2394,0.2654,0.3022,0.3493,0.4121,0.4824,0.545,0.585,0.576,0.5616,0.5651,0.468,0.4717,0.6229,0.5404,0.4982,0.5411,0.5428,0.5428,0.5428,0.5428,0.5428,0.5428,0.5428,0.5428,0.5428,0.5428,0.5428,0.5428,0.5428,0.5411,0.5367,0.5428,0.5043,0.4436,0.3889,0.3965,0.4505,0.4492,0.4108,0.3614,0.3611,0.3671,0.4153,0.6553,0.7991,0.8976,1.0067,1.0116,0.9845,1.0409,1.027,0.0,0.0,0.0,0.0,0.0,0.0,0.0,0.0,0.0,1.0595,1.0598,1.0577,1.0322,0.933,0.9973,1.0581,1.0595,1.0614,1.0705,1.0916,1.0802,1.0692,1.0634,1.1444,1.0754,0.7742,0.6738,0.6284,0.6328,0.6338,0.6338,0.6338,0.6338,0.6338,0.6338,0.6338,0.6338,0.6338,0.6338,0.6338,0.6338,0.6338,0.6338,0.6338,0.6338,0.6338,0.6338,0.6338,0.6338,0.6338,0.6338,0.6338,0.6338,0.6338,0.6274,0.5892,0.2503,0.0939,0.0626,0.2345,0.2235,0.2324,0.2748,0.2722,0.2654,0.2697,0.2936,0.3393,0.4087,0.3997,0.4086,0.4801,0.4941,0.5533,0.6773,0.539,0.5061,0.656,0.5792,0.5373,0.5425,0.5428,0.5428,0.5428,0.5428,0.5428,0.5428,0.5428,0.5428,0.5428,0.5428,0.5428,0.5428,0.5428,0.5418,0.541,0.5373,0.5037,0.4238,0.1574,0.2106,0.4515,0.4506,0.4128,0.3579,0.3622,0.3936,0.4805,0.7641,0.8677,0.8847,0.898,0.9739,1.0704,1.1428,1.1253,1.0813,1.0701,1.0041,0.9541,1.0086,0.8834,0.7895,0.0,0.0,1.0607,1.0616,1.0573,1.0546,1.0448,1.0488,1.0601,1.0601,1.06,1.0936,1.1969,1.1637,1.112,1.0628,1.0737,1.1004,1.1552,0.8417,0.6321,0.6335,0.6338,0.6338,0.6338,0.6338,0.6338,0.6338,0.6338,0.6338,0.6338,0.6338,0.6338,0.6338,0.6338,0.6338,0.6338,0.6338,0.6338,0.6338,0.6338,0.6338,0.6338,0.6338,0.6338,0.6338,0.6338,0.6264,0.6264,0.5799,0.438,0.2733,0.252,0.2425,0.2431,0.2641,0.2388,0.2176,0.2176,0.2329,0.2633,0.3138,0.3138,0.3193,0.3515,0.3428,0.3699,0.4591,0.4306,0.447,0.5343,0.5382,0.5428,0.5428,0.5428,0.5428,0.5428,0.5428,0.5428,0.5428,0.5428,0.5428,0.5428,0.5428,0.5428,0.5425,0.5401,0.5389,0.5378,0.5015,0.4703,0.4394,0.3102,0.3395,0.4519,0.4474,0.4338,0.416,0.452,0.4824,0.0,0.7952,0.9037,0.9337,0.9569,1.0104,1.0785,1.1578,1.1755,1.1818,1.2289,1.2212,1.2163,1.2896,1.2613,1.1894,1.0879,1.1092,1.1353,1.0719,1.0613,1.0624,1.0624,1.0617,1.0627,0.0,1.0596,1.0767,1.1268,1.169,1.1807,1.1601,1.1582,1.0836,0.9018,0.7257,0.6338,0.6338,0.6338,0.6338,0.6338,0.6338,0.6338,0.6338,0.6338,0.6338,0.6338,0.6338,0.6338,0.6338,0.6338,0.6338,0.6338,0.6338,0.6338,0.6338,0.6338,0.6338,0.6338,0.6338,0.6338,0.6338,0.6338,0.6338,0.6264,0.6274,0.5721,0.4932,0.2658,0.2558,0.2469,0.2431,0.2115,0.1845,0.1845,0.1903,0.2038,0.2324,0.2458,0.2496,0.2496,0.2266,0.2264,0.2744,0.3327,0.3877,0.4372,0.4965,0.5318,0.5425,0.5428,0.5428,0.5428,0.5428,0.5428,0.5428,0.5428,0.5428,0.5428,0.5428,0.5404,0.5425,0.5378,0.528,0.5123,0.467,0.45,0.4512,0.4518,0.4508,0.4515,0.451,0.4516,0.4595,0.5209,0.5383,0.5757,0.8019,0.8976,0.934,1.0014,1.0236,1.0463,1.1622,1.2258,1.2695,1.3193,1.3501,1.3782,1.4356,1.4919,1.4639,1.1898,1.1498,1.1525,1.0766,1.0624,1.0581,1.0591,1.0627,1.0599,1.06,1.088,1.1093,1.1084,1.176,1.2305,1.2305,1.2322,1.0714,0.6718,0.6304,0.6338,0.6338,0.6338,0.6338,0.6338,0.6338,0.6338,0.6338,0.6338,0.6338,0.6338,0.6338,0.6338,0.6338,0.6338,0.6338,0.6338,0.6338,0.6338,0.6338,0.6338,0.6338,0.6338,0.6338,0.6362,0.64,0.6478,0.6478,0.64,0.6407,0.6386,0.6281,0.252,0.2516,0.2438,0.2241,0.2083,0.2004,0.2004,0.1882,0.1845,0.2004,0.2028,0.2032,0.2032,0.1889,0.2002,0.2458,0.3015,0.3571,0.4164,0.475,0.5206,0.5422,0.5428,0.5428,0.5428,0.5428,0.5428,0.5428,0.5428,0.5428,0.5428,0.5428,0.5415,0.5399,0.5396,0.5098,0.4523,0.4513,0.4488,0.4525,0.4519,0.4494,0.4474,0.4523,0.4521,0.4572,0.5188,0.5384,0.5742,0.8018,0.843,0.8223,0.9862,0.9843,0.9669,1.1843,1.2945,1.3389,1.3008,1.3203,1.3623,1.4023,1.478,1.4943,1.3304,1.1721,1.065,1.0598,1.0624,1.0571,1.0627,1.0613,1.0575,1.0566,1.1533,1.2285,1.2245,1.2291,1.2305,1.2305,1.2322,1.0691,0.0,0.6283,0.6338,0.6338,0.6338,0.6338,0.6338,0.6338,0.6338,0.6338,0.6338,0.6338,0.6338,0.6338,0.6338,0.6338,0.6338,0.6338,0.6338,0.6338,0.6338,0.6338,0.6338,0.6338,0.6338,0.6338,0.6424,0.6711,0.6962,0.6878,0.6628,0.6631,0.6458,0.6281,0.2647,0.2637,0.262,0.254,0.2298,0.2134,0.2134,0.1943,0.1823,0.1852,0.1859,0.0,0.0,0.0,0.0,0.0,0.2768,0.331,0.3904,0.4504,0.4948,0.5199,0.5308,0.5428,0.5428,0.5428,0.5428,0.5428,0.5428,0.5428,0.5425,0.539,0.5378,0.5385,0.4989,0.4664,0.4503,0.4522,0.4507,0.4508,0.4523,0.4499,0.4476,0.4061,0.3887,0.4048,0.0,0.5343,0.5449,0.6209,0.6428,0.6666,0.8234,0.9101,0.9796,1.1056,1.2214,1.3125,1.3262,1.3603,1.4092,1.4805,1.5186,1.5058,1.3819,1.2821,1.1889,1.0809,1.0571,1.0581,1.06,1.1228,1.172,1.1753,1.2031,1.2278,1.2291,1.2305,1.2305,1.2305,1.2337,0.0,0.0,0.0,0.0,0.6338,0.6338,0.6338,0.6338,0.6338,0.6338,0.6338,0.6338,0.6338,0.6338,0.6338,0.6338,0.6338,0.6338,0.6338,0.6338,0.6338,0.6471,0.681,0.681,0.6621,0.6303,0.6468,0.6749,0.6962,0.6876,0.6795,0.6709,0.6706,0.6593,0.6542,0.2712,0.2712,0.2712,0.2712,0.2435,0.0,0.0,0.0,0.0,0.0,0.0,0.0,0.0,0.0,0.0,0.0,0.0,0.2974,0.3517,0.4016,0.4473,0.4874,0.5206,0.5374,0.5421,0.5381,0.5407,0.5382,0.5382,0.5375,0.5411,0.5375,0.5269,0.5092,0.4654,0.4515,0.4472,0.4484,0.4494,0.4524,0.4481,0.4355,0.4256,0.5139,0.5976,0.0,0.5164,0.4643,0.4649,0.4665,0.5026,0.5826,0.7712,0.9143,1.026,1.0968,1.1855,1.2803,1.3535,1.3801,1.4198,1.5138,1.541,1.5235,1.4538,1.4141,1.3239,1.1024,1.0604,1.0712,1.1101,1.184,1.2296,1.2297,1.2331,1.2289,1.2289,1.2289,1.233,1.2311,1.2304,1.0738,0.0,0.0,0.0,0.6335,0.6338,0.6338,0.6338,0.6338,0.6338,0.6338,0.6338,0.6338,0.6338,0.6338,0.6362,0.6417,0.6417,0.6445,0.6417,0.6417,0.6631,0.6972,0.6972,0.6777,0.6529,0.6698,0.6819,0.7042,0.6954,0.6867,0.6867,0.6783,0.678,0.6766,0.2712,0.2712,0.2712,0.0,0.0,0.0,0.0,0.0,0.0,0.0,0.0,0.0,0.0,0.0,0.0,0.0,0.0,0.0,0.3056,0.3375,0.3852,0.4446,0.5047,0.5385,0.5399,0.5318,0.5246,0.5266,0.5327,0.537,0.542,0.535,0.5064,0.449,0.4484,0.4501,0.4516,0.4494,0.4458,0.4488,0.4555,0.4282,0.4104,0.7319,0.9898,1.1128,0.5502,0.3535,0.3599,0.3782,0.4603,0.5919,0.8316,0.9884,1.0919,1.1397,1.1863,1.2493,1.3685,1.3897,1.4045,1.5138,1.541,1.54,1.5379,1.5381,1.4505,1.127,1.0678,1.0996,0.0,0.0,1.2319,1.2267,1.2348,1.2374,1.2292,1.2292,1.2277,0.0,0.0,0.0,0.0,0.0,0.0,0.6412,0.0,0.6338,0.6338,0.6338,0.6338,0.6338,0.6338,0.6338,0.6338,0.6345,0.6417,0.6635,0.6645,0.6725,0.6702,0.6702,0.6705,0.6712,0.6798,0.6802,0.6809,0.6809,0.681,0.6939,0.7028,0.7028,0.6939,0.6939,0.6939,0.6939,0.0,0.0,0.0,0.0,0.0,0.0,0.0,0.0,0.0,0.0,0.0,0.0,0.0,0.0,0.0,0.0,0.0,0.0,0.2634,0.3097,0.3593,0.4023,0.4922,0.5408,0.5404,0.4072,0.3366,0.3369,0.4754,0.5428,0.5404,0.493,0.4659,0.4523,0.4512,0.4521,0.4448,0.4012,0.4069,0.4558,0.5465,0.5967,0.6042,0.5171,0.5228,0.5539,0.404,0.4019,0.5094,0.7693,0.8499,0.8617,0.9717,0.9935,0.9974,1.0533,1.1672,1.2784,1.3127,1.4088,1.506,1.5352,1.541,1.542,1.541,1.5415,1.4472,1.1274,1.1271,1.1707,0.0,0.0,0.0,1.2334,1.3057,0.0,1.2418,1.233,0.0,1.2311,0.0,1.188,1.0893,0.9381,0.0,0.0,0.688,0.6338,0.6338,0.6338,0.6338,0.6338,0.6338,0.6338,0.6338,0.6366,0.6437,0.6555,0.6671,0.6747,0.6785,0.6957,0.7021,0.696,0.7045,0.7022,0.7027,0.7027,0.7051,0.7085,0.7085,0.7085,0.7085,0.7085,0.7085,0.7085,0.0,0.0,0.0,0.0,0.0,0.0,0.0,0.0,0.0,0.0,0.0,0.0,0.0,0.0,0.0,0.0,0.0,0.0,0.0,0.2605,0.2993,0.3488,0.3944,0.4446,0.498,0.3486,0.2705,0.2709,0.3975,0.4632,0.4591,0.4274,0.4113,0.4087,0.4085,0.4099,0.4081,0.3732,0.3781,0.0,0.0,0.5233,0.5323,0.4004,0.3492,0.35,0.3504,0.4181,0.5743,1.0001,1.0992,1.028,0.9558,0.9549,0.9945,1.0308,1.1589,1.305,1.383,1.4677,1.541,1.541,1.541,1.54,1.5399,1.5417,1.4466,1.1249,1.0297,0.9781,0.913,0.9566,0.0,0.0,0.0,0.0,1.241,1.2322,1.2282,0.0,1.2305,0.0,1.1515,1.0375,0.9461,0.0,0.7795,0.6957,0.6338,0.6338,0.6338,0.6338,0.6338,0.6291,0.6352,0.643,0.6539,0.6671,0.6692,0.6853,0.6895,0.7069,0.7118,0.7111,0.0,0.7068,0.7139,0.7139,0.7139,0.7139,0.7139,0.7139,0.7139,0.7139,0.7139,0.7139,0.0,0.0,0.0,0.0,0.0,0.0,0.0,0.0,0.0,0.2031,0.2266,0.0,0.0,0.0,0.0,0.0,0.0,0.0,0.0,0.0,0.2264,0.274,0.2581,0.2972,0.4045,0.3054,0.2542,0.2594,0.3199,0.3455,0.3341,0.3358,0.3353,0.3373,0.3373,0.3372,0.3361,0.3376,0.3452,0.3598,0.3514,0.3487,0.3499,0.0,0.3507,0.3524,0.3667,0.4597,0.6499,1.1276,1.2399,1.1427,0.9377,0.9516,1.0426,1.0409,1.1739,1.357,1.5003,1.541,1.541,1.541,1.541,1.5417,1.5375,1.5039,1.3828,1.0748,0.8456,0.6998,0.6986,0.7136,0.8343,1.1776,0.0,1.2332,1.2322,1.2335,1.2326,1.2325,1.2305,1.1835,1.0679,1.0599,1.0237,0.9518,0.8932,0.8025,0.6567,0.649,0.6412,0.6338,0.6338,0.6322,0.6441,0.6464,0.6607,0.6868,0.6773,0.6865,0.7112,0.7132,0.7139,0.7139,0.0,0.0,0.7139,0.7139,0.7139,0.7139,0.7139,0.7139,0.7139,0.7139,0.7139,0.7139,0.0,0.0,0.0,0.0,0.0,0.0,0.0,0.0,0.0,0.0,0.2226,0.2281,0.0,0.0,0.0,0.0,0.0,0.0,0.0,0.0,0.0,0.1592,0.1343,0.141,0.1837,0.1648,0.1675,0.195,0.257,0.2614,0.2112,0.212,0.211,0.2115,0.2115,0.2102,0.2111,0.2097,0.2652,0.3501,0.3503,0.3493,0.3495,0.3491,0.0,0.0,0.4506,0.6798,0.9767,1.213,1.2801,1.2716,1.2927,1.1872,1.0594,1.0573,1.2647,1.5012,1.5342,1.541,1.541,1.541,1.541,1.5417,1.5375,1.3232,1.0493,0.8112,0.7304,0.7025,0.6986,0.7803,0.9336,1.1866,1.2284,1.231,1.2311,1.2297,1.2277,0.0,1.2305,1.2224,1.199,1.1916,0.0,0.0,0.0,0.9513,0.7629,0.7557,0.7176,0.6338,0.6338,0.6274,0.6298,0.6413,0.6498,0.6556,0.678,0.6915,0.697,0.7088,0.7139,0.7139,0.7139,0.0,0.7139,0.7139,0.7139,0.7139,0.7139,0.7139,0.7139,0.7139,0.7139,0.7139,0.0,0.0,0.0,0.0,0.0,0.0,0.0,0.2682,0.2879,0.2921,0.376,0.3898,0.2674,0.2494,0.2439,0.0,0.0,0.0,0.0,0.0,0.0,0.1576,0.1127,0.0955,0.1079,0.1089,0.118,0.1323,0.0,0.1777,0.1797,0.1813,0.1813,0.1813,0.243,0.2683,0.2675,0.269,0.3005,0.3507,0.3489,0.3495,0.3498,0.3509,0.0,0.0,0.7301,0.8882,1.0429,1.1286,1.2718,1.4267,1.4625,1.3977,1.3076,1.3109,1.4196,1.54,1.5371,1.541,1.541,1.541,1.541,1.5385,1.5415,1.2739,0.9683,0.7466,0.6999,0.6985,0.7004,0.7477,0.8495,1.0474,1.1119,1.1506,1.1784,1.2111,1.2305,1.2305,1.2305,1.2305,0.0,1.2305,0.0,0.0,0.0,1.072,0.8689,0.8618,0.7859,0.6338,0.6872,0.6913,0.6369,0.6437,0.6512,0.6593,0.6739,0.6851,0.6932,0.7075,0.7139,0.7139,0.7139,0.0,0.7139,0.7139,0.7139,0.7139,0.7139,0.7139,0.7139,0.7139,0.7139,0.7139,0.0,0.0,0.0,0.0,0.0,0.0,0.0,0.2822,0.3202,0.4071,0.5212,0.5073,0.2921,0.2584,0.2373,0.0,0.0,0.0,0.0,0.0,0.0,0.0,0.0,0.0,0.0,0.0,0.0,0.0,0.087,0.0,0.0,0.0,0.0,0.0,0.2726,0.3128,0.3144,0.313,0.3282,0.0,0.0,0.3511,0.0,0.0,0.0,0.0,0.0,1.0638,1.0356,1.0738,1.2378,1.4457,1.5147,1.5418,1.541,1.541,1.541,1.541,1.541,1.541,1.541,1.541,1.5381,1.5412,1.5426,1.2442,0.9267,0.7521,0.6873,0.672,0.7029,0.7033,0.7524,0.9109,0.992,1.0679,1.1374,1.1917,1.2231,0.0,1.2305,0.0,1.2305,1.2305,0.0,0.0,0.0,0.0,0.975,0.9448,0.8637,0.7076,0.7663,0.7668,0.6918,0.668,0.658,0.6702,0.6732,0.6814,0.6932,0.7075,0.7139,0.7139,0.7139,0.0,0.0,0.7139,0.7139,0.7139,0.7139,0.7139,0.7139,0.7139,0.7139,0.7139,0.0,0.0,0.0,0.0,0.0,0.0,0.0,0.3158,0.4134,0.5845,0.5248,0.4164,0.2844,0.2225,0.187,0.0,0.0,0.0,0.0,0.0,0.0,0.0,0.0,0.0,0.0,0.0,0.0,0.0,0.0,0.0,0.0,0.0,0.0,0.0,0.0,0.0,0.1948,0.1959,0.0,0.0,0.0,0.0,0.0,0.0,0.0,0.0,0.0,1.1812,1.0542,1.2138,1.1814,1.1314,1.4437,1.5391,1.541,1.541,1.541,1.541,1.541,1.541,1.541,1.541,1.541,1.5389,1.5408,1.1513,0.7874,0.7656,0.646,0.583,0.7049,0.712,0.7477,0.8971,0.9539,1.0274,1.1637,1.1877,1.2004,1.2271,0.0,0.0,1.2305,0.0,0.0,0.0,0.0,0.0,1.0726,0.982,0.9316,0.9355,0.851,0.8045,0.8212,0.7166,0.6685,0.6702,0.6841,0.6915,0.6932,0.7075,0.7139,0.7139,0.7139,0.0,0.0,0.7139,0.7139,0.7139,0.7139,0.7139,0.7139,0.7139,0.7139,0.7139,0.0,0.0,0.0,0.0,0.0,0.0,0.2767,0.4409,0.5859,0.6256,0.5586,0.4998,0.4893,0.334,0.2263,0.1992,0.0,0.0,0.0,0.0,0.0,0.0,0.0,0.0,0.0,0.0,0.0,0.1243,0.0,0.0,0.0,0.0,0.0,0.0,0.0,0.0,0.1789,0.18,0.0,0.0,0.0,0.0,0.0,0.0,0.0,0.0,0.0,0.0,1.2159,1.2862,1.253,1.2099,1.347,1.3921,1.4082,1.5081,1.5379,1.541,1.541,1.541,1.541,1.541,1.3835,1.2344,1.2327,1.0334,0.835,0.7793,0.7142,0.6757,0.7204,0.7054,0.7153,0.8031,0.843,0.8958,0.9893,1.0635,1.1189,1.1483,1.183,0.0,0.0,0.0,0.0,0.0,0.0,0.0,1.203,1.1812,1.1161,1.0062,1.0141,1.0023,0.9461,0.8324,0.7753,0.7757,0.719,0.6929,0.6932,0.7075,0.7139,0.7139,0.7139,0.0,0.0,0.7139,0.7139,0.7139,0.7139,0.7139,0.7139,0.7139,0.7139,0.7139,0.0,0.0,0.0,0.0,0.0,0.2707,0.269,0.4606,0.5951,0.5542,0.5473,0.5601,0.6224,0.4155,0.2468,0.1907,0.1833,0.0,0.0,0.0,0.0,0.0,0.0,0.0,0.0,0.0,0.101,0.1805,0.1444,0.1275,0.0,0.0,0.0,0.0,0.0,0.0,0.0,0.0,0.0,0.0,0.0,0.0,0.0,0.0,0.0,0.0,0.0,0.0,0.0,0.0,0.0,1.2977,1.2987,1.2599,1.2546,1.4754,1.5415,1.5408,1.5381,1.541,1.541,1.541,1.3226,1.0926,1.0442,0.9542,0.8726,0.8087,0.7654,0.7408,0.755,0.7145,0.703,0.7746,0.7875,0.8174,0.9078,0.9907,1.0568,1.0949,0.0,1.1527,0.0,0.0,0.0,0.0,0.0,0.0,0.0,1.2801,1.2264,1.0789,1.1358,1.1154,0.9824,0.8989,0.8405,0.7987,0.7275,0.699,0.6993,0.7095,0.7139,0.7139,0.0,0.0,0.0,0.7095,0.7102,0.7136,0.7095,0.7102,0.7139,0.7139,0.7139,0.7139,0.0,0.0,0.0,0.0,0.0,0.0,0.2716,0.3218,0.3652,0.366,0.4653,0.5636,0.623,0.4161,0.234,0.1381,0.161,0.0,0.0,0.0,0.0,0.0,0.0,0.0,0.0,0.0,0.0602,0.179,0.0592,0.0027,0.005,0.1245,0.0,0.0,0.0,0.0,0.0,0.0,0.0,0.0,0.0,0.0,0.0,0.0,0.0,0.0,0.0,0.0,0.0,0.0,0.0,0.0,0.0,1.187,1.1003,1.4408,1.5413,1.5405,1.538,1.541,1.541,1.541,1.4129,1.2404,1.0714,0.9407,0.8613,0.8588,0.7812,0.7341,0.805,0.7443,0.7218,0.8481,0.8247,0.8393,0.99,1.0114,1.0341,0.0,0.0,1.0459,0.0,0.0,0.0,0.0,0.0,0.0,0.0,1.2181,1.2204,1.1869,1.1857,1.0974,0.8969,0.8886,0.8273,0.7136,0.7136,0.7139,0.7139,0.7139,0.7139,0.0,0.0,0.0,0.0,0.699,0.7014,0.7126,0.6987,0.7017,0.7139,0.7139,0.7139,0.7139,0.0,0.0,0.0,0.0,0.0,0.0,0.0,0.1825,0.1133,0.1138,0.1483,0.1804,0.1964,0.1317,0.0985,0.1282,0.1218,0.0,0.0,0.0,0.0,0.0,0.0,0.0,0.0,0.01,0.019,0.058,0.0193,0.0,0.0,0.04,0.1001,0.1807,0.1796,0.0,0.0,0.0,0.0,0.0,0.0,0.0,0.0,0.0,0.0,0.0,0.0,0.0,0.0,0.0,0.0,0.0,0.0,0.0,0.0,1.1994,1.4973,1.7709,1.457,1.3681,1.3714,1.3698,1.2419,1.0871,0.9916,0.9257,0.8779,0.8521,0.7942,0.7551,0.7703,0.7334,0.7566,0.925,0.8693,0.8554,0.9953,1.0314,0.0,1.0394,1.1083,1.1729,0.0,0.0,0.0,0.0,0.0,0.0,0.0,1.1426,1.1091,1.1017,1.1017,1.0711,1.0091,0.9323,0.8715,0.8277,0.7389,0.6997,0.6997,0.6997,0.0,0.0,0.0,0.0,0.0,0.7092,0.7099,0.7136,0.7092,0.7102,0.7139,0.7139,0.7061,0.7074,0.0,0.0,0.0,0.0,0.0,0.0,0.0,0.1317,0.0785,0.009,0.0,0.0,0.0,0.0,0.0233,0.0773,0.024,0.0,0.0,0.0,0.0,0.0,0.0,0.0,0.0,0.0,0.0,0.0,0.0,0.0,0.0,0.0,0.0384,0.1129,0.1117,0.1366,0.0,0.0,0.0,0.0,0.0,0.0,0.8356,0.0,0.0,0.0,0.0,0.0,0.0,0.0,0.0,0.0,0.0,0.0,0.0,0.0,1.4821,1.7589,1.4985,1.362,1.2926,1.292,1.1979,1.0846,1.0123,0.9479,0.8887,0.8499,0.8027,0.7733,0.783,0.7526,0.7657,0.8854,0.8322,0.8187,0.9497,0.991,0.0,1.0117,0.0,0.0,0.0,0.0,0.0,0.0,0.0,0.0,0.0,1.0359,0.9749,0.9314,1.0178,1.0178,0.9309,0.9061,0.8627,0.8189,0.7396,0.7007,0.7007,0.7007,0.0,0.0,0.0,0.0,0.0,0.7082,0.7092,0.7136,0.7082,0.7092,0.7143,0.7061,0.7074,0.6992,0.0,0.0,0.0,0.0,0.0,0.0,0.0,0.1433,0.1895,0.0206,0.0,0.0,0.0,-0.0068,-0.0117,-0.013,0.0,0.0,0.0,0.0,0.0,0.0,0.0,0.0,-0.0138,-0.0211,-0.0224,-0.0179,-0.0045,0.0,0.0,0.0,0.0,0.0,0.0,0.0671,0.0,0.0,0.0,0.0,0.0,0.3766,0.0,0.0,0.0,0.0,0.0,0.0,0.0,0.0,0.0,0.0,0.0,0.0,0.0,0.0,0.0,0.0,0.0,1.4565,1.2973,1.2819,1.2396,1.183,1.0943,0.9814,0.0,0.845,0.8008,0.7832,0.8332,0.7886,0.754,0.7784,0.7509,0.7666,0.8806,0.9152,0.0,0.0,1.0937,0.0,0.0,0.0,0.0,0.0,0.0,0.0,0.0,0.9114,0.8277,0.7139,0.9226,0.9309,0.7139,0.8189,0.8185,0.7126,0.7126,0.7119,0.7109,0.7122,0.0,0.0,0.0,0.0,0.0,0.6987,0.7014,0.7129,0.6983,0.7017,0.7058,0.7078,0.7088,0.6815,0.0,0.0,0.0,0.0,0.0,0.0,0.0,0.0,0.0,0.0,0.0,0.0,0.0,-0.0827,-0.1388,0.0,0.0,0.0,0.0,0.0,0.0,0.0,0.0,0.0,-0.1386,-0.2281,-0.2523,-0.2057,-0.0654,0.0,0.0,0.0,0.0,0.0,0.0,0.0685,0.0,0.0,0.0,0.0,0.3257,0.4112,0.0,0.0,0.0,0.0,0.8688,0.958,0.0,0.0,0.0,0.0,0.0,0.0,0.0,0.0,1.2106,1.1864,1.1791,0.0,1.2462,1.0814,1.0083,0.9625,0.0,0.874,0.8408,0.7969,0.7773,0.7832,0.8332,0.7738,0.7831,0.9744,0.8824,0.8516,1.0329,1.0576,0.0,1.0777,1.1556,0.0,0.0,0.0,0.0,0.0,0.0,0.0,0.0,0.8072,0.7401,0.7139,0.7661,0.7661,0.7139,0.7404,0.7348,0.6976,0.6976,0.6915,0.6807,0.6926,0.0,0.0,0.0,0.0,0.7129,0.6987,0.7021,0.7064,0.6914,0.695,0.7091,0.7094,0.7108,0.7032,0.0,0.0,0.0,0.0,0.0,0.0,0.0,0.0,0.0,0.0,0.0,-0.1243,-0.1243,-0.158,0.0,0.0,0.0,0.0,0.0,0.0,0.0,0.0,0.0,-0.1807,-0.1808,-0.2972,-0.3444,-0.3112,-0.2403,-0.2341,-0.2868,-0.2921,-0.1874,0.0,0.0,0.0363,0.0,0.0,0.0,0.0,0.3489,0.0,0.0,0.0,0.0,0.0,0.8388,0.9186,0.0,1.0592,1.1263,1.1763,0.0,0.0,0.0,0.0,1.1291,1.1051,1.0645,1.1194,1.1611,1.0319,0.9808,0.949,0.8826,0.8548,0.8221,0.7556,0.7432,0.7448,0.751,0.7757,0.8138,0.8665,0.892,0.9524,1.0871,1.0654,1.07,1.1732,1.1359,0.0,0.0,0.0,0.0,0.0,0.0,0.0,0.0,0.7624,0.7139,0.7139,0.7139,0.7139,0.7139,0.7139,0.7102,0.7024,0.7024,0.6983,0.6905,0.699,0.7024,0.0,0.0,0.0,0.7061,0.6991,0.6923,0.6811,0.5744,0.5401,0.5644,0.6748,0.7125,0.677,0.0,0.0,0.0,0.0,0.0,0.0,0.0,0.0,0.0,0.0,0.0,0.0,0.0,0.0,0.0,0.0,0.0,0.0,0.0,0.0,0.0,0.0,-0.2075,-0.1988,-0.2062,-0.2978,-0.3502,-0.3614,-0.4314,-0.5172,-0.6184,-0.6273,-0.4172,-0.0399,-0.0109,0.0,0.0,0.0,0.0,0.0,0.3658,0.0,0.0,0.0,0.0,0.0,0.0,0.0,0.0,0.9814,1.0673,1.13,1.0918,0.0,0.0,0.0,0.0,0.0,1.0941,1.0985,1.0976,1.0318,1.0137,0.9884,0.9007,0.8535,0.8071,0.7349,0.7148,0.7101,0.7092,0.7939,0.8327,0.7253,0.8855,1.0439,1.0907,1.0286,1.0467,1.2107,0.0,0.0,0.0,0.0,0.0,0.0,0.0,0.0,0.0,0.7382,0.7115,0.7139,0.7139,0.7139,0.7139,0.7139,0.7129,0.7109,0.7129,0.7115,0.7075,0.7099,0.7095,0.0,0.0,0.0,0.6571,0.6577,0.6684,0.6615,0.4703,0.3641,0.3306,0.5305,0.6039,0.5405,0.0,0.0,0.0,0.0,0.0,0.0,0.0,0.0,0.0,0.0,0.0,0.0,0.0,0.0,0.0,0.0,0.0,0.0,0.0,0.0,0.0,-0.4729,-0.3359,-0.2794,-0.333,-0.2992,-0.3083,-0.3606,-0.4716,-0.5353,-0.5557,-0.6036,-0.4852,-0.213,-0.0652,0.0,0.0,0.0,0.0,0.4819,0.4365,0.0,0.0,0.0,0.0,0.0,0.0,0.0,0.0,0.9033,0.9518,0.993,0.9898,0.0,0.0,0.0,0.0,0.0,1.0888,1.1607,1.1734,0.9649,0.8898,0.8553,0.8018,0.7841,0.7773,0.7647,0.7344,0.7629,0.9391,0.8299,0.7898,1.0173,1.0546,1.0554,0.0,0.0,1.1138,1.0113,0.0,0.0,0.0,0.0,0.0,0.0,0.0,0.0,0.0,0.6949,0.7017,0.7136,0.7139,0.7139,0.7139,0.7139,0.7082,0.6963,0.7082,0.701,0.6773,0.6902,0.6895,0.0,0.0,0.5781,0.4149,0.4151,0.5243,0.693,0.6187,0.3738,0.0628,0.0988,0.1078,0.0988,0.0,0.0,0.0,0.0,0.0,0.0,0.0,0.0,0.0,0.0,0.0,0.0,0.0,0.0,0.0,0.0,0.0,0.0,0.0,0.0,0.0,-0.5481,-0.4926,-0.4855,-0.5424,-0.6835,-0.6568,-0.4575,-0.5109,-0.5642,-0.6108,-0.632,-0.545,-0.3557,-0.3091,-0.1785,0.0,0.0,0.1462,0.3796,0.0,0.0,0.0,0.0,0.0,0.0,0.0,0.0,0.0,0.0,0.9416,0.9955,0.9737,0.0,0.0,0.0,0.0,0.0,1.0036,1.0544,1.0878,1.0593,1.0783,1.0992,1.0785,1.025,0.9631,0.892,0.8632,0.8748,0.9499,0.9163,0.9374,1.1279,1.0423,0.9761,1.0417,0.9944,0.0,0.0,0.0,0.0,0.0,0.0,0.0,0.0,0.0,0.0,0.0,0.0,0.6993,0.7136,0.7139,0.7139,0.7139,0.7139,0.7105,0.7044,0.7109,0.7068,0.6939,0.701,0.7014,0.6877,0.0,0.5266,0.5315,0.2736,0.2325,0.3222,0.2964,0.1677,0.0,0.0,0.0,0.0,0.0,0.0,0.0,0.0,0.0,0.0,0.0,0.0,0.0,0.0,0.0,0.0,0.0,0.0,0.0,0.0,0.0,0.0,0.0,0.0,-0.5161,-0.5895,-0.6337,-0.6942,-0.7651,-1.006,-1.0174,-0.7757,-0.6289,-0.5913,-0.661,-0.6469,-0.575,-0.4561,-0.4915,-0.3424,-0.0588,-0.0166,0.078,0.2165,0.0,0.0,0.0,0.0,0.0,0.0,0.0,0.0,0.0,0.0,0.0,0.0,0.0,0.0,0.0,0.9297,0.9071,0.9158,0.9648,0.9982,1.0449,1.178,1.2168,1.2391,1.302,1.2101,1.0912,1.0259,1.0084,0.9935,0.9783,1.027,1.0862,1.1345,1.0273,0.9682,1.0502,0.0,0.0,0.0,0.0,0.0,0.0,0.0,0.0,0.0,0.0,0.0,0.0,0.0,0.6919,0.7132,0.7109,0.7105,0.7139,0.7139,0.7139,0.7139,0.7139,0.7102,0.7037,0.7037,0.701,0.6873,0.446,0.4261,0.5114,0.1538,0.0,0.0,0.0,0.0,0.0,0.0,0.0,0.0,0.0,0.0,0.0,0.0,0.0,0.0,0.0,0.0,0.0,0.0,0.0,0.0,0.0,0.0,0.0,0.0,0.0,0.0,0.0,0.0,-0.5658,-0.6513,-0.7311,-0.834,-0.9562,-1.0053,-1.1749,-1.4769,-0.8822,-0.6116,-0.6354,-0.5877,-0.5463,-0.5013,-0.464,-0.3705,-0.2314,-0.0694,0.0067,0.048,0.3779,0.0,0.0,0.0,0.0,0.0,0.0,0.0,0.0,0.0,0.0,0.0,0.0,0.0,1.0515,0.9772,0.9662,0.998,1.0774,1.1364,1.1912,1.2571,1.0893,0.9762,1.2204,1.1143,1.0003,1.1223,1.1151,1.1066,1.1508,1.1654,1.1358,1.041,1.1042,1.16,0.0,0.0,0.0,0.0,0.0,0.0,0.0,0.0,0.0,0.0,0.0,0.0,0.0,0.0,0.0,0.7126,0.7014,0.7007,0.7139,0.7139,0.7139,0.7139,0.7139,0.6997,0.6732,0.6732,0.6675,0.6513,0.4116,0.217,0.0474,0.0162,0.0,0.0,0.0,0.0,0.0,0.0,0.0,0.0,0.0,0.0,0.0,0.0,0.0,0.0,0.0,0.0,0.0,0.0,0.0,0.0,0.0,0.0,0.0,0.0,0.0,0.0,0.0,-0.6033,-0.6601,-0.783,-0.9069,-1.0154,-1.1071,-1.249,-1.3973,-1.5452,-1.1016,-0.7966,-0.6324,-0.6021,-0.5514,-0.4959,-0.4957,-0.3905,-0.2012,-0.0596,0.0,0.0199,0.2591,0.3737,0.0,0.0,0.0,0.0,0.0,0.0,0.0,0.0,0.8238,0.8709,0.9128,0.9597,0.9904,0.9385,0.8889,0.8643,0.9195,0.9902,1.0699,1.1645,1.0834,1.0508,1.314,1.2764,1.1975,1.2328,1.2695,1.2613,1.1662,1.2053,1.2104,1.0657,1.0915,0.0,0.0,0.0,0.0,0.0,0.0,0.0,0.0,0.0,0.0,0.0,0.0,0.0,0.0,0.0,0.0,0.7129,0.7088,0.7085,0.7139,0.7139,0.7139,0.7139,0.7139,0.7082,0.6973,0.6973,0.6786,0.6523,0.5741,0.3272,0.0,0.0,0.0,0.0,0.0,0.0,0.0,0.0,0.0,0.0,0.0,0.0,0.0,0.0,0.0,0.0,0.0,0.0,0.0,0.0,0.0,0.0,0.0,0.0,0.0,0.0,0.0,0.0,-0.692,-0.7005,-0.7646,-0.9009,-1.0019,-1.1191,-1.2477,-1.4377,-1.5564,-1.6013,-1.3187,-1.0159,-0.714,-0.6648,-0.6071,-0.5408,-0.5157,-0.3811,-0.1721,-0.0523,0.0612,0.1707,0.2897,0.3612,0.0,0.0,0.0,0.0,0.0,0.0,0.0,0.0,0.7855,0.8338,0.904,0.9419,0.9534,0.9252,0.8975,0.8734,0.8886,0.9467,1.024,1.113,1.0951,1.1103,1.3208,1.3004,1.2506,1.2872,1.3037,1.2786,1.1655,1.1728,1.1699,0.0,1.0942,0.0,0.0,0.0,0.0,0.0,0.0,0.0,0.0,0.0,0.0,0.0,0.0,0.0,0.0,0.0,0.0,0.0,0.7095,0.7075,0.7075,0.7115,0.7115,0.7075,0.7119,0.7115,0.7071,0.6987,0.683,0.661,0.6576,0.4792,0.1867,0.0565,0.0,0.0,0.0,0.0,0.0,0.0,0.0,0.0,0.0,0.0,0.0,0.0,0.0,0.0,0.0,0.0,0.0,0.0,0.0,0.0,0.0,0.0,0.0,0.0,0.0,0.0,-0.7577,-0.7961,-0.8655,-0.9738,-0.991,-1.1223,-1.3801,-1.5157,-1.6363,-1.7383,-1.5468,-1.253,-0.8678,-0.7762,-0.7069,-0.6532,-0.5068,-0.3468,-0.1732,-0.0527,0.1967,0.5046,0.5102,0.5123,0.512,0.0,0.0,0.0,0.0,0.0,0.0,0.0,0.702,0.793,0.8736,0.9287,0.9592,0.9583,1.0215,1.0791,1.0371,1.0576,1.0977,1.1297,1.1086,1.1046,1.1922,1.1264,1.098,1.2666,1.1905,1.111,1.1706,1.0661,0.0,1.0848,0.0,0.0,0.0,0.0,0.0,0.0,0.0,0.0,0.0,0.0,0.0,0.0,0.0,0.0,0.0,0.0,0.0,0.0,0.7,0.6926,0.6926,0.7068,0.7068,0.6929,0.7068,0.7065,0.6932,0.6853,0.6695,0.6556,0.6358,0.6306,0.5963,0.1746,0.0,0.0,0.0,0.0,0.0,0.0,0.0,0.0,0.0,0.0,0.0,0.0,0.0,0.0,0.0,0.0,0.0,0.0,0.0,0.0,0.0,0.0,0.0,0.0,0.0,0.0,-0.8502,-0.8153,-0.844,-0.9611,-1.0266,-1.0826,-1.1271,-1.2616,-1.3956,-1.528,-1.4613,-1.2138,-0.8003,-0.7808,-0.7238,-0.6312,-0.6565,-0.4828,-0.1708,-0.0501,0.0597,0.1837,0.5472,0.6562,0.6013,0.0,0.0,0.0,0.0,0.0,0.0,0.0,0.0,0.0,0.8375,0.8971,0.9131,0.8838,0.8711,0.8552,0.8154,0.9228,1.0419,1.0194,1.1556,1.2735,1.1981,1.1726,1.1889,1.2835,1.2224,1.1526,1.1488,1.1461,0.0,0.0,0.0,0.0,0.0,0.0,0.0,0.0,0.0,0.0,0.0,0.0,0.0,0.0,0.0,0.0,0.0,0.0,0.0,0.0,0.68,0.6776,0.677,0.6837,0.6843,0.6867,0.7022,0.7041,0.7011,0.6997,0.6087,0.4608,0.6185,0.6655,0.5997,0.1765,0.0,0.0,0.0,0.0,0.0,0.0,0.0,0.0,0.0,0.0,0.0,0.0,0.0,0.0,0.0,0.0,0.0,0.0,-0.589,-0.6183,0.0,0.0,0.0,0.0,0.0,0.0,-0.8192,-0.8435,-0.8984,-0.9908,-1.0785,-1.1276,-1.1317,-1.1896,-1.2473,-1.3015,-1.3304,-1.1849,-0.8792,-0.8741,-0.8246,-0.7402,-0.7715,-0.6602,-0.4397,-0.1301,0.0,0.027,0.3388,0.5561,0.6876,0.0,0.0,0.0,0.0,0.0,0.0,0.0,0.0,0.0,0.744,0.798,0.833,0.875,0.9053,0.9307,0.957,1.0703,1.1836,1.1914,1.2931,1.3635,1.2496,1.1826,1.1606,1.1951,1.1552,1.1074,1.1009,1.131,0.0,0.0,0.0,0.0,0.0,0.0,0.0,0.0,0.0,0.0,0.0,0.0,0.0,0.0,0.0,0.0,0.0,0.0,0.0,0.0,0.6709,0.6767,0.6627,0.6776,0.6783,0.6726,0.602,0.6218,0.7101,0.7097,0.6314,0.4957,0.4524,0.4101,0.3622,0.1037,0.0,0.0,0.0,0.0,0.0,0.0,0.0,0.0,0.0,0.0,0.0,0.0,0.0,0.0,0.0,0.0,0.0,-0.5845,-0.6227,-0.6631,0.0,0.0,0.0,-0.7102,-0.7384,-0.7452,-0.7178,-0.8684,-0.9853,-1.0466,-1.1387,-1.2168,-1.2788,-1.2268,-1.1577,-1.0732,-1.1711,-1.1466,-1.015,-1.009,-0.974,-0.911,-0.854,-0.8496,-0.8415,-0.274,-0.0208,0.0,0.0,0.2948,0.7272,0.6457,0.0,0.0,0.0,0.0,0.0,0.0,0.0,0.0,0.6236,0.6649,0.726,0.8834,1.0234,1.1582,1.2725,1.3494,1.4165,1.5039,1.4625,1.383,1.3152,1.1787,1.0624,1.0624,1.0347,1.0247,1.0478,1.0621,0.0,0.0,0.0,0.0,0.0,0.0,0.0,0.0,0.0,0.0,0.0,0.0,0.0,0.0,0.0,0.0,0.0,0.0,0.0,0.6658,0.6661,0.6607,0.6568,0.6713,0.673,0.0,0.4811,0.5032,0.7097,0.7097,0.6829,0.621,0.1472,-0.0321,0.0,0.0,0.0,0.0,0.0,0.0,0.0,0.0,0.0,0.0,0.0,0.0,0.0,0.0,0.0,0.0,0.0,0.0,-0.5762,-0.5385,-0.603,-0.6402,-0.6118,-0.6365,0.0,-0.708,-0.6846,-0.6917,-0.752,-0.8311,-0.9273,-1.0444,-1.171,-1.2056,-1.146,-1.0646,-0.9986,-0.9414,-1.0627,-1.0206,-0.8399,-0.9956,-0.9932,-0.8577,-0.8869,-0.891,-0.8554,-0.4453,-0.1687,0.0,0.0,0.1884,0.4906,0.6676,0.6903,0.0,0.0,0.0,0.0,0.0,0.0,0.0,0.5857,0.602,0.6039,0.6684,0.7996,0.9281,0.9431,1.1305,1.3271,1.3789,1.357,1.3178,1.3036,1.1787,1.0624,1.0624,1.0571,1.0358,0.9843,0.0,0.0,0.0,0.0,0.0,0.0,0.0,0.0,0.0,0.0,0.0,0.0,0.0,0.0,0.0,0.0,0.0,0.0,0.0,0.0,0.6352,0.6373,0.6363,0.6329,0.6411,0.6404,0.0,0.6325,0.66,0.7126,0.7108,0.5044,0.1275,-0.3096,-0.3081,0.0,0.0,0.0,0.0,0.0,0.0,0.0,0.0,0.0,0.0,0.0,0.0,0.0,0.0,0.0,0.0,0.0,0.0,-0.6326,-0.588,-0.6375,-0.6606,-0.6126,-0.6275,0.0,0.0,-0.625,-0.6299,-0.6768,-0.8064,-0.9724,-1.1694,-1.2413,-1.215,-1.0802,-0.9874,-0.887,-0.7764,-0.8652,-0.8901,-0.8546,-0.9842,-0.9995,-0.9089,-0.9203,-0.9105,-0.8602,-0.5636,-0.2688,0.0203,0.2692,0.3503,0.3522,0.5649,0.6311,0.5996,0.5117,0.0,0.0,0.0,0.0,0.0,0.0,0.0,0.5186,0.6201,0.7314,0.8514,0.9987,1.1714,1.3313,1.4204,1.3696,1.3009,1.3009,1.1787,1.0624,1.0624,1.0301,0.9737,0.0,0.0,0.0,0.0,0.0,0.0,0.0,0.0,0.0,0.0,0.0,0.0,0.0,0.0,0.0,0.0,0.0,0.0,0.0,0.6338,0.6264,0.6271,0.6281,0.6291,0.6302,0.6311,0.6447,0.6624,0.4656,0.3687,0.3694,0.3687,0.2384,-0.0157,-0.2357,-0.3147,-0.2833,-0.0863,0.0,0.0,0.0,0.0,0.0,0.0,0.0,0.0,0.0,0.0,0.0,0.0,0.0,0.0,0.0,0.0,0.0,-0.6556,-0.6789,-0.6807,-0.6348,-0.623,-0.6045,0.0,0.0,0.0,-0.5793,-0.7913,-1.0319,-1.296,-1.2817,-1.2025,-1.0585,-0.9428,-0.808,-0.6573,-0.694,-0.7866,-0.9358,-0.9736,-0.9805,-0.968,-0.9372,-0.9119,-0.8699,-0.6079,-0.3043,0.0377,0.4639,0.5009,0.3089,0.4398,0.5163,0.5429,0.4678,0.465,0.4972,0.4826,0.0,0.0,0.0,0.0,0.4532,0.5962,0.7049,0.8286,1.0841,1.2274,1.3455,1.5022,1.4264,1.3183,1.3009,1.1849,1.0744,1.0428,0.9913,0.0,0.0,0.0,0.0,0.0,0.0,0.0,0.0,0.0,0.0,0.0,0.0,0.0,0.0,0.0,0.0,0.0,0.0,0.0,0.6338,0.6264,0.6268,0.6278,0.6285,0.6302,0.6329,0.5608,0.5463,0.5817,0.1898,-0.0394,-0.1099,-0.1099,-0.1099,-0.1099,-0.1099,-0.2672,-0.4977,-0.2201,-0.0637,0.0,0.0,0.0,0.0,0.0,0.0,0.0,0.0,0.0,0.0,0.0,0.0,0.0,0.0,0.0,0.0,0.0,-0.6498,-0.6338,-0.5931,-0.5527,-0.5253,-0.5205,-0.5195,-0.5361,-0.5774,0.0,0.0,-1.2409,-1.1559,-1.0948,-1.0759,-0.8771,-0.7558,-0.7276,-0.7157,-0.7938,-0.9561,-0.9433,-0.936,-0.9239,-0.8815,-0.8769,-0.8829,-0.524,-0.2279,0.0064,0.0764,0.2348,0.4328,0.4133,0.422,0.438,0.4074,0.4244,0.4621,0.4943,0.4939,0.0,0.0,0.0,0.4076,0.4315,0.5888,0.7545,0.7469,0.9858,1.2851,1.4865,1.4688,1.3846,1.3191,1.2266,1.1212,0.0,0.0,0.0,0.0,0.0,0.0,0.0,0.0,0.0,0.0,0.0,0.0,0.0,0.0,0.0,0.0,0.0,0.0,0.0,0.0,0.0,0.6338,0.6271,0.6278,0.6278,0.6308,0.6325,0.6329,0.2672,0.0873,0.0972,0.0324,-0.1924,-0.5448,-0.5448,-0.5448,-0.5448,-0.543,-0.3684,-0.1097,-0.4171,-0.327,0.0,0.0,0.0,0.0,0.0,0.0,0.0,0.0,0.0,0.0,0.0,0.0,0.0,0.0,0.0,0.0,0.0,0.0,-0.625,-0.5852,-0.5391,-0.5108,-0.5108,-0.5108,-0.5573,-0.6672,-0.7985,-0.941,-1.0931,-1.0521,-0.9923,-0.9205,-0.8228,-0.7395,-0.6727,-0.6654,-0.7512,-0.9262,-0.8638,-0.8774,-0.9526,-0.8545,-0.8119,-0.7945,-0.4992,-0.2276,0.0,0.0,0.2539,0.6158,0.4518,0.5045,0.6401,0.4347,0.3945,0.4466,0.4937,0.494,0.4722,0.4637,0.0,0.0,0.0,0.4526,0.5885,0.8009,1.0704,1.334,1.5,1.4451,1.3425,1.307,1.2027,1.0787,0.0,0.0,0.0,0.0,0.0,0.0,0.0,0.0,0.0,0.0,0.0,0.0,0.0,0.0,0.0,0.0,0.0,0.0,0.0,0.0,0.6338,0.6338,0.6271,0.5721,0.4535,0.5671,0.5129,0.283,0.0942,0.0,-0.0,-0.2394,-0.4537,-0.6329,-0.6315,-0.6312,-0.6312,-0.6315,-0.3925,-0.0157,-0.2041,-0.1659,0.0,0.0,0.0,0.0,0.0,0.0,0.0,0.0,0.0,0.0,0.0,0.0,0.0,0.0,0.0,0.0,0.0,0.0,-0.6123,-0.5832,0.0,0.0,0.0,-0.5108,-0.5725,-0.7202,-0.7818,-0.8609,-0.9654,-0.9428,-0.8858,-0.8012,-0.7657,-0.7068,-0.6287,-0.6432,-0.7461,-0.9301,-0.8545,-0.8981,-1.0343,-0.8765,-0.8007,-0.7668,-0.4941,-0.2306,0.0,0.0,0.3093,0.7642,0.7037,0.7582,0.8223,0.5113,0.4448,0.0,0.0,0.0,0.0,0.0,0.0,0.0,0.0,0.0,0.4441,0.8397,1.0502,1.2035,1.3847,1.3267,1.2258,1.2334,0.0,1.0415,0.0,0.0,0.0,0.0,0.0,0.0,0.0,0.0,0.0,0.0,0.0,0.0,0.0,0.0,0.0,0.0,0.0,0.0,0.0,0.0,0.6338,0.6338,0.6274,0.5326,0.3202,0.4164,0.3224,0.0,0.0,0.0,-0.0079,-0.4254,-0.6329,-0.6329,-0.6305,-0.5973,-0.5497,-0.6077,-0.4489,-0.1489,-0.0471,0.0,0.0,0.0,0.0,0.0,0.0,0.0,0.0,0.0,0.0,0.0,0.0,0.0,0.0,0.0,0.0,0.0,0.0,0.0,-0.5823,-0.5803,-0.5391,-0.5108,-0.5108,-0.5108,-0.5571,-0.6662,-0.7005,-0.7754,-0.91,-0.8102,0.0,-0.8264,-0.696,-0.6359,-0.6485,-0.7049,-0.8339,-1.0225,-0.9935,-1.0553,-1.1791,-0.9776,-0.8939,-0.8856,-0.5047,-0.2091,0.0,0.0,0.3104,0.8204,1.2981,1.2242,0.8417,0.6411,0.0,0.0,0.0,0.0,0.0,0.0,0.0,0.0,0.0,0.0,0.0,0.6935,0.7134,0.7166,1.0433,1.0659,1.0133,1.0533,0.0,0.0,0.0,0.0,0.0,0.0,0.0,0.0,0.0,0.0,0.0,0.0,0.0,0.0,0.0,0.0,0.0,0.0,0.0,0.0,0.0,0.0,0.6338,0.6338,0.6281,0.5335,0.3202,0.1332,0.0236,0.0,0.0,0.0,-0.0079,-0.4254,-0.6329,-0.6329,-0.6305,-0.5176,-0.3361,-0.5436,-0.6169,-0.5686,-0.1649,0.0,0.0,0.0,0.0,0.0,0.0,0.0,0.0,0.0,0.0,0.0,0.0,0.0,0.0,0.0,0.0,0.0,0.0,0.0,0.0,0.0,-0.5391,-0.5108,-0.5108,-0.5415,-0.5773,-0.6158,-0.6546,-0.6988,-0.7482,-0.71,-0.6987,-0.72,-0.6716,-0.6473,-0.6495,-0.6466,-0.7483,-0.9463,-0.8474,-0.918,-1.1211,-0.9783,-0.9065,-0.8835,-0.8108,-0.5432,-0.099,0.6767,0.9002,0.8052,1.1386,0.0,0.0,0.0,0.0,0.0,0.0,0.0,0.0,0.0,0.0,0.0,0.2138,0.2135,0.2799,0.408,0.6136,0.8226,0.9427,1.0194,1.0534,1.0172,1.0349,0.0,0.0,0.0,0.0,0.0,0.0,0.0,0.0,0.0,0.0,0.0,0.0,0.0,0.0,0.0,0.0,0.0,0.0,0.0,0.0,0.0,0.0,0.6338,0.6285,0.5335,0.3202,0.1097,0.0,0.0,0.0,0.0,-0.0,-0.2899,-0.4956,-0.625,-0.4867,-0.4548,-0.5196,-0.593,-0.6335,-0.6009,-0.1728,0.0,0.0,0.0,0.0,0.0,0.0,0.0,0.0,0.0,0.0,0.0,0.0,0.0,0.0,0.0,0.0,0.0,-0.5435,0.0,0.0,0.0,0.0,-0.5108,-0.5108,-0.5509,-0.58,-0.5893,-0.626,-0.65,-0.6599,-0.6599,-0.6564,-0.647,-0.6361,-0.6194,-0.5952,-0.6013,-0.6829,-0.8347,-0.7894,-0.8836,-1.0838,-0.9692,-0.9292,-0.9424,-0.9442,0.0,-0.3112,0.0,0.0,1.0459,0.0,0.0,0.0,0.0,0.0,0.0,0.0,0.0,0.0,0.0,0.0,0.0,0.0,0.1947,0.2497,0.2925,0.5053,0.7351,0.8165,0.8671,0.9118,0.9653,0.0,0.0,0.0,0.0,0.0,0.0,0.0,0.0,0.0,0.0,0.0,0.0,0.0,0.0,0.0,0.0,0.0,0.0,0.0,0.0,0.0,0.0,0.0,0.6338,0.6285,0.5021,0.2111,0.0706,0.0,0.0,0.0,0.0,-0.0,-0.1408,-0.3526,-0.625,-0.4794,-0.4953,-0.6247,-0.4815,-0.4178,-0.3936,-0.1178,0.0,0.0,0.0,0.0,0.0,0.0,0.0,0.0,0.0,0.0,0.0,0.0,0.0,0.0,0.0,0.0,-0.4373,-0.4301,0.0,0.0,0.0,0.0,0.0,-0.5146,-0.5389,-0.5646,-0.5852,-0.6064,-0.6294,-0.6557,-0.6574,-0.6441,-0.6206,-0.5873,-0.5434,-0.4926,-0.5817,-0.6529,-0.709,-0.8299,-0.959,-1.0762,-0.9485,-0.9612,-1.0653,0.0,-0.7107,-0.5998,0.0,0.4703,1.5169,0.0,0.0,0.0,1.5417,1.5416,0.0,1.2591,0.0,0.0,0.0,0.0,0.0,0.0,0.2554,0.2783,0.0,0.0,0.0,0.6411,0.0,0.0,0.8933,0.0,0.0,0.0,0.0,0.0,0.0,0.0,0.0,0.0,0.0,0.0,0.0,0.0,0.0,0.0,0.0,0.0,0.0,0.0,0.0,0.0,0.0,0.6338,0.6338,0.6203,0.4316,0.0157,0.0,0.0,0.0,0.0,0.0,0.0,0.0,-0.2117,-0.609,-0.625,-0.6254,-0.5855,-0.1806,0.0,0.0,0.0,0.0,0.0,0.0,0.0,0.0,0.0,0.0,0.0,0.0,0.0,0.0,0.0,0.0,-0.4036,-0.3783,-0.4117,-0.4305,0.0,0.0,0.0,-0.4465,-0.5218,-0.5815,-0.6032,-0.6292,-0.6097,-0.5297,-0.5488,-0.5716,-0.5932,-0.5808,-0.5878,-0.6189,-0.5637,-0.5366,-0.5399,-0.4986,-0.5211,-0.6015,-0.6079,-0.7093,-0.8832,-0.7891,-0.7738,-0.8085,-0.7205,0.0,-0.1404,0.2691,0.6555,0.0,0.0,0.0,0.0,0.0,1.5756,1.484,0.0,1.2103,0.9233,0.0,0.0,0.1226,0.0,0.1605,0.2791,0.3659,0.0,0.0,0.0,0.0,0.0,0.0,0.0,0.0,0.0,0.0,0.0,0.0,0.0,0.0,0.0,0.0,0.0,0.0,0.0,0.0,0.0,0.0,0.0,0.0,0.0,0.0,0.0,0.6338,0.6338,0.6338,0.4849,0.2737,0.0078,0.0,0.0,0.0,0.0,0.0,0.0,0.0,-0.0627,-0.1885,-0.4888,-0.4614,-0.1691,-0.0475,0.0,0.0,0.0,0.0,0.0,0.0,0.0,0.0,0.0,0.0,0.0,0.0,0.0,-0.3291,-0.3442,-0.3897,-0.4241,-0.4256,-0.4424,-0.454,0.0,0.0,0.0,-0.5052,-0.5877,-0.641,-0.636,-0.6232,-0.5838,-0.5166,-0.5221,-0.5258,-0.5248,-0.5531,-0.5715,-0.5745,-0.5133,-0.4898,-0.5056,-0.4312,-0.4124,-0.4435,-0.5001,-0.5844,-0.6915,-0.659,-0.6475,-0.6499,-0.5736,0.0,0.0,0.2294,0.0,0.0,1.347,1.5168,0.0,0.0,0.0,1.5127,1.7614,1.5276,0.0,0.0,0.0,0.0,0.0,0.2369,0.4342,0.4137,0.4964,0.5633,0.4475,0.0,0.0,0.0,0.7701,0.0,0.0,0.0,0.0,0.0,0.0,0.0,0.0,0.0,0.0,0.0,0.0,0.0,0.0,0.0,0.0,0.0,0.0,0.0,0.6338,0.6338,0.6264,0.6268,0.5085,0.3047,0.0078,0.0,0.0,0.0,0.0,0.0,0.0,0.0,0.0,-0.0078,-0.2514,-0.3328,-0.2565,-0.079,0.0,0.0,0.0,0.0,0.0,0.0,0.0,0.0,0.0,0.0,0.0,0.0,0.0,-0.3089,-0.3738,-0.4304,-0.4808,-0.5203,-0.51,-0.5046,0.0,-0.5152,-0.5318,-0.629,-0.6769,-0.6899,-0.6516,-0.5786,-0.5296,-0.5195,-0.5046,-0.4845,-0.4552,-0.5381,-0.5635,-0.5161,-0.4557,-0.4262,-0.426,-0.3744,-0.3252,-0.2817,-0.4492,-0.5279,-0.5269,-0.5512,-0.5599,-0.5479,-0.4552,0.0,-0.5219,-0.1629,0.6694,0.0,0.0,1.7942,0.0,1.9731,1.8134,1.6063,2.1366,1.9732,0.0,0.0,0.0,0.0,0.0,0.4516,0.6881,0.5059,0.5322,0.6148,0.6258,0.0,0.0,0.9199,0.9413,0.0,0.0,0.0,0.0,0.0,0.0,0.0,0.0,0.0,0.0,0.0,0.0,0.0,0.0,0.0,0.0,0.0,0.6868,0.6338,0.6338,0.6338,0.6268,0.6278,0.6278,0.4618,0.0783,0.047,0.0313,0.0314,0.0078,0.0,0.0,0.0,0.0,0.0,0.0,-0.2045,-0.5387,-0.1651,0.0,0.0,0.0,0.0,0.0,0.0,0.0,0.0,0.0,0.0,0.0,-0.1957,-0.2388,-0.278,-0.2923,-0.4178,-0.5114,-0.5003,-0.5529,-0.5954,-0.6014,-0.5956,-0.6509,-0.8046,-0.7654,-0.7364,-0.7508,-0.673,-0.5712,-0.4494,-0.4295,-0.4215,-0.419,-0.429,-0.4664,-0.541,-0.4475,-0.3975,-0.3968,-0.3193,-0.2746,-0.2649,-0.312,-0.3925,-0.496,-0.4713,-0.4321,-0.396,-0.5333,0.0,-0.3116,-0.1711,0.0,1.0989,1.6053,1.7791,1.7805,1.9691,1.9924,1.9381,0.0,1.9376,1.6721,0.0,0.0,0.0,0.6467,0.0,0.0,0.0,0.0,0.0,0.0,0.0,0.0,0.6015,0.6155,0.0,0.0,0.0,0.0,0.0,0.0,0.0,0.0,0.0,0.0,0.0,0.0,0.0,0.0,0.0,0.0,0.0,0.6868,0.6338,0.6338,0.6338,0.6264,0.6264,0.6274,0.596,0.509,0.3361,0.25,0.25,0.0861,0.0,0.0,0.0,0.0,0.0,0.0,-0.0476,-0.1211,-0.0396,0.0,0.0,0.0,0.0,0.0,0.0,0.0,0.0,0.0,0.0,0.0,-0.1833,-0.2341,-0.2908,-0.3183,-0.4285,-0.5261,-0.5755,-0.6091,-0.6533,-0.7221,-0.7515,-0.7842,-0.828,-0.806,-0.7723,-0.7341,-0.6579,-0.5685,-0.4666,-0.3792,-0.3405,-0.3637,-0.3941,-0.4312,-0.4744,-0.42,-0.3901,-0.3898,-0.2586,-0.1957,-0.1965,-0.2919,-0.3534,-0.3842,-0.3855,-0.3294,-0.2454,0.0,-0.4426,-0.4316,-0.4476,0.0,0.9445,1.566,1.784,1.8019,2.0637,2.2621,2.3728,2.2035,2.0027,0.0,0.0,1.0753,0.8611,0.0,0.8991,1.0026,0.0,0.0,0.0,0.7212,0.0,0.0,0.0,0.0,0.0,0.0,0.0,0.0,0.0,0.0,0.0,0.0,0.0,0.0,0.0,0.0,0.0,0.0,0.0,0.0,0.0,0.6868,0.6338,0.6338,0.6338,0.6291,0.6363,0.6305,0.6305,0.6307,0.528,0.4696,0.4701,0.3686,0.2586,0.1563,0.047,0.0,0.0078,0.2199,0.1977,0.0,0.0,0.0,0.0,0.0,0.0,0.0,0.0,0.0,0.0,0.0,0.0,0.0359,-0.1975,-0.2429,-0.2958,-0.3509,-0.4336,-0.526,-0.6238,-0.632,-0.6719,-0.7963,-0.8692,-0.8824,-0.8121,-0.8459,-0.8248,-0.7022,-0.6433,-0.5792,-0.5019,-0.3619,-0.3096,-0.3756,-0.4008,-0.4235,-0.446,-0.4,-0.3809,-0.3901,-0.2147,-0.121,-0.1092,-0.2826,-0.3432,-0.3009,-0.3182,-0.2798,0.0,0.0,0.0,-0.5375,0.0,-0.0635,0.8232,1.5281,1.7968,1.8395,2.1655,2.4873,2.713,2.4149,0.0,1.8658,1.7904,1.5175,0.0,0.0,0.0,0.0,0.0,0.0,0.0,0.0,0.0,0.6985,0.0,0.0,0.0,0.0,0.0,0.0,0.0,0.0,0.0,0.0,0.0,0.0,0.0,0.0,0.0,0.0,0.0,0.0,0.0,0.6622,0.6074,0.6247,0.6101,0.6129,0.6417,0.6322,0.6322,0.6291,0.6339,0.6281,0.6288,0.6308,0.5268,0.3279,0.1881,0.0784,0.0078,0.3536,0.3708,0.1187,0.0316,0.0,0.0,0.0,0.0,0.0,0.0,0.0,0.009,0.0988,0.1348,0.1887,-0.2386,-0.2523,-0.2531,-0.2795,-0.3972,-0.4892,-0.4928,-0.5435,-0.6141,-0.7098,-0.7959,-0.853,-0.8691,0.0,0.0,0.0,0.0,0.0,-0.4932,0.0,-0.4252,-0.5783,-0.4346,-0.4322,-0.6074,-0.4251,-0.3478,-0.3891,-0.2153,-0.0904,-0.0181,-0.1927,-0.3118,-0.3746,-0.301,0.0,0.0,0.0,-0.2058,0.0,-0.0877,0.0677,0.0,1.3849,1.8009,1.8436,2.1631,2.4873,2.7065,0.0,2.2572,2.1606,0.0,1.6536,1.8251,1.0978,0.0,0.0,0.0,0.0,0.0,0.0,0.9243,0.0,0.0,0.0,0.0,0.0,0.0,0.0,0.0,0.0,0.0,0.0,0.0,0.0,0.0,0.0,0.0,0.0,0.0,0.0,0.0,0.0,0.5403,0.62,0.5521,0.5426,0.624,0.6271,0.6271,0.6288,0.6271,0.6264,0.6264,0.6278,0.5562,0.4057,0.5112,0.3616,0.0,0.0471,0.2467,0.5387,0.1621,0.0,0.0,0.0,0.0,0.0,0.0,0.0,0.0539,0.477,0.6314,0.6037,-0.1567,-0.1875,-0.2151,-0.2479,-0.328,-0.4029,-0.4596,-0.5746,-0.6764,-0.7451,-0.8068,0.0,0.0,0.0,0.0,0.0,0.0,-0.6857,0.0,0.0,-0.4989,-0.5922,-0.4952,-0.4676,-0.5283,-0.4338,-0.3857,-0.3902,-0.2658,-0.1354,-0.0012,-0.0745,-0.2342,-0.4547,-0.32,0.0,-0.2272,0.0,-0.3824,0.0,0.0,0.0,0.0,1.4895,1.9167,2.0962,2.2315,2.4873,2.7244,0.0,2.2559,0.0,0.0,0.0,0.0,0.0,0.0,0.0,0.0,0.0,0.0,0.0,0.0,0.0,0.6734,0.0,0.4353,0.0,0.0,0.0,0.0,0.0,0.0,0.0,0.0,0.0,0.0,0.0,0.0,0.0,0.0,0.0,0.0,0.0,0.0,0.0,0.0,0.5645,0.7398,0.6738,0.6298,0.638,0.6302,0.6338,0.6338,0.6274,0.6032,0.5392,0.6054,0.4711,0.1875,0.3054,0.3263,0.269,0.3341,0.2227,0.0,0.0,0.0,0.0262,0.3029,0.4137,0.4226,0.4844,0.5927,0.6933,-0.0657,-0.1269,-0.1881,-0.219,-0.2665,-0.3278,-0.4184,-0.5427,-0.6519,0.0,0.0,0.0,-0.8886,-0.8815,0.0,0.0,0.0,-0.685,0.0,0.0,-0.5635,-0.6496,-0.5409,0.0,-0.5104,-0.4263,-0.3622,-0.3181,-0.279,-0.2209,-0.1442,-0.0794,-0.1771,-0.407,-0.427,-0.3251,-0.1659,0.0,0.0,-0.2722,0.2858,0.7744,1.2217,1.6409,2.0017,2.2811,2.2811,2.4581,2.6703,2.4998,2.2251,0.0,2.1097,0.0,0.0,0.0,0.0,0.0,1.2844,0.0,0.0,0.0,0.0,0.0,0.0,0.0,0.0,0.0,0.0,0.0,0.0,0.0,0.0,0.0,0.0,0.0,0.0,0.0,0.0,0.0,0.0,0.0,0.0,0.0,0.0,0.0,0.0,0.0,0.8078,0.7227,0.6617,0.6489,0.6315,0.6338,0.6338,0.6271,0.6271,0.6338,0.6281,0.5491,0.3988,0.4389,0.2869,0.0164,0.3207,0.2841,0.0086,0.1395,0.1931,0.2285,0.5725,0.7121,0.6936,0.5191,0.5638,0.7094,-0.0032,-0.0988,-0.1798,-0.1811,-0.2326,-0.2863,-0.3269,0.0,0.0,0.0,0.0,0.0,0.0,0.0,0.0,0.0,0.0,-0.7176,-0.5416,0.0,-0.6224,0.0,0.0,-0.478,0.0,-0.4009,-0.2237,-0.1383,-0.2203,-0.3465,-0.5078,-0.2809,-0.1623,-0.1636,-0.6593,-0.737,-0.5009,-0.6012,-0.6877,-0.6746,0.1625,1.0094,1.777,0.0,2.0014,2.2811,2.2811,0.0,0.0,2.3164,2.183,0.0,0.0,0.0,0.0,0.0,0.0,0.0,0.0,0.0,0.0,0.8918,0.0,0.0,0.0,0.0,0.6344,0.0,0.0,0.0,0.0,0.0,0.0,0.0,0.0,0.0,0.0,0.0,0.0,0.0,0.0,0.0,0.0,0.0,0.0,0.0,0.0,0.0,0.7757,0.7791,0.733,0.6345,0.6342,0.6338,0.6338,0.6338,0.6338,0.6338,0.6274,0.6285,0.6054,0.2034,0.0161,0.0,0.0168,0.0086,0.0359,0.4945,0.6853,0.6853,0.7009,0.7088,0.7088,0.6996,0.6996,0.7081,0.0,-0.0329,-0.0729,-0.1126,-0.1368,-0.1863,0.0,-0.3648,0.0,0.0,0.0,0.0,0.0,0.0,-0.7598,0.0,0.0,-0.6684,-0.5745,-0.5546,0.0,0.0,0.0,-0.538,0.0,0.0,-0.246,-0.1373,-0.1042,-0.1789,-0.3491,-0.2343,-0.2764,-0.454,0.0,-0.6903,0.0,0.0,0.0,0.0,0.0,1.3579,1.8032,0.0,0.0,2.2633,2.1566,2.293,0.0,2.3234,2.1897,2.1134,2.2375,2.1681,2.0662,2.1925,2.1758,0.0,0.0,0.0,1.9715,1.3188,0.0,0.0,0.0,0.0,0.0,0.0,0.0,0.0,0.0,0.0,0.0,0.0,0.0,0.0,0.0,0.0,0.0,0.0,0.0,0.0,0.0,0.0,0.0,0.0,0.0,0.0,0.0,0.8763,0.7629,0.7326,0.6644,0.6338,0.6338,0.6338,0.6338,0.6338,0.6264,0.6274,0.6203,0.3828,0.2645,0.2349,0.2349,0.2407,0.2504,0.4117,0.5744,0.7111,0.7091,0.7084,0.7084,0.7068,0.7064,0.7061,0.028,0.0188,-0.0071,-0.0499,-0.0575,0.0,0.0,0.0,0.0,0.0,-0.5082,0.0,-0.6382,0.0,-0.6674,0.0,-0.6573,-0.6189,-0.616,-0.5894,0.0,-0.75,-0.604,0.0,0.0,0.0,-0.322,-0.2014,-0.1089,-0.164,-0.3545,-0.2764,-0.342,-0.524,0.0,-0.6117,-0.7555,0.0,0.0569,0.0,0.0,1.6227,0.0,0.0,1.9297,2.1021,0.0,2.1738,2.3528,2.3644,2.2747,2.2079,2.5115,2.419,2.2433,2.4601,2.3949,2.2338,2.1584,2.2511,0.0,1.6379,1.3924,0.0,0.4519,0.0,0.0,0.0,0.0,0.0,0.0,0.0,0.0,0.0,0.0,0.0,0.0,0.0,0.0,0.0,0.0,0.0,0.0,0.0,0.0,0.0,0.0,0.0,0.0,0.0,0.888,0.8494,0.7739,0.7176,0.6872,0.6795,0.6644,0.6338,0.6338,0.6268,0.6278,0.5448,0.4937,0.4706,0.4828,0.4856,0.483,0.4825,0.5727,0.7183,0.7609,0.7514,0.7071,0.7058,0.7139,0.7139,0.0832,0.0581,0.0,0.0,0.0,0.0,0.0,0.0,-0.324,0.0,-0.4006,-0.4387,-0.4436,-0.4578,-0.5505,-0.741,-0.6261,0.0,-0.6495,-0.6307,0.0,0.0,-0.5504,-0.5242,-0.8305,0.0,0.0,0.0,0.0,-0.3018,-0.5045,-0.3992,-0.3577,-0.3745,-0.4828,0.0,-0.5101,-0.482,0.4041,1.7907,1.7921,1.7935,1.7949,1.8046,0.0,1.8119,1.9702,2.037,2.0968,2.4059,2.4059,2.3354,2.6538,2.7575,2.7575,2.7575,2.7575,2.6971,2.4176,2.3422,2.2452,1.8411,0.0,0.0,0.0,0.0,1.5052,0.0,0.0,0.0,0.0,0.0,0.0,0.0,0.0,0.0,0.0,0.0,0.0,0.0,0.0,0.0,0.0,0.0,0.0,0.0,0.0,0.0,0.0,0.0,1.065,0.9776,0.9499,0.8856,0.7859,0.7859,0.7403,0.6412,0.6412,0.6342,0.6359,0.651,0.659,0.6672,0.6994,0.7054,0.7098,0.7177,0.7173,0.7347,0.8548,0.8277,0.7228,0.7228,0.7228,0.7228,0.105,0.1306,0.1225,0.0,0.0,-0.0196,0.0,0.0,0.0,0.0,-0.2423,-0.2649,-0.3087,-0.3224,-0.3972,-0.5836,-0.5614,0.0,0.0,0.0,0.0,-0.631,-0.3719,-0.2304,-0.2279,-0.3609,0.0,-0.539,0.0,0.0,-0.2046,-0.3044,-0.3593,-0.3787,0.0,0.0,-0.5007,-0.1216,0.6661,1.659,1.6856,1.6782,0.0,0.0,1.8437,1.6747,1.8127,2.0125,2.2333,2.3119,2.3119,2.3295,2.5915,2.7152,2.7509,2.693,2.7152,2.741,2.6688,2.646,2.5697,2.2451,2.0841,1.9553,0.0,0.0,0.0,0.0,0.0,0.0,0.0,0.0,0.0,0.0,0.0,0.0,0.0,0.0,0.0,0.0,0.0,0.0,0.0,0.0,0.0,0.0,0.0,0.0,0.0,0.0,0.0,1.0767,1.0041,0.9386,0.8922,0.8917,0.877,0.8542,0.7783,0.7403,0.7411,0.6691,0.6468,0.6715,0.6756,0.6919,0.7153,0.8025,0.8464,0.8548,0.9753,1.0005,0.957,0.8711,0.8452,0.854,0.1427,0.0,0.0,0.1117,0.0,0.0,0.1176,0.0,0.0,-0.1815,-0.136,0.0,-0.1481,-0.1517,-0.1941,-0.295,-0.3761,0.0,0.0,0.0,0.0,-0.7521,-0.3352,-0.0673,-0.0,-0.1513,0.0,-0.5792,0.0,0.0,-0.1646,-0.2145,-0.2836,-0.3632,0.0,-0.2963,-0.329,0.3681,0.9662,1.455,1.5557,0.0,0.0,1.8131,1.8393,1.8002,1.8004,1.9652,2.1861,2.2573,2.3295,2.4142,2.5943,2.6982,2.7473,2.6721,2.7034,2.7625,2.7625,2.7625,2.7215,2.553,2.464,2.3831,2.244,2.0925,2.0268,0.0,0.0,0.0,0.0,0.0,0.0,0.0,0.0,0.0,0.0,0.0,0.0,0.0,0.0,0.0,0.0,0.0,0.0,0.0,0.0,0.0,0.0,0.0,0.0,1.2207,1.1053,1.0323,1.0133,0.9642,0.9369,0.9296,0.8313,0.7783,0.7787,0.6787,0.6481,0.6702,0.7348,0.7688,0.8013,0.9144,0.9666,0.9662,1.0351,1.0864,1.1295,1.0611,1.0096,0.9749,0.1869,0.0,0.0,0.0,0.0,0.0,0.0,0.1657,0.0,-0.1059,0.0,0.0,0.0,0.0,0.0,0.0,0.0,-0.1825,-0.2332,-0.3841,-0.5741,-0.812,-0.2085,0.1144,0.0672,0.0691,0.0,0.0,0.0,0.0,-0.2197,-0.1311,-0.1713,0.0,0.0,0.0,0.0,0.8269,1.2195,0.0,1.4665,1.586,1.6636,1.6954,1.8245,1.9803,1.8916,1.9532,2.0905,2.2333,2.383,2.5218,2.6187,2.693,2.7357,2.6669,2.7034,2.7625,2.7625,2.7625,2.7625,2.7625,2.7625,2.6826,2.3866,2.3109,2.3036,2.3167,2.0842,2.0351,0.0,0.0,0.0,0.0,0.0,0.0,0.0,0.0,0.0,0.0,0.0,0.0,0.0,0.0,0.0,0.0,0.0,0.0,0.0,0.0,0.0,1.3581,1.2392,0.0,1.1264,0.0,0.9828,0.9543,0.85,0.8012,0.794,0.7111,0.6796,0.7033,0.8359,0.897,0.9235,1.0351,1.0956,1.1042,1.1042,1.1643,1.2504,1.2504,1.1901,1.1042,0.0,0.0,0.0,0.0,0.0,0.3782,0.4131,0.4348,0.382,0.2164,0.0764,0.0,0.0,0.0,0.0,0.0,0.242,0.0,0.0,0.0,0.0,0.2573,0.6593,0.7384,0.4408,0.4375,0.2828,0.0,0.0,0.0,-0.0221,-0.0688,0.0,0.0,0.0,0.0,0.5014,0.8247,0.0,1.4796,1.5913,1.6419,1.6826,1.8955,1.8701,1.7658,2.0859,2.2165,2.2394,2.2693,2.3438,2.4563,2.6026,2.6616,2.6669,2.6563,2.7034,2.7625,2.7625,2.7625,2.7625,2.7625,2.7625,2.7309,2.6112,2.6247,2.6495,2.5945,2.5791,2.501,2.2323,0.0,0.0,0.0,0.0,0.0,0.0,0.0,0.0,0.0,0.0,0.0,0.0,0.0,0.0,0.0,0.0,0.0,0.0,0.0,0.0,0.0,1.3313,0.0,0.0,0.0,1.1735,1.0683,0.9547,0.9069,0.9003,0.8282,0.7994,0.8168,0.9511,1.0149,1.0351,1.1552,1.2595,1.3476,1.3476,1.3646,1.3822,1.3822,1.3652,1.3476,0.0,0.0,0.0,0.0,0.0,0.0,0.0,0.6315,0.0,0.4262,0.3344,0.2439,0.1474,0.1384,0.141,0.141,0.3023,0.3632,0.2825,0.1944,0.221,0.3899,0.6497,0.0,0.6899,0.7921,0.683,0.354,0.0,0.0,0.0132,0.0,0.0,-0.0254,0.0,0.8036,0.0,0.0,0.0,1.5662,1.5843,1.6149,1.6766,1.7996,1.8512,1.8823,2.082,2.2358,2.3451,2.3451,2.4579,2.5901,2.5932,2.6443,2.6982,2.6616,2.7034,2.7625,2.7625,2.7625,2.7625,2.7625,2.7625,2.7524,2.7152,2.7357,2.7509,2.7137,2.7357,2.6154,2.147,1.527,0.0,0.0,0.0,0.0,0.0,0.0,0.0,0.0,0.0,0.0,0.0,0.0,0.0,0.0,0.0,0.0,0.0,0.0,0.0,0.0,0.0,0.0,0.0,0.0,0.0,1.1904,1.0824,1.0313,1.0248,0.9538,0.9347,0.9542,1.073,1.1337,1.1558,1.2772,1.3561,1.4088,1.4088,1.4088,1.4088,1.4088,1.4088,1.4088,0.0,0.404,0.0,0.0,0.6556,0.0,0.8043,0.7785,0.7037,0.5939,0.5564,0.4853,0.3448,0.3264,0.3284,0.3284,0.3282,0.3889,0.5326,0.4095,0.3291,0.3311,0.4947,0.6555,0.806,0.9869,0.9375,0.0,0.0,0.0,0.0,0.0,0.0,0.0,0.0,0.0,0.0,0.0,1.5461,1.6195,1.5934,1.6219,1.6913,1.7288,1.8634,2.0497,2.098,2.2443,2.4107,2.4292,2.563,2.6967,2.5946,2.6428,2.7306,2.6878,2.7152,2.7625,2.7625,2.7625,2.7625,2.7625,2.7625,2.756,2.7408,2.7509,2.7575,2.7408,2.724,2.5745,2.1166,1.6943,0.0,0.0,0.0,0.0,0.0,0.0,0.0,0.0,0.0,0.0,0.0,0.0,0.0,0.0,0.0,0.0,0.0,0.0,0.0,0.0,0.0,1.2305,1.2886,0.0,1.2118,0.0,1.1741,1.1276,1.1282,1.0814,1.0696,1.0861,1.2016,1.2577,1.2766,1.373,1.4088,1.4088,1.4088,1.4088,1.4173,1.4328,1.4412,1.4496,0.0,0.0,0.0,0.0,0.0,0.0,0.0,0.8435,0.8216,0.7103,0.6011,0.5338,0.5137,0.5166,0.5122,0.5122,0.5179,0.5246,0.5396,0.5249,0.5235,0.5438,0.6543,0.7246,0.7212,0.8192,0.8299,0.0,0.0,0.0,0.0,0.0,0.0,0.0,0.0,0.0,0.0,1.7243,1.7206,1.662,1.7385,1.7794,1.8046,1.9511,2.0178,2.0676,2.2934,2.3909,2.4235,2.5009,2.5439,2.5728,2.6229,2.651,2.6721,2.7306,2.7575,2.7625,2.7625,2.7625,2.7625,2.7625,2.7625,2.7408,2.6774,2.7137,2.7408,2.6721,2.6054,2.4332,2.0178,2.1438,2.14,0.0,0.0,0.0,0.0,0.0,0.0,0.0,0.0,0.0,0.0,0.0,0.0,0.0,1.6784,0.0,0.0,0.0,0.0,1.3464,0.0,1.0974,1.0448,1.2432,0.0,1.1964,1.1754,1.1626,1.1638,1.1811,1.194,1.1975,1.3323,1.3886,1.3913,1.4082,1.4088,1.4088,1.4088,1.4088,1.425,1.5213,1.5538,1.5703,0.0,0.0,0.0,0.0,0.0,0.0,0.0,1.0225,0.9723,0.9276,0.8156,0.7364,0.7248,0.7172,0.7132,0.6951,0.6478,0.6148,0.6152,0.5787,0.5535,0.5665,0.6165,0.6429,0.6445,0.7381,0.7856,0.0,0.0,0.0,0.0,0.0,0.0,0.0,0.0,1.7012,1.7225,1.7151,1.7273,1.7501,1.7862,1.8008,1.8192,1.9771,2.0751,2.144,2.3372,2.4147,2.4328,2.5106,2.5673,2.6122,2.6404,2.6826,2.7203,2.7509,2.7625,2.7625,2.7625,2.7625,2.7625,2.7625,2.7625,2.7509,2.7255,2.7408,2.7524,2.7203,2.6215,2.4901,2.3286,2.2022,2.1156,0.0,0.0,0.0,0.0,0.0,0.0,0.0,0.0,0.0,0.0,0.0,0.0,0.0,0.0,0.0,0.0,0.0,0.0,1.0353,0.0,1.2749,1.0512,1.2545,1.332,1.2679,1.2803,1.2806,1.2819,1.3176,1.331,1.3316,1.3866,1.4496,1.5054,1.5054,1.5462,1.6041,1.6041,1.6041,1.6041,1.6519,1.6683,1.6683,0.9017,0.0,1.0453,0.0,1.2167,1.2639,1.3093,1.2249,1.1539,1.1539,1.0498,0.9454,0.8529,0.842,0.8266,0.8047,0.7437,0.7111,0.7111,0.6957,0.6615,0.6066,0.7037,0.0,0.6966,0.8208,0.9163,0.9749,0.977,0.0,0.0,0.9617,0.0,0.0,1.5183,1.7155,1.7937,1.7271,1.7354,1.8008,1.8008,1.8134,1.8586,2.0158,2.144,2.2552,2.3716,2.4486,2.5007,2.5287,2.5892,2.651,2.651,2.6982,2.7625,2.7625,2.7625,2.7625,2.7625,2.7625,2.7625,2.7625,2.7625,2.7625,2.7625,2.7625,2.7458,2.7019,2.5932,2.5063,2.5063,2.2888,2.1524,2.2897,0.0,0.0,0.0,0.0,0.0,0.0,2.0176,1.9162,1.9107,0.0,0.0,0.0,0.0,0.0,0.0,0.0,0.0,0.0,0.0,0.0,0.0,1.3487,1.4137,1.3936,1.3838,1.3774,1.3781,1.4316,1.4573,1.4573,1.4901,1.547,1.6191,1.6191,1.6601,1.7342,1.7342,1.7342,1.7334,1.7658,1.7819,1.7819,0.9925,1.1335,1.263,1.3479,1.4506,1.5147,1.5163,1.4307,1.3665,1.3665,1.2872,1.1291,0.8701,0.842,0.8266,0.8047,0.7962,0.7962,0.7962,0.9105,0.8945,0.0,0.0,1.0988,0.9205,1.1028,1.2552,1.3517,0.0,0.0,1.102,1.5691,1.7881,1.7886,1.7932,1.8008,1.7978,1.7998,1.8008,1.8008,1.8008,1.8529,1.9486,2.1049,2.266,2.4121,2.4239,2.5231,2.6336,2.5618,2.5892,2.651,2.651,2.6982,2.7625,2.7625,2.7625,2.7625,2.7625,2.7625,2.7625,2.7625,2.7625,2.7625,2.7625,2.7625,2.7188,2.5728,2.4851,2.4292,2.4292,2.4867,2.4255,2.0873,0.0,0.0,0.0,0.0,0.0,0.0,1.3069,1.2176,1.9108,0.0,0.0,0.0,0.0,0.0,0.0,0.0,0.0,1.659,1.5177,0.0,1.5061,1.5483,1.5688,1.5688,1.4566,1.4082,1.4166,1.522,1.5696,1.5779,1.6764,1.7253,1.7261,1.7261,1.7261,1.7342,1.7342,1.7342,1.7423,1.8559,1.8957,1.9116,1.1533,1.2501,1.3167,1.283,1.3528,1.4171,1.4171,1.3882,1.3962,1.4665,1.3882,1.2892,1.1881,1.114,1.0617,0.0,0.952,0.919,0.0,0.9641,0.98,0.9433,1.1066,1.1742,1.1175,1.1754,1.2927,1.4632,0.0,0.0,0.0,1.4686,1.6348,1.8017,1.8017,1.7976,1.8008,1.8654,1.8519,1.8076,1.9299,1.9552,1.9552,2.1747,2.2566,2.2845,2.4469,2.5007,2.5119,2.5892,2.6283,2.6616,2.7086,2.7408,2.7625,2.7625,2.7625,2.7625,2.7625,2.7625,2.7625,2.7625,2.7625,2.7625,2.7625,2.7188,2.6721,2.6229,2.5175,2.4624,2.5618,2.5175,2.4485,2.3849,2.4285,0.0,0.0,0.0,0.0,0.0,2.0245,2.0329,0.0,1.9083,0.0,0.0,0.0,0.0,0.0,0.0,0.0,0.0,1.5999,0.0,1.4346,1.5979,1.6718,1.6557,1.6327,1.6288,1.6281,1.6609,1.6764,1.6846,1.7172,1.7738,1.847,1.847,1.8877,1.9511,1.9511,1.9511,1.959,1.9923,2.0079,2.0235,1.2879,1.3593,1.3954,1.3025,1.3875,1.4799,1.4799,1.4799,1.5013,1.5658,1.4879,1.4237,1.4018,1.3502,0.0,1.127,1.1108,1.085,1.0343,1.1319,1.1677,1.1049,1.3148,1.3945,1.3222,0.0,0.0,1.6166,1.4569,1.4383,1.5654,1.5654,1.6493,1.8008,1.8327,1.8462,1.8586,1.9705,1.9716,1.91,2.0482,2.0749,2.0451,2.1992,2.2701,2.3015,2.4483,2.5063,2.5287,2.6176,2.6669,2.6982,2.7458,2.7625,2.7625,2.7625,2.7625,2.7625,2.7625,2.7625,2.7625,2.7625,2.7625,2.7625,2.7625,2.6826,2.6068,2.6068,2.5119,2.4681,2.5837,2.5563,2.5175,2.5342,2.5007,2.4337,2.3245,0.0,0.0,0.0,0.0,0.0,0.0,2.123,0.0,0.0,0.0,0.0,0.0,0.0,0.0,1.5416,1.8151,0.0,1.6485,1.7427,1.786,1.7699,1.7379,1.7342,1.7334,1.7738,1.7908,1.7989,1.839,1.8948,1.9599,1.9599,2.0001,2.0566,2.0566,2.0566,2.0644,2.1011,2.1155,2.1221,1.3954,1.4522,0.0,0.0,1.5226,0.0,1.6498,1.6567,1.6636,1.6706,1.586,1.5305,1.5305,1.5305,1.4339,1.1902,0.0,0.0,0.0,1.3894,1.4293,1.2148,1.58,1.712,1.5362,1.7051,1.8008,1.8076,1.8144,1.8144,1.8076,1.8134,1.8144,1.8144,1.8977,1.9365,1.9486,2.106,2.1272,2.0643,2.1436,2.1844,2.1877,2.2002,2.3027,2.4292,2.4408,2.5342,2.651,2.6563,2.7034,2.7625,2.7625,2.7625,2.7625,2.7625,2.7625,2.7625,2.7625,2.7625,2.7625,2.7625,2.7625,2.7625,2.7625,2.6481,2.5453,2.5508,2.4894,2.4567,2.5398,2.6014,2.6229,2.5563,2.5398,2.4838,2.3365,0.0,0.0,0.0,0.0,0.0,0.0,2.0677,2.2468,0.0,0.0,0.0,0.0,0.0,1.5283,2.1763,2.1078,2.0566,2.0566,1.9599,1.9116,1.9116,1.8069,1.7496,1.7577,1.863,1.9116,1.9204,2.0167,2.0566,2.0566,2.0566,2.0644,2.0712,2.0712,2.0712,2.0944,2.1811,2.2103,2.2253,0.0,0.0,1.4879,1.389,1.4736,1.5508,1.5508,1.614,1.6853,1.7569,1.6862,1.6289,1.6289,1.6289,1.5833,1.4864,1.4854,1.4554,1.3733,1.4721,1.5166,1.4686,1.6105,1.706,1.7335,1.7784,1.8337,1.8977,1.9694,1.9617,1.8977,1.9683,1.9628,1.9044,1.9879,2.0268,2.0333,2.1404,2.1342,2.0719,2.2151,2.2421,2.2002,2.3267,2.3989,2.4452,2.5563,2.6176,2.6563,2.7152,2.7473,2.7625,2.7625,2.7625,2.7625,2.7625,2.7625,2.7625,2.7625,2.7625,2.7625,2.7625,2.7625,2.7625,2.7625,2.6481,2.5728,2.6864,2.5605,2.4894,2.6759,2.6322,2.5783,2.6176,2.5287,2.4452,2.406,2.3484,0.0,0.0,2.2472,2.3037,2.3577,2.4117,2.3766,0.0,0.0,0.0,0.0,1.9014,1.8873,2.1901,2.1078,2.0566,2.0566,2.0323,2.0245,2.0245,1.9923,1.9835,1.9835,2.0079,2.0245,2.0245,2.0489,2.0566,2.0566,2.0566,2.1011,2.1669,2.1669,2.2113,2.285,2.3073,2.3147,2.3356,1.593,1.586,1.5508,1.4522,1.5171,1.5807,1.586,1.6645,1.7432,1.794,1.7741,1.7488,1.7488,1.7727,1.7784,1.7658,1.6905,1.6108,1.5332,1.622,1.6797,1.6902,1.7703,1.8476,1.9177,1.9177,1.9431,1.9879,2.0398,2.0333,1.9879,2.0398,2.0333,1.9944,2.0782,2.1175,2.129,2.247,2.2531,2.1854,2.316,2.3399,2.3088,2.3989,2.4509,2.4951,2.6068,2.651,2.6616,2.7357,2.7625,2.7625,2.7625,2.7625,2.7625,2.7625,2.7625,2.766,2.7959,2.781,2.7625,2.7625,2.7625,2.7625,2.7625,2.6707,2.6122,2.693,2.6162,2.5673,2.6878,2.6707,2.6443,2.651,2.5837,2.5063,2.4408,2.3943,0.0,2.3489,2.4376,2.5189,2.5692,2.6244,2.5794,2.4017,0.0,0.0,2.3374,2.2418,2.2134,2.2648,2.2188,2.1527,2.0644,2.0566,2.0566,2.0566,2.0566,2.0779,2.1221,2.1221,2.1527,2.1897,2.1897,2.1897,2.1897,2.1897,2.2264,2.2702,2.2702,2.2999,2.3588,2.4482,2.4767,2.5039,1.7189,1.6913,1.6498,1.5587,1.6167,1.6733,1.6636,1.7432,1.8037,1.8096,1.8547,1.8863,1.8932,1.9402,1.981,2.0098,1.8957,1.7866,1.6843,1.7731,1.8386,1.8592,1.9282,1.9942,2.0602,2.0719,2.0782,2.0782,2.091,2.091,2.0782,2.091,2.091,2.0846,2.1678,2.2125,2.2359,2.3741,2.3943,2.3531,2.4163,2.4452,2.4452,2.4567,2.5007,2.5673,2.639,2.6669,2.6774,2.7408,2.766,2.771,2.771,2.781,2.7894,2.7894,2.781,2.781,2.8238,2.7993,2.7625,2.7625,2.7625,2.7625,2.7625,2.7034,2.651,2.6669,2.6563,2.651,2.6669,2.7203,2.7223,2.6162,2.6265,2.5926,2.4198,0.0,2.455,2.441,2.5559,2.6574,2.7067,2.7458,2.767,2.767,2.6973,2.6533,0.0,2.5664,2.4779,2.3745,2.3599,2.2713,2.1088,2.1011,2.1011,2.1011,2.1011,2.1451,2.2253,2.2253,2.2702,2.3514,2.3514,2.3514,2.3514,2.3514,2.3588,2.3745,2.3868,2.4002,2.4362,2.6071,2.6684,2.6953,1.889,1.8307,1.7501,1.6567,1.7148,1.751,1.6706,1.7432,1.8135,1.8496,1.9272,2.0,2.0396,2.1252,2.1561,2.1178,2.0927,2.0212,1.8662,1.8515,1.8591,1.8875,1.8791,1.9301,2.0602,2.1302,2.169,2.169,2.2372,2.2372,2.169,2.2372,2.2372,2.1741,2.2567,2.3292,2.393,2.4163,2.4567,2.5063,2.5175,2.5231,2.5287,2.5906,2.6229,2.6457,2.7137,2.7408,2.7458,2.756,2.7959,2.8383,2.8383,2.8732,2.9134,2.9134,2.8779,2.8286,2.786,2.766,2.7625,2.7625,2.7625,2.7625,2.7625,2.7034,2.6669,2.7306,2.693,2.6669,2.7306,2.7509,2.6743,2.4141,2.5264,2.554,2.2804,0.0,2.6084,2.6007,2.7097,2.7933,2.7968,2.7833,2.767,2.767,2.6973,2.6533,2.6533,2.6383,2.5804,2.4791,2.3963,2.3368,2.3073,2.3073,2.3073,2.3073,2.3073,2.3158,2.3294,2.3294,2.3368,2.3514,2.3514,2.3514,2.3514,2.3514,2.3963,2.485,2.5611,2.637,2.7165,2.8206,2.8593,2.8721,2.0009,1.9694,1.9288,1.8849,1.9135,1.909,1.82,1.8632,1.9148,1.9351,2.0211,2.1094,2.1876,2.2473,2.2789,2.2586,2.2524,2.2061,2.1043,2.0327,2.0166,2.0561,2.064,2.1277,2.2567,2.2543,2.2967,2.382,2.3754,2.3754,2.382,2.4195,2.4137,2.382,2.4195,2.4553,2.4908,2.4908,2.5063,2.5398,2.5398,2.5618,2.6014,2.6336,2.6774,2.7152,2.7458,2.7625,2.7625,2.7625,2.7993,2.8511,2.8511,2.8685,2.8919,2.8919,2.8732,2.8383,2.776,2.7625,2.7625,2.7625,2.7625,2.7625,2.7625,2.7357,2.7203,2.7524,2.7306,2.7203,2.7524,2.7625,2.7171,2.5801,2.6421,2.6455,2.4712,2.5923,2.6933,2.6868,2.8029,2.8944,2.9298,2.9212,2.8939,2.8427,2.7604,2.6973,2.6521,2.6533,2.6314,2.5804,2.4325,2.3745,2.4337,2.3745,2.3514,2.3514,2.3514,2.3818,2.4337,2.4337,2.4624,2.5134,2.5134,2.5134,2.5134,2.5578,2.6064,2.6569,2.7392,2.7998,2.8492,2.938,2.969,2.9827,2.091,2.0719,2.059,2.059,2.059,2.0442,1.9899,2.0189,2.0682,2.0978,2.197,2.2976,2.3629,2.413,2.4302,2.3891,2.391,2.3658,2.2987,2.2355,2.2134,2.2274,2.2879,2.3611,2.4523,2.393,2.4208,2.5398,2.4851,2.4851,2.5398,2.5398,2.5398,2.5398,2.5398,2.5508,2.5673,2.5673,2.5728,2.5892,2.5892,2.6269,2.6774,2.6774,2.71,2.7625,2.7625,2.7625,2.7625,2.776,2.8222,2.8732,2.8873,2.8996,2.9088,2.8779,2.8511,2.8189,2.771,2.7625,2.7625,2.7625,2.7625,2.7625,2.7625,2.7625,2.7625,2.7625,2.7625,2.7625,2.7625,2.7625,2.738,2.6703,0.0,2.7149,2.5908,2.7026,2.7905,2.7795,2.9045,3.0075,3.0526,3.0389,3.0011,2.938,2.8492,2.767,2.685,2.6782,2.6714,2.6533,2.4981,2.4552,2.537,2.4552,2.4181,2.4181,2.4181,2.4624,2.537,2.537,2.5734,2.6533,2.6714,2.6782,2.685,2.767,2.7986,2.8117,2.8939,2.9317,2.938,3.0269,3.0584,3.0644,2.1815,2.1175,2.059,2.059,2.059,2.0747,2.1195,2.1927,2.2817,2.37,2.535,2.6362,2.6083,2.6845,2.6705,2.5075,2.5046,2.4749,2.3767,2.419,2.4137,2.3467,2.4556,2.5216,2.5342,2.5287,2.5287,2.5398,2.5342,2.5342,2.5398,2.5398,2.5398,2.5398,2.5398,2.5783,2.6404,2.6404,2.6826,2.7458,2.7458,2.7458,2.7524,2.7524,2.756,2.7625,2.7625,2.7625,2.7675,2.8238,2.8826,2.9451,2.9995,3.0559,3.0781,2.9673,2.8543,2.766,2.761,2.7625,2.7625,2.7625,2.7625,2.7625,2.7625,2.7625,2.7625,2.7625,2.7625,2.7625,2.7625,2.7625,2.6718,2.3998,0.0,0.0,2.3849,2.6926,2.9465,2.9441,3.0574,3.1349,3.1409,3.0718,3.0269,3.0208,2.938,2.8556,2.767,2.7604,2.7297,2.6521,2.6383,2.6302,2.6383,2.6314,2.6302,2.6302,2.6302,2.6314,2.6383,2.6383,2.6452,2.6521,2.7284,2.7604,2.767,2.8556,2.8876,2.9002,2.9889,3.0208,3.0329,3.1087,3.1409,3.1409,2.3267,2.2725,2.2395,2.3257,2.3033,2.2902,2.3426,2.3989,2.4713,2.5677,2.6687,2.743,2.7944,2.8271,2.8072,2.6974,2.6931,2.6469,2.5335,2.5955,2.5848,2.4762,2.5159,2.5618,2.6068,2.5618,2.5837,2.6745,2.6336,2.6336,2.6745,2.6745,2.6745,2.6745,2.6745,2.6916,2.7203,2.7203,2.7357,2.7625,2.7625,2.7625,2.7625,2.7625,2.7625,2.7625,2.7625,2.786,2.8189,2.8415,2.9134,2.9995,3.0208,3.0477,3.0393,2.918,2.8271,2.7625,2.7625,2.7625,2.7625,2.7625,2.7625,2.7625,2.7625,2.7625,2.7625,2.7625,2.7625,2.7625,2.7625,2.7625,2.7245,2.6132,0.0,2.7365,2.6634,2.8316,2.9729,3.0103,3.0971,3.1482,3.1482,3.1219,3.0837,3.0329,3.0011,2.9442,2.8556,2.7986,2.7351,2.6521,2.6533,2.6533,2.6533,2.6101,2.6101,2.6521,2.6101,2.6168,2.662,2.7061,2.7092,2.6857,2.8039,2.8288,2.7976,2.9288,2.9827,2.9889,3.0718,3.1029,3.1146,3.1879,3.216,3.2216,2.4749,2.4484,2.4491,2.5595,2.534,2.5218,2.5775,2.6343,2.695,2.7843,2.8222,2.8574,2.9086,2.8918,2.8502,2.7781,2.7742,2.7402,2.6623,2.7052,2.6967,2.6122,2.6108,2.6322,2.6826,2.6322,2.6587,2.7625,2.7086,2.7086,2.761,2.781,2.776,2.7625,2.781,2.7894,2.7894,2.7894,2.7993,2.8174,2.7944,2.7894,2.786,2.766,2.771,2.7894,2.7894,2.8271,2.8826,2.9012,2.9629,3.0335,3.0518,3.0293,2.9848,2.9012,2.8222,2.7625,2.7625,2.771,2.786,2.7675,2.7625,2.7625,2.7625,2.7625,2.7625,2.7625,2.7625,2.7625,2.7625,2.7625,2.7685,2.7859,2.7889,2.8128,2.8816,2.946,3.0028,3.0447,3.1106,3.1482,3.1482,3.1482,3.1278,3.0718,3.0703,3.0329,2.9442,2.8556,2.7736,2.6905,2.6905,2.6782,2.6533,2.6063,2.5975,2.6189,2.6041,2.6116,2.6448,2.7163,2.7287,2.7088,2.8246,2.8507,2.8218,2.9766,3.0338,3.047,3.1462,3.1853,3.1951,3.2625,3.2895,3.2986,2.6128,2.6424,2.6604,2.7232,2.7329,2.7492,2.813,2.8876,2.9638,3.0242,3.0439,3.0211,2.9391,2.8713,2.7968,2.7092,2.7187,2.7279,2.7334,2.7476,2.761,2.761,2.7625,2.7625,2.761,2.761,2.761,2.761,2.761,2.761,2.7625,2.8238,2.8189,2.7625,2.8222,2.8511,2.8511,2.8511,2.8826,2.9361,2.8732,2.8511,2.8415,2.786,2.7993,2.8511,2.8511,2.8873,2.9496,3.0123,3.0293,3.0435,3.1015,3.0393,2.9406,2.9406,2.8543,2.7625,2.7625,2.8042,2.8367,2.776,2.7625,2.7625,2.7625,2.7625,2.7625,2.7625,2.7625,2.7625,2.7625,2.7625,2.785,2.8487,2.8607,2.8831,2.949,3.0118,3.0507,3.0507,3.112,3.1482,3.1482,3.1482,3.1482,3.1482,3.1482,3.1161,3.0329,2.9504,2.862,2.7736,2.767,2.7284,2.6521,2.6521,2.6163,2.5598,2.6324,2.6396,2.5955,2.6674,2.7033,2.7079,2.7953,2.8325,2.8425,2.9873,3.0492,3.0623,3.205,3.2586,3.2695,3.3339,3.3582,3.3582,2.7542,2.7369,2.739,2.8493,2.831,2.8326,2.9519,2.986,3.0292,3.1058,3.1641,3.1506,3.0256,3.0408,2.9952,2.8247,2.8174,2.8181,2.8132,2.8589,2.8857,2.8857,2.8463,2.8415,2.8857,2.8857,2.8857,2.8857,2.8857,2.8857,2.8857,2.9042,2.9042,2.8857,2.8591,2.8748,2.9088,2.8701,2.8826,2.9361,2.8732,2.8732,2.9058,2.8463,2.8591,2.9134,2.9134,2.954,3.0081,3.0251,3.0559,3.0878,3.0658,3.0038,2.9316,2.8873,2.8511,2.8238,2.8238,2.8685,2.9012,2.8367,2.8238,2.8238,2.8238,2.7894,2.7625,2.7625,2.7625,2.7625,2.7625,2.7964,2.8544,2.9204,2.9319,2.972,3.0823,3.0703,3.0687,3.1165,3.1347,3.1482,3.1482,3.1482,3.1482,3.1482,3.1482,3.1161,3.0329,3.0072,2.9504,2.862,2.8051,2.7855,2.8247,2.6683,2.6016,2.6388,2.624,2.6391,2.6889,2.7568,2.7696,2.7462,2.8685,2.9222,2.9237,2.9665,3.0703,3.1989,3.1928,3.2473,3.3391,3.4037,3.4284,3.4382,2.8953,2.8885,2.8915,2.9959,2.9826,2.9763,3.0645,3.1043,3.1287,3.146,3.1866,3.1748,3.0612,3.0596,3.0214,2.9012,2.8901,2.8912,2.8858,2.918,2.9496,2.9761,2.9406,2.9271,2.9406,2.9406,2.9406,2.9406,2.9406,2.9406,2.9406,2.9629,2.9629,2.9406,2.9271,2.9406,2.9717,2.9361,2.954,3.0081,2.9451,2.9406,2.9673,2.9088,2.9225,2.9761,2.9761,3.0123,3.0658,3.0658,3.0878,3.1151,3.0781,3.0251,2.9673,2.9316,2.9042,2.8873,2.8873,2.9316,2.9673,2.9316,2.9042,2.8779,2.8559,2.8238,2.7959,2.7959,2.776,2.7836,2.8609,2.8859,2.9281,3.0231,3.0385,3.0654,3.1472,3.1192,3.1061,3.1422,3.1482,3.1482,3.1482,3.1482,3.1482,3.1482,3.1482,3.1278,3.0777,3.0777,3.0389,2.9566,2.9002,2.8812,2.9002,2.7613,2.6958,2.6921,2.6864,2.6898,2.7003,2.7733,2.7874,2.7685,2.8727,2.919,2.9289,3.0053,3.1098,3.2222,3.2613,3.3265,3.4087,3.4752,3.5005,3.5052,3.035,3.0597,3.0791,3.1362,3.1482,3.1524,3.1582,3.2114,3.2245,3.1595,3.1557,3.1262,3.0479,2.9932,2.9515,2.9406,2.9451,2.9496,2.9496,2.954,2.9805,3.0351,3.0393,3.0123,2.9585,2.954,2.954,2.954,2.954,2.954,2.9585,3.0123,3.0081,2.9585,3.0081,3.0351,3.0393,3.0293,3.0658,3.1151,3.0518,3.0335,3.0293,2.9717,2.9848,3.0393,3.0393,3.074,3.119,3.119,3.119,3.119,3.1151,3.074,3.0293,3.0251,2.9848,2.9496,2.9496,2.9935,3.0393,3.0393,2.9995,2.9406,2.8779,2.8606,2.8606,2.8606,2.8186,2.84,3.0163,3.0164,3.0292,3.1571,3.1731,3.1674,3.1705,3.1582,3.1482,3.1482,3.1482,3.1482,3.1482,3.1482,3.1482,3.1482,3.1482,3.1482,3.1482,3.1482,3.1161,3.045,3.0329,2.995,2.9254,2.9129,2.8518,2.7325,2.7968,2.772,2.6616,2.7306,2.7625,2.7655,2.8233,2.8599,2.8839,3.0689,3.156,3.1925,3.3779,3.4574,3.4783,3.5362,3.5622,3.5622,3.1108,3.13,3.1302,3.1452,3.1482,3.1682,3.2272,3.1944,3.1778,3.2222,3.224,3.1762,3.0526,3.0713,3.0538,2.9499,2.9805,3.0107,3.0107,3.0559,3.0878,3.1015,3.1015,3.0918,3.0797,3.0797,3.0797,3.0797,3.0797,3.0797,3.0797,3.0918,3.0935,3.0797,3.0435,3.0559,3.0975,3.0518,3.0658,3.1151,3.0518,3.0559,3.0935,3.0335,3.0477,3.1015,3.1015,3.1095,3.119,3.119,3.119,3.1112,3.0658,3.0393,3.0208,2.9717,2.9848,3.0107,3.0107,3.0576,3.1015,3.1015,3.0918,3.0658,3.0038,2.954,2.918,2.918,2.9562,3.0021,3.0445,3.1278,3.2239,3.3014,3.2716,3.2578,3.3045,3.2201,3.1482,3.1482,3.1482,3.1482,3.1482,3.1482,3.1482,3.1482,3.1482,3.1482,3.1482,3.1482,3.1409,3.1219,3.0644,3.0524,3.097,3.0329,2.9383,2.8025,2.8211,2.7955,2.7357,2.7524,2.7625,2.7625,2.7724,2.8374,2.9316,2.9828,3.1258,3.3144,3.3639,3.4442,3.5407,3.5577,3.5622,3.5622,3.2384,3.2256,3.2007,3.2007,3.2007,3.2053,3.2014,3.2258,3.2286,3.1981,3.2359,3.2269,3.1191,3.1429,3.1271,3.0326,3.0559,3.074,3.074,3.1015,3.119,3.119,3.119,3.119,3.119,3.1389,3.1372,3.119,3.119,3.119,3.119,3.119,3.119,3.119,3.0878,3.0878,3.119,3.0878,3.0918,3.119,3.0838,3.1044,3.147,3.115,3.1206,3.147,3.147,3.1351,3.119,3.119,3.119,3.1151,3.0838,3.074,3.0658,3.0351,3.0477,3.074,3.074,3.0975,3.119,3.119,3.119,3.1055,3.0435,3.0081,2.9946,3.0287,3.0448,3.09,3.2163,3.2747,3.3289,3.3966,3.3794,3.3582,3.3598,3.2971,3.2516,3.2516,3.2516,3.2516,3.2516,3.2516,3.2367,3.2064,3.2007,3.1853,3.1524,3.1482,3.1482,3.1482,3.1087,3.1087,3.1482,3.1087,3.0192,2.8917,2.8917,2.8459,2.7625,2.7625,2.776,2.8057,2.8377,2.9231,3.0494,3.1198,3.2449,3.4079,3.4439,3.4964,3.5622,3.5622,3.5783,3.5985,3.3479,3.3145,3.2788,3.2788,3.2656,3.2413,3.1842,3.2563,3.276,3.1729,3.227,3.2553,3.1985,3.1967,3.1858,3.1466,3.1428,3.1428,3.1428,3.1428,3.1428,3.1428,3.1428,3.1428,3.1428,3.1733,3.166,3.119,3.1252,3.1252,3.119,3.119,3.123,3.1291,3.123,3.1291,3.1428,3.1329,3.1368,3.1428,3.1428,3.162,3.1915,3.1915,3.1861,3.1789,3.1789,3.1528,3.119,3.119,3.119,3.119,3.119,3.1269,3.1291,3.1291,3.1291,3.1291,3.1291,3.1252,3.119,3.119,3.119,3.1089,3.0726,3.0659,3.0824,3.1421,3.1368,3.1847,3.4105,3.4203,3.4134,3.4684,3.4688,3.4431,3.3836,3.3684,3.3582,3.3582,3.3582,3.3582,3.3582,3.3582,3.3391,3.2788,3.2788,3.2477,3.1739,3.1697,3.164,3.1524,3.1482,3.1482,3.1482,3.164,3.1035,2.978,2.9872,2.9161,2.776,2.8016,2.8281,2.8685,2.937,3.0353,3.1596,3.2973,3.3914,3.4665,3.5311,3.5622,3.5622,3.5694,3.6097,3.6539,3.3582,3.3547,3.3479,3.3479,3.295,3.267,3.3144,3.2269,3.1881,3.2676,3.2286,3.209,3.2384,3.2417,3.2384,3.2316,3.2316,3.2316,3.2316,3.2316,3.2316,3.2316,3.2316,3.2316,3.2316,3.2384,3.2021,3.119,3.1545,3.1528,3.119,3.119,3.1389,3.1679,3.1351,3.1637,3.2282,3.1897,3.1968,3.2316,3.2316,3.235,3.2417,3.2417,3.2161,3.1789,3.1789,3.1528,3.119,3.119,3.119,3.119,3.119,3.1449,3.1733,3.1733,3.1733,3.1733,3.1733,3.147,3.119,3.119,3.119,3.136,3.1888,3.2039,3.2073,3.2158,3.3102,3.4061,3.4455,3.4969,3.5352,3.5453,3.4988,3.4576,3.4479,3.3987,3.3582,3.3582,3.3582,3.3582,3.3582,3.3582,3.3531,3.3479,3.3479,3.3182,3.2492,3.2437,3.2176,3.1524,3.1482,3.1482,3.1482,3.212,3.1744,3.0402,3.0964,3.024,2.8446,2.9564,2.9782,2.9319,3.0034,3.0755,3.1506,3.3007,3.3956,3.4604,3.5324,3.5622,3.5667,3.6139,3.6643,3.7097,3.5015,3.4638,3.4137,3.4013,3.3498,3.2945,3.2646,3.2395,3.2337,3.2686,3.2629,3.2663,3.289,3.2872,3.2795,3.2517,3.2484,3.2484,3.2484,3.2484,3.2484,3.2484,3.2484,3.2484,3.2484,3.2745,3.2583,3.1932,3.2109,3.2109,3.1932,3.1932,3.2021,3.2161,3.2021,3.2162,3.2484,3.2282,3.2316,3.2484,3.2484,3.2648,3.2872,3.2872,3.2777,3.25,3.1986,3.1528,3.123,3.147,3.1545,3.1565,3.1842,3.2056,3.2196,3.2196,3.2196,3.2196,3.2196,3.2039,3.1842,3.1603,3.1871,3.2205,3.2286,3.2916,3.3525,3.3525,3.4032,3.4624,3.5047,3.5402,3.5622,3.5622,3.5362,3.5161,3.5161,3.4894,3.4704,3.4704,3.4704,3.4704,3.4704,3.4704,3.4544,3.4186,3.4186,3.3887,3.3182,3.3145,3.2826,3.212,3.2104,3.2104,3.2104,3.2437,3.2101,3.1063,3.2128,3.1563,2.9627,3.024,3.0709,3.1124,3.1026,3.1808,3.3148,3.3399,3.4135,3.5165,3.5487,3.5766,3.6097,3.6643,3.7173,3.7578]}]]